[[{"header":{"parameterUnit":"m.s-1","parameterCategory":1,"la1":31.0,"la2":29.5877,"lo1":-88.7671,"lo2":-86.6584,"dy":0.0162,"dx":0.0185,"nx":115,"ny":88,"refTime":"2024-09-17T06:00:00:Z","depth":0,"parameterNumber":2,"parameterNumberName":"U-component_of_WINDS"},"data":[0.0,0.0,0.0,0.0,0.0,0.0,0.0,0.0,0.0,0.0,0.0,0.0,0.0,0.0,0.0,0.0,0.0,0.0,0.0,0.0,0.0,0.0,0.0,0.0,0.0,0.0,0.0,0.0,0.0,0.0,0.0,0.0,0.0,0.0,0.0,0.0,0.0,0.0,0.0,0.0,0.0,0.0,0.0,0.0,0.0,0.0,0.0,0.0,0.0,0.0,0.0,0.0,0.0,0.0,0.0,0.0,0.0,0.0,0.0,0.0,0.0,0.0,0.0,0.0,0.0,0.0,0.0,0.0,0.0,0.0,0.0,0.0,0.0,0.0,0.0,0.0,0.0,0.0,0.0,0.0,0.0,0.0,0.0,0.0,0.0,0.0,0.0,0.0,0.0,0.0,0.0,0.0,0.0,0.0,0.0,0.0,0.0,0.0,0.0,0.0,0.0,0.0,0.0,0.0,0.0,0.0,0.0,0.0,0.0,0.0,0.0,0.0,0.0,0.0,0.0,0.0,0.0,0.0,0.0,0.0,0.0,0.0,0.0,0.0,0.0,0.0,0.0,0.0,0.0,0.0,0.0,0.0,0.0,0.0,0.0,0.0,0.0,0.0,0.0,0.0,0.0,0.0,0.0,0.0,0.0,0.0,0.0,0.0,0.0,0.0,0.0,0.0,0.0,0.0,0.0,0.0,0.0,0.0,0.0,0.0,0.0,0.0,0.0,0.0,0.0,0.0,0.0,0.0,0.0,0.0,0.0,0.0,0.0,0.0,0.0,0.0,0.0,0.0,0.0,0.0,0.0,0.0,0.0,0.0,0.0,0.0,0.0,0.0,0.0,0.0,0.0,0.0,0.0,0.0,0.0,0.0,0.0,0.0,0.0,0.0,0.0,0.0,0.0,0.0,0.0,0.0,0.0,0.0,0.0,0.0,0.0,0.0,0.0,0.0,0.0,0.0,0.0,0.0,0.0,0.0,0.0,0.0,0.0,0.0,0.0,0.0,0.0,0.0,0.0,0.0,0.0,0.0,0.0,0.0,0.0,0.0,0.0,0.0,0.0,0.0,0.0,0.0,0.0,0.0,0.0,0.0,0.0,0.0,0.0,0.0,0.0,0.0,0.0,0.0,0.0,0.0,0.0,0.0,0.0,0.0,0.0,0.0,0.0,0.0,0.0,0.0,0.0,0.0,0.0,0.0,0.0,0.0,0.0,0.0,0.0,0.0,0.0,0.0,0.0,0.0,0.0,0.0,0.0,0.0,0.0,0.0,0.0,0.0,0.0,0.0,0.0,0.0,0.0,0.0,0.0,0.0,0.0,0.0,0.0,0.0,0.0,0.0,0.0,0.0,0.0,0.0,0.0,0.0,0.0,0.0,0.0,0.0,0.0,0.0,0.0,0.0,0.0,0.0,0.0,0.0,0.0,0.0,0.0,0.0,0.0,0.0,0.0,0.0,0.0,0.0,0.0,0.0,0.0,0.0,0.0,0.0,0.0,0.0,0.0,0.0,0.0,0.0,0.0,0.0,0.0,0.0,0.0,0.0,0.0,0.0,0.0,0.0,0.0,0.0,0.0,0.0,0.0,0.0,0.0,0.0,0.0,0.0,0.0,0.0,0.0,0.0,0.0,0.0,0.0,0.0,0.0,0.0,0.0,0.0,0.0,0.0,0.0,0.0,0.0,0.0,0.0,0.0,0.0,0.0,0.0,0.0,0.0,0.0,0.0,0.0,0.0,0.0,0.0,0.0,0.0,0.0,0.0,0.0,0.0,0.0,0.0,0.0,0.0,0.0,0.0,0.0,0.0,0.0,0.0,0.0,0.0,0.0,0.0,0.0,0.0,0.0,0.0,0.0,0.0,0.0,0.0,0.0,0.0,0.0,0.0,0.0,0.0,0.0,0.0,0.0,0.0,0.0,0.0,0.0,0.0,0.0,0.0,0.0,0.0,0.0,0.0,0.0,0.0,0.0,0.0,0.0,0.0,0.0,0.0,0.0,0.0,0.0,0.0,0.0,0.0,0.0,0.0,0.0,0.0,0.0,0.0,0.0,0.0,0.0,0.0,0.0,0.0,0.0,0.0,0.0,0.0,0.0,0.0,0.0,0.0,0.0,0.0,0.0,0.0,0.0,0.0,0.0,0.0,0.0,0.0,0.0,0.0,0.0,0.0,0.0,0.0,0.0,0.0,0.0,0.0,0.0,0.0,0.0,0.0,0.0,0.0,0.0,0.0,0.0,0.0,0.0,0.0,0.0,0.0,0.0,0.0,0.0,0.0,0.0,0.0,0.0,0.0,0.0,0.0,0.0,0.0,0.0,0.0,0.0,0.0,0.0,0.0,0.0,0.0,0.0,0.0,0.0,0.0,0.0,0.0,0.0,0.0,0.0,0.0,0.0,0.0,0.0,0.0,0.0,0.0,0.0,0.0,0.0,0.0,0.0,0.0,0.0,0.0,0.0,0.0,0.0,0.0,0.0,0.0,0.0,0.0,0.0,0.0,0.0,0.0,0.0,0.0,0.0,0.0,0.0,0.0,0.0,0.0,0.0,0.0,0.0,0.0,0.0,0.0,0.0,0.0,0.0,0.0,0.0,0.0,0.0,0.0,0.0,0.0,0.0,0.0,0.0,0.0,0.0,0.0,0.0,0.0,0.0,0.0,0.0,0.0,0.0,0.0,0.0,0.0,0.0,0.0,0.0,0.0,0.0,0.0,0.0,0.0,0.0,0.0,0.0,0.0,0.0,0.0,0.0,0.0,0.0,0.0,0.0,0.0,0.0,0.0,0.0,0.0,0.0,0.0,0.0,0.0,0.0,0.0,0.0,0.0,0.0,0.0,0.0,0.0,0.0,0.0,0.0,0.0,0.0,0.0,0.0,0.0,0.0,0.0,0.0,0.0,0.0,0.0,0.0,0.0,0.0,0.0,0.0,0.0,0.0,0.0,0.0,0.0,0.0,0.0,0.0,0.0,0.0,0.0,0.0,0.0,0.0,0.0,0.0,0.0,0.0,0.0,0.0,0.0,0.0,0.0,0.0,0.0,0.0,0.0,0.0,0.0,0.0,0.0,0.0,0.0,0.0,0.0,0.0,0.0,0.0,0.0,0.0,0.0,0.0,0.0,0.0,0.0,0.0,0.0,0.0,0.0,0.0,0.0,0.0,0.0,0.0,0.0,0.0,0.0,0.0,0.0,0.0,0.0,0.0,0.0,0.0,0.0,0.0,0.0,0.0,0.0,0.0,0.0,0.0,0.0,0.0,0.0,0.0,0.0,0.0,0.0,0.0,0.0,0.0,0.0,0.0,0.0,0.0,0.0,0.0,0.0,0.0,0.0,0.0,0.0,0.0,0.0,0.0,0.0,0.0,0.0,0.0,0.0,0.0,0.0,0.0,0.0,0.0,0.0,0.0,0.0,0.0,0.0,0.0,0.0,0.0,0.0,0.0,0.0,0.0,0.0,0.0,0.0,0.0,0.0,0.0,0.0,0.0,0.0,0.0,0.0,0.0,0.0,0.0,0.0,0.0,0.0,0.0,0.0,0.0,0.0,0.0,0.0,0.0,0.0,0.0,0.0,0.0,0.0,0.0,0.0,0.0,0.0,0.0,0.0,0.0,0.0,0.0,0.0,0.0,0.0,0.0,0.0,0.0,0.0,0.0,0.0,0.0,0.0,0.0,0.0,0.0,0.0,0.0,0.0,0.0,0.0,0.0,0.0,0.0,0.0,0.0,0.0,0.0,0.0,0.0,0.0,0.0,0.0,0.0,0.0,0.0,0.0,0.0,0.0,0.0,0.0,0.0,0.0,0.0,0.0,0.0,0.0,0.0,0.0,0.0,0.0,0.0,0.0,0.0,0.0,0.0,0.0,0.0,0.0,0.0,0.0,0.0,0.0,0.0,0.0,0.0,0.0,0.0,0.0,0.0,0.0,0.0,0.0,0.0,0.0,0.0,0.0,0.0,0.0,0.0,0.0,0.0,0.0,0.0,0.0,0.0,0.0,0.0,0.0,0.0,0.0,0.0,0.0,0.0,0.0,0.0,0.0,0.0,0.0,0.0,0.0,0.0,0.0,0.0,0.0,0.0,0.0,0.0,0.0,0.0,0.0,0.0,0.0,0.0,0.0,0.0,0.0,0.0,0.0,0.0,0.0,0.0,0.0,0.0,0.0,0.0,0.0,0.0,0.0,0.0,0.0,0.0,0.0,0.0,0.0,0.0,0.0,0.0,0.0,0.0,0.0,0.0,0.0,0.0,0.0,0.0,0.0,0.0,0.0,0.0,0.0,0.0,0.082,0.0,0.0,0.0,0.0,0.0,0.0,0.0,0.0,0.0,0.0,0.0,0.0,0.0,0.0,0.0,0.0,0.0,0.0,0.0,0.0,0.0,0.0,0.0,0.0,0.0,0.0,0.0,0.0,0.0,0.0,0.0,0.0,0.0,0.0,0.0,0.0,0.0,0.0,0.0,0.0,0.0,0.0,0.0,0.0,0.0,0.0,0.0,0.0,0.0,0.0,0.0,0.0,0.0,0.0,0.0,0.0,0.0,0.0,0.0,0.0,0.0,0.0,0.0,0.0,0.0,0.0,0.0,0.0,0.0,0.0,0.0,0.0,0.0,0.0,0.0,0.0,0.0,0.0,0.0,0.0,0.0,0.0,0.0,0.0,0.0,0.0,0.0,0.0,0.0,0.0,0.0,0.0,0.0,0.0,0.0,0.0,0.0,0.0,0.0,0.0,0.0,0.0,0.0,0.0,0.0,0.0,0.0,0.0,0.0,0.0,0.1568,0.1568,0.1274,0.1122,0.1111,0.0,0.0,0.0,0.0,0.0,0.0,0.0,0.0,0.0,0.0,0.0,0.0,0.0,0.0,0.0,0.0,0.0,0.0,0.0,0.0,0.0,0.0,0.0,0.0,0.0,0.0,0.0,0.0,0.0,0.0,0.0,0.0,0.0,0.0,0.0,0.0,0.0,0.0,0.0,0.0,0.0,0.0,0.0,0.0,0.0,0.0,0.0,0.0,0.0,0.0,0.0,0.0,0.0,0.0,0.0,0.0,0.0,0.0,0.0,0.0,0.0,0.0,0.0,0.0,0.0,0.0,0.0,0.0,0.0,0.0,0.0,0.0,0.0,0.0,0.0,0.0,0.0,0.0,0.0,0.0,0.0,0.0,0.0,0.0,0.0,0.0,0.0,0.0,0.0,0.0,0.0,0.0,0.0,0.0,0.0,0.0,0.0,0.0,0.0,0.0,0.0,0.0,0.0,0.0,0.0,0.0,0.0,0.0,0.0,0.0,0.0,0.0,0.1582,0.1436,0.1362,0.0,0.0,0.0,0.0,0.0,0.0,0.0,0.0,0.0,0.0,0.0,0.0,0.0,0.0,0.0,0.0,0.0,0.0,0.0,0.0,0.0,0.0,0.0,0.0,0.0,0.0,0.0,0.0,0.0,0.0,0.0,0.0,0.0,0.0,0.0,0.0,0.0,0.0,0.0,0.0,0.0,0.0,0.0,0.0,0.0,0.0,0.0,0.0,0.0,0.0,0.0,0.0,0.0,0.0,0.0,0.0,0.0,0.0,0.0,0.0,0.0,0.0,0.0,0.0,0.0,0.0,0.0,0.0,0.0,0.0,0.0,0.0,0.0,0.0,0.0,0.0,0.0,0.0,0.0,0.0,0.0,0.0,0.0,0.0,0.0,0.0,0.0,0.0,0.0,0.0,0.0,0.0,0.0,0.0,0.0,0.0,0.0,0.0,0.0,0.0,0.0,0.0,0.0,0.0,0.0,0.0,0.0,0.0,0.0,0.0,0.1851,0.1972,0.1951,0.0,0.1575,0.0,0.0,0.0,0.0,0.0,0.0,0.0,0.0,0.0,0.0,0.0,0.0,0.0,0.0,0.0,0.0,0.0,0.0,0.0,0.0,0.0,0.0,0.0,0.0,0.0,0.0,0.0,0.0,0.0,0.0,0.0,0.0,0.0,0.0,0.0,0.0,0.0,0.0,0.0,0.0,0.0,0.0,0.0,0.0,0.0,0.0,0.0,0.0,0.0,0.0,0.0,0.0,0.0,0.0,0.0,0.0,0.0,0.0,0.0,0.0,0.0,0.0,0.0,0.0,0.0,0.0,0.0,0.0,0.0,0.0,0.0,0.0,0.0,0.0,0.0,0.0,0.0,0.0,0.0,0.0,0.0,0.0,0.0,0.0,0.0,0.0,0.0,0.0,0.0,0.0,0.0,0.0,0.0,0.0,0.0,0.0,0.0,0.0,0.0,0.0,0.0,0.0,0.0,0.0,0.0,0.0,0.0,0.0,0.0,0.0,0.1941,0.2014,0.2011,0.1949,0.0,0.0,0.0,0.0,0.0,0.0,0.0,0.0,0.0,0.0,0.0,0.0,0.0,0.0,0.0,0.0,0.0,0.0,0.0,0.0,0.0,0.0,0.0,0.0,0.0,0.0,0.0,0.0,0.0,0.0,0.0,0.0,0.0,0.0,0.0,0.0,0.0,0.0,0.0,0.0,0.0,0.0,0.0,0.0,0.0,0.0,0.0,0.0,0.0,0.0,0.0,0.0,0.0,0.0,0.0,0.0,0.0,0.0,0.0,0.0,0.0,0.0,0.0,0.0,0.0,0.0,0.0,0.0,0.0,0.0,0.0,0.0,0.0,0.0,0.0,0.0,0.0,0.0,0.0,0.0,0.0,0.0,0.0,0.0,0.0,0.0,0.0,0.0,0.0,0.0,0.0,0.0,0.0,0.0,0.0,0.0,0.0,0.0,0.0,0.0,0.0,0.0,0.0,0.0,0.0,0.0,0.0,0.0,0.0,0.0,0.1974,0.1984,0.1957,0.1909,0.1845,0.1759,0.0,0.0,0.0,0.0,0.0,0.0,0.0,0.0,0.0,0.0,0.0,0.0,0.0,0.0,0.0,0.0,0.0,0.0,0.0,0.0,0.0,0.0,0.0,0.0,0.0,0.0,0.0,0.0,0.0,0.0,0.0,0.0,0.0,0.0,0.0,0.0,0.0,0.0,0.0,0.0,0.0,0.0,0.0,0.0,0.0,0.0,0.0,0.0,0.0,0.0,0.0,0.0,0.0,0.0,0.0,0.0,0.0,0.0,0.0,0.0,0.0,0.0,0.0,0.0,0.0,0.0,0.0,0.0,0.0,0.0,0.0,0.0,0.0,0.0,0.0,0.0,0.0,0.0,0.0,0.0,0.0,0.0,0.0,0.0,0.0,0.0,0.0,0.0,0.0,0.0,0.0,0.0,0.0,0.0,0.0,0.0,0.0,0.0,0.0,0.0,0.0,0.0,0.0,0.0,0.0,0.0,0.0,0.0,0.2164,0.206,0.1934,0.1807,0.1679,0.1473,0.0,0.0,0.0,0.0,0.0,0.0,0.0,0.0,0.0,0.0,0.0,0.0,0.0,0.0,0.0,0.0,0.0,0.0,0.0,0.0,0.0,0.0,0.0,0.0,0.0,0.0,0.0,0.0,0.0,0.0,0.0,0.0,0.0,0.0,0.0,0.0,0.0,0.0,0.0,0.0,0.0,0.0,0.0,0.0,0.0,0.0,0.0,0.0,0.0,0.0,0.0,0.0,0.0,0.0,0.0,0.0,0.0,0.0,0.0,0.0,0.0,0.0,0.0,0.0,0.0,0.0,0.0,0.0,0.0,0.0,0.0,0.0,0.0,0.0,0.0,0.0,0.0,0.0,0.0,0.0,0.0,0.0,0.0,0.0,0.0,0.0,0.0,0.0,0.0,0.0,0.0,0.0,0.0,0.0,0.0,0.0,0.0,0.0,0.0,0.0,0.0,0.0,0.0,0.0,0.0,0.0,0.0,0.0,0.0,0.1928,0.1984,0.1982,0.193,0.171,0.1596,0.0,0.0,0.0,0.0,0.0,0.0,0.0,0.0,0.0,0.0,0.0,0.0,0.0,0.0,0.0,0.0,0.0,0.0,0.0,0.0,0.0,0.0,0.0,0.0,0.0,0.0,0.0,0.0,0.0,0.0,0.0,0.0,0.0,0.0,0.0,0.0,0.0,0.0,0.0,0.0,0.0,0.0,0.0,0.0,0.0,0.0,0.0,0.0,0.0,0.0,0.0,0.0,0.0,0.0,0.0,0.0,0.0,0.0,0.0,0.0,0.0,0.0,0.0,0.0,0.0,0.0,0.0,0.0,0.0,0.0,0.0,0.0,0.0,0.0,0.0,0.0,0.0,0.0,0.0,0.0,0.0,0.0,0.0,0.0,0.0,0.0,0.0,0.0,0.0,0.0,0.0,0.0,0.0,0.0,0.0,0.0,0.0,0.0,0.0,0.0,0.0,0.0,0.0,0.0,0.0,0.0,0.0,0.0,0.0,0.1924,0.0,0.2094,0.1939,0.1714,0.1519,0.0,0.0,0.0,0.0,0.0,0.0,0.0,0.0,0.0,0.0,0.0,0.0,0.0,0.0,0.0,0.0,0.0,0.0,0.0,0.0,0.0,0.0,0.0,0.0,0.0,0.0,0.0,0.0,0.0,0.0,0.0,0.0,0.0,0.0,0.0,0.0,0.0,0.0,0.0,0.0,0.0,0.0,0.0,0.0,0.0,0.0,0.0,0.0,0.0,0.0,0.0,0.0,0.0,0.0,0.0,0.0,0.0,0.0,0.0,0.0,0.0,0.0,0.0,0.0,0.0,0.0,0.0,0.0,0.0,0.0,0.0,0.0,0.0,0.0,0.0,0.0,0.0,0.0,0.0,0.0,0.0,0.0,0.0,0.0,0.0,0.0,0.0,0.0,0.0,0.0,0.0,0.0,0.0,0.0,0.0,0.0,0.0,0.0,0.0,0.0,0.0,0.0,0.0,0.0,0.0,0.0,0.0,0.0,0.1915,0.217,0.2375,0.2261,0.1825,0.1679,0.1229,0.0,0.0,0.0,0.0,0.0,0.0,0.0,0.0,0.0,0.0,0.0,0.0,0.0,0.0,0.0,0.0,0.0,0.0,0.0,0.0,0.0,0.0,0.0,0.0,0.0,0.0,0.0,0.0,0.0,0.0,0.0,0.0,0.0,0.0,0.0,0.0,0.0,0.0,0.0,0.0,0.0,0.0,0.0,0.0,0.0,0.0,0.0,0.0,0.0,0.0,0.0,0.0,0.0,0.0,0.0,0.0,0.0,0.0,0.0,0.0,0.0,0.0,0.0,0.0,0.0,0.0,0.0,0.0,0.0,0.0,0.0,0.0,0.0,0.0,0.0,0.0,0.0,0.0,0.0,0.0,0.0,0.0,0.0,0.0,0.0,0.0,0.0,0.0,0.0,0.0,0.0,0.0,0.0,0.0,0.0,0.0,0.0,0.0,0.0,0.0,0.0,0.0,0.0,0.0,0.0,0.0,0.0,0.0,0.0,0.1453,0.2,0.2223,0.2069,0.1765,0.1564,0.0,0.0,0.0,0.0,0.0,0.0,0.0,0.0,0.0,0.0,0.0,0.0,0.0,0.0,0.0,0.0,0.0,0.0,0.0,0.0,0.0,0.0,0.0,0.0,0.0,0.0,0.0,0.0,0.0,0.0,0.0,0.0,0.0,0.0,0.0,0.0,0.0,0.0,0.0,0.0,0.0,0.0,0.0,0.0,0.0,0.0,0.0,0.0,0.0,0.0,0.0,0.0,0.0,0.0,0.0,0.0,0.0,0.0,0.0,0.0,0.0,0.0,0.0,0.0,0.0,0.0,0.0,0.0,0.0,0.0,0.0,0.0,0.0,0.0,0.0,0.0,0.0,0.0,0.0,0.0,0.0,0.0,0.0,0.0,0.0,0.0,0.0,0.0,0.0,0.0,0.0,0.0,0.0,0.0,0.0,0.0,0.0,0.0,0.0,0.0,0.0,0.0,0.0,0.0,0.0,0.0,0.0,0.0,0.0,0.155,0.2129,0.2437,0.238,0.2097,0.1902,0.1835,0.0,0.0,0.0,0.0,0.0,0.0,0.0,0.0,0.0,0.0,0.0,0.0,0.0,0.0,0.0,0.0,0.0,0.0,0.0,0.0,0.0,0.0,0.0,0.0,0.0,0.0,0.0,0.0,0.0,0.0,0.0,0.0,0.0,0.0,0.0,0.0,0.0,0.0,0.0,0.0,0.0,0.0,0.0,0.0,0.0,0.0,0.0,0.0,0.0,0.0,0.0,0.0,0.0,0.0,0.0,0.0,0.0,0.0,0.0,0.0,0.0,0.0,0.0,0.0,0.0,0.0,0.0,0.0,0.0,0.0,0.0,0.0,0.0,0.0,0.0,0.0,0.0,0.0,0.0,0.0,0.0,0.0,0.0,0.0,0.0,0.0,0.0,0.0,0.0,0.0,0.0,0.0,0.0,0.0,0.0,0.0,0.0,0.0,0.0,0.0,0.0,0.0,0.0,0.0,0.0,0.0,0.0,0.0,0.2247,0.2693,0.2885,0.2739,0.2567,0.2234,0.0,0.0,0.0,0.0,0.0,0.0,0.0,0.0,0.0,0.0,0.0,0.0,0.0,0.0,0.0,0.0,0.0,0.0,0.0,0.0,0.0,0.0,0.0,0.0,0.0,0.0,0.0,0.0,0.0,0.0,0.0,0.0,0.0,0.0,0.0,0.0,0.0,0.0,0.0,0.0,0.0,0.0,0.0,0.0,0.0,0.0,0.0,0.0,0.0,0.0,0.0,0.0,0.0,0.0,0.0,0.0,0.0,0.0,0.0,0.0,0.0,0.0,0.0,0.0,0.0,0.0,0.0,0.0,0.0,0.0,0.0,0.0,0.0,0.0,0.0,0.0,0.0,0.0,0.0,0.0,0.0,0.0,0.0,0.0,0.0,0.0,0.0,0.0,0.0,0.0,0.0,0.0,0.0,0.0,0.0,0.0,0.0,0.0,0.0,0.0,0.0,0.0,0.0,0.0,0.0,0.0,0.0,0.0,0.0,0.2713,0.3182,0.3355,0.321,0.2748,0.2475,0.0,0.0,0.0,0.0,0.0,0.0,0.0,0.0,0.0,0.0,0.0,0.0,0.0,0.0,0.0,0.0,0.0,0.0,0.0,0.0,0.0,0.0,0.0,0.0,0.0,0.0,0.0,0.0,0.0,0.0,0.0,0.0,0.0,0.0,0.0,0.0,0.0,0.0,0.0,0.0,0.0,0.0,0.0,0.0,0.0,0.0,0.0,0.0,0.0,0.0,0.0,0.0,0.0,0.0,0.0,0.0,0.0,0.0,0.0,0.0,0.0,0.0,0.0,0.0,0.0,0.0,0.0,0.0,0.0,0.0,0.0,0.0,0.0,0.0,0.0,0.0,0.0,0.0,0.0,0.0,0.0,0.0,0.0,0.0,0.0,0.0,0.0,0.0,0.0,0.0,0.0,0.0,0.0,0.0,0.0,0.0,0.0,0.0,0.0,0.0,0.0,0.0,0.0,0.0,0.0,0.0,0.0,0.0,0.255,0.3058,0.347,0.3648,0.3574,0.3118,0.2793,0.0,0.0,0.0,0.0,0.0,0.0,0.0,0.0,0.0,0.0,0.0,0.0,0.0,0.0,0.0,0.0,0.0,0.0,0.0,0.0,0.0,0.0,0.0,0.0,0.0,0.0,0.0,0.0,0.0,0.0,0.0,0.0,0.0,0.0,0.0,0.0,0.0,0.0,0.0,0.0,0.0,0.0,0.0,0.0,0.0,0.0,0.0,0.0,0.0,0.0,0.0,0.0,0.0,0.0,0.0,0.0,0.0,0.0,0.0,0.0,0.0,0.0,0.0,0.0,0.0,0.0,0.0,0.0,0.0,0.0,0.0,0.0,0.0,0.0,0.0,0.0,0.0,0.0,0.0,0.0,0.0,0.0,0.0,0.0,0.0,0.0,0.0,0.0,0.0,0.0,0.0,0.0,0.0,0.0,0.0,0.0,0.0,0.0,0.0,0.0,0.0,0.0,0.0,0.0,0.0,0.0,0.0,0.0,0.2919,0.3323,0.3665,0.3844,0.3805,0.3546,0.3114,0.0,0.0,0.0,0.0,0.0,0.0,0.0,0.0,0.0,0.0,0.0,0.0,0.0,0.0,0.0,0.0,0.0,0.0,0.0,0.0,0.0,0.0,0.0,0.0,0.0,0.0,0.0,0.0,0.0,0.0,0.0,0.0,0.0,0.0,0.0,0.0,0.0,0.0,0.0,0.0,0.0,0.0,0.0,0.0,0.0,0.0,0.0,0.0,0.0,0.0,0.0,0.0,0.0,0.0,0.0,0.0,0.0,0.0,0.0,0.0,0.0,0.0,0.0,0.0,0.0,0.0,0.0,0.0,0.0,0.0,0.0,0.0,0.0,0.0,0.0,0.0,0.0,0.0,0.0,0.0,0.0,0.0,0.0,0.0,0.0,0.0,0.0,0.0,0.0,0.0,0.0,0.0,0.0,0.0,0.0,0.0,0.0,0.0,0.0,0.0,0.0,0.0,0.0,0.0,0.0,0.0,0.0,0.0,0.3191,0.3538,0.3913,0.4068,0.3959,0.3546,0.3124,0.0,0.0,0.0,0.0,0.0,0.0,0.0,0.0,0.0,0.0,0.0,0.0,0.0,0.0,0.0,0.0,0.0,0.0,0.0,0.0,0.0,0.0,0.0,0.0,0.0,0.0,0.0,0.0,0.0,0.0,0.0,0.0,0.0,0.0,0.0,0.0,0.0,0.0,0.0,0.0,0.0,0.0,0.0,0.0,0.0,0.0,0.0,0.0,0.2087,0.0,0.0,0.0,0.0,0.0,0.0,0.0,0.0,0.0,0.0,0.0,0.0,0.0,0.0,0.0,0.0,0.0,0.0,0.0,0.0,0.0,0.0,0.0,0.0,0.0,0.0,0.0,0.0,0.0,0.0,0.0,0.0,0.0,0.0,0.0,0.0,0.0,0.0,0.0,0.0,0.0,0.0,0.0,0.0,0.0,0.0,0.0,0.0,0.0,0.0,0.0,0.0,0.0,0.0,0.0,0.0,0.0,0.0,0.0,0.3303,0.3688,0.4028,0.4136,0.4007,0.3753,0.3344,0.0,0.0,0.0,0.0,0.0,0.0,0.0,0.0,0.0,0.0,0.0,0.0,0.0,0.0,0.0,0.0,0.0,0.0,0.0,0.0,0.0,0.0,0.0,0.0,0.0,0.0,0.0,0.0,0.0,0.0,0.0,0.0,0.0,0.0,0.0,0.0,0.0,0.0,0.0,0.0,0.0,0.0,0.0,0.0,0.0,0.0,0.0,0.0,0.0,0.0,0.0,0.0,0.0,0.0,0.0,0.0,0.0,0.0,0.0,0.0,0.0,0.0,0.0,0.0,0.0,0.0,0.0,0.0,0.0,0.0,0.0,0.0,0.0,0.0,0.0,0.0,0.0,0.0,0.0,0.0,0.0,0.0,0.0,0.0,0.0,0.0,0.0,0.0,0.0,0.0,0.0,0.0,0.0,0.0,0.0,0.0,0.0,0.0,0.0,0.0,0.0,0.0,0.0,0.0,0.0,0.0,0.0,0.2908,0.334,0.3812,0.4075,0.4123,0.4001,0.3994,0.3587,0.2732,0.0,0.0,0.0,0.0,0.0,0.0,0.0,0.0,0.0,0.0,0.0,0.0,0.0,0.0,0.0,0.0,0.0,0.0,0.0,0.0,0.0,0.0,0.0,0.0,0.0,0.0,0.0,0.0,0.0,0.0,0.0,0.0,0.0,0.0,0.0,0.0,0.0,0.0,0.2744,0.2917,0.0,0.0,0.0,0.0,0.0,0.0,0.0,0.0,0.2543,0.0,0.0,0.0,0.0,0.0,0.0,0.0,0.0,0.0,0.0,0.0,0.0,0.0,0.0,0.0,0.0,0.0,0.0,0.0,0.0,0.0,0.0,0.0,0.0,0.0,0.0,0.0,0.0,0.0,0.0,0.0,0.0,0.0,0.0,0.0,0.0,0.0,0.0,0.0,0.0,0.0,0.0,0.0,0.0,0.0,0.0,0.0,0.0,0.0,0.0,0.0,0.0,0.0,0.0,0.0,0.0,0.2834,0.3016,0.337,0.3956,0.4129,0.4123,0.4013,0.3994,0.3598,0.2752,0.0,0.0,0.0,0.0,0.0,0.0,0.0,0.0,0.0,0.0,0.0,0.0,0.0,0.0,0.0,0.0,0.0,0.0,0.0,0.0,0.0,0.0,0.0,0.0,0.0,0.0,0.0,0.0,0.0,0.0,0.0,0.0,0.0,0.0,0.0,0.0,0.0,0.0,0.0,0.332,0.3506,0.0,0.0,0.0,0.0,0.0,0.0,0.0,0.0,0.2621,0.0,0.0,0.0,0.0,0.0,0.0,0.0,0.0,0.0,0.0,0.0,0.0,0.0,0.0,0.0,0.0,0.0,0.0,0.0,0.0,0.0,0.0,0.0,0.0,0.0,0.0,0.0,0.0,0.0,0.0,0.0,0.0,0.0,0.0,0.0,0.0,0.0,0.0,0.0,0.0,0.0,0.0,0.0,0.0,0.0,0.0,0.0,0.0,0.0,0.0,0.0,0.0,0.0,0.0,0.0,0.2781,0.3096,0.3477,0.3887,0.4024,0.4035,0.3892,0.3766,0.3385,0.0,0.0,0.0,0.0,0.0,0.0,0.0,0.0,0.0,0.0,0.0,0.0,0.0,0.0,0.0,0.0,0.0,0.0,0.0,0.0,0.0,0.0,0.0,0.0,0.0,0.0,0.0,0.0,0.0,0.0,0.0,0.0,0.0,0.0,0.0,0.0,0.0,0.0,0.0,0.0,0.3742,0.387,0.352,0.0,0.0,0.0,0.0,0.0,0.0,0.2925,0.2778,0.0,0.0,0.0,0.0,0.0,0.0,0.0,0.0,0.0,0.0,0.0,0.0,0.0,0.0,0.0,0.0,0.0,0.0,0.0,0.0,0.0,0.0,0.0,0.0,0.0,0.0,0.0,0.0,0.0,0.0,0.0,0.0,0.0,0.0,0.0,0.0,0.0,0.0,0.0,0.0,0.0,0.0,0.0,0.0,0.0,0.0,0.0,0.0,0.0,0.0,0.0,0.0,0.0,0.0,0.0,0.2696,0.3091,0.3464,0.3786,0.3898,0.3914,0.3815,0.3578,0.3204,0.0,0.0,0.0,0.0,0.0,0.0,0.0,0.0,0.0,0.0,0.0,0.0,0.0,0.0,0.0,0.0,0.0,0.0,0.0,0.0,0.0,0.0,0.0,0.0,0.0,0.0,0.0,0.0,0.0,0.0,0.0,0.0,0.0,0.0,0.0,0.0,0.0,0.0,0.0,0.0,0.0,0.428,0.4022,0.3679,0.0,0.0,0.0,0.0,0.3409,0.3239,0.0,0.0,0.0,0.0,0.0,0.0,0.0,0.0,0.0,0.0,0.0,0.0,0.0,0.0,0.0,0.0,0.0,0.0,0.0,0.0,0.0,0.0,0.0,0.0,0.0,0.0,0.0,0.0,0.0,0.0,0.0,0.0,0.0,0.0,0.0,0.0,0.0,0.0,0.0,0.0,0.0,0.0,0.0,0.0,0.0,0.0,0.0,0.0,0.0,0.0,0.0,0.0,0.0,0.0,0.0,0.0,0.269,0.2875,0.3229,0.3785,0.3805,0.3821,0.3815,0.3658,0.33,0.0,0.0,0.0,0.0,0.0,0.0,0.0,0.0,0.0,0.0,0.0,0.0,0.0,0.0,0.0,0.0,0.0,0.0,0.0,0.0,0.0,0.0,0.0,0.0,0.0,0.0,0.0,0.0,0.0,0.0,0.0,0.0,0.0,0.0,0.0,0.0,0.0,0.0,0.0,0.0,0.0,0.4903,0.4639,0.4196,0.3873,0.0,0.0,0.3753,0.3893,0.3787,0.0,0.0,0.0,0.0,0.0,0.0,0.0,0.0,0.0,0.0,0.0,0.0,0.0,0.0,0.0,0.0,0.0,0.0,0.0,0.0,0.0,0.0,0.0,0.0,0.0,0.0,0.0,0.0,0.0,0.0,0.0,0.0,0.0,0.0,0.0,0.0,0.0,0.0,0.0,0.0,0.0,0.0,0.0,0.0,0.0,0.0,0.0,0.0,0.0,0.0,0.0,0.0,0.0,0.0,0.0,0.2055,0.241,0.2811,0.3055,0.3174,0.3519,0.3519,0.3192,0.3191,0.3035,0.0,0.0,0.0,0.0,0.0,0.0,0.0,0.0,0.0,0.0,0.0,0.0,0.0,0.0,0.0,0.0,0.0,0.0,0.0,0.0,0.0,0.0,0.0,0.0,0.0,0.0,0.0,0.0,0.0,0.0,0.0,0.0,0.0,0.0,0.0,0.0,0.0,0.0,0.0,0.0,0.0,0.0,0.4587,0.4312,0.0,0.0,0.0,0.4178,0.4113,0.0,0.0,0.0,0.0,0.0,0.0,0.0,0.0,0.0,0.0,0.0,0.0,0.0,0.0,0.0,0.0,0.0,0.0,0.0,0.0,0.0,0.0,0.0,0.0,0.0,0.0,0.0,0.0,0.0,0.0,0.0,0.0,0.0,0.0,0.0,0.0,0.0,0.0,0.0,0.0,0.0,0.0,0.0,0.0,0.0,0.0,0.0,0.0,0.0,0.0,0.0,0.0,0.0,0.0,0.0,0.0,0.0,0.1971,0.2471,0.2632,0.2487,0.2912,0.2923,0.2501,0.2539,0.0,0.0,0.0,0.0,0.0,0.0,0.0,0.0,0.0,0.0,0.0,0.0,0.0,0.0,0.0,0.0,0.0,0.0,0.0,0.0,0.0,0.0,0.0,0.0,0.0,0.0,0.0,0.2936,0.0,0.0,0.0,0.0,0.0,0.0,0.0,0.0,0.0,0.0,0.0,0.0,0.0,0.0,0.4596,0.4695,0.4518,0.4375,0.0,0.0,0.4542,0.4355,0.4331,0.4193,0.0,0.0,0.0,0.0,0.0,0.0,0.0,0.0,0.0,0.0,0.0,0.0,0.0,0.0,0.0,0.0,0.0,0.0,0.0,0.0,0.0,0.0,0.0,0.0,0.0,0.0,0.0,0.0,0.0,0.0,0.0,0.0,0.0,0.0,0.0,0.0,0.0,0.0,0.0,0.0,0.0,0.0,0.0,0.0,0.0,0.0,0.0,0.0,0.0,0.0,0.0,0.0,0.0,0.0,0.1224,0.136,0.1577,0.1769,0.1847,0.1895,0.1895,0.186,0.1741,0.1751,0.0,0.0,0.0,0.0,0.0,0.0,0.0,0.0,0.0,0.0,0.0,0.0,0.0,0.0,0.0,0.0,0.0,0.0,0.0,0.0,0.0,0.0,0.0,0.0,0.0,0.0,0.0,0.0,0.0,0.0,0.0,0.0,0.0,0.0,0.0,0.0,0.0,0.0,0.0,0.0,0.0,0.51,0.5239,0.5027,0.4859,0.0,0.4865,0.4836,0.4687,0.466,0.4477,0.3887,0.0,0.0,0.0,0.0,0.0,0.0,0.0,0.0,0.0,0.0,0.0,0.0,0.0,0.0,0.0,0.0,0.0,0.0,0.0,0.0,0.0,0.0,0.0,0.0,0.0,0.0,0.0,0.0,0.0,0.0,0.0,0.0,0.0,0.0,0.0,0.0,0.0,0.0,0.0,0.0,0.0,0.0,0.0,0.0,0.0,0.0,0.0,0.0,0.0,0.0,0.0,0.0,0.0,0.0919,0.1058,0.1418,0.1479,0.1271,0.1596,0.1619,0.1241,0.1467,0.1701,0.0,0.0,0.0,0.0,0.0,0.0,0.0,0.0,0.0,0.0,0.0,0.0,0.0,0.0,0.0,0.0,0.0,0.0,0.0,0.0,0.0,0.0,0.0,0.0,0.0,0.0,0.0,0.0,0.2316,0.2294,0.2063,0.0,0.0,0.0,0.0,0.0,0.0,0.0,0.0,0.0,0.0,0.4804,0.5024,0.4978,0.0,0.0,0.4977,0.5014,0.4941,0.4887,0.4706,0.4409,0.4135,0.0,0.0,0.0,0.0,0.0,0.0,0.0,0.0,0.0,0.0,0.0,0.0,0.0,0.0,0.0,0.0,0.0,0.0,0.0,0.0,0.0,0.0,0.0,0.0,0.0,0.0,0.0,0.0,0.0,0.0,0.0,0.0,0.0,0.0,0.0,0.0,0.0,0.0,0.0,0.0,0.0,0.0,0.0,0.0,0.0,0.0,0.0,0.0,0.0,0.0,0.0,0.0,0.0537,0.063,0.0943,0.097,0.0651,0.1044,0.106,0.065,0.0942,0.1244,0.0,0.0,0.0,0.0,0.0,0.0,0.0,0.0,0.0,0.0,0.0,0.0,0.0,0.0,0.0,0.0,0.0,0.0,0.0,0.0,0.0,0.0,0.0,0.0,0.0,0.0,0.0,0.0,0.211,0.2052,0.1832,0.0,0.0,0.0,0.0,0.0,0.0,0.0,0.0,0.0,0.0,0.4705,0.493,0.5023,0.5034,0.5053,0.5082,0.5102,0.5058,0.5004,0.4882,0.4674,0.0,0.0,0.0,0.0,0.0,0.0,0.0,0.0,0.0,0.0,0.0,0.0,0.0,0.0,0.0,0.0,0.0,0.0,0.0,0.0,0.0,0.0,0.0,0.0,0.0,0.0,0.0,0.091,0.0,0.0,0.0925,0.0,0.0,0.0,0.0,0.0,0.0,0.0,0.0,0.0,0.0,0.0,0.0,0.0,0.0,0.0,0.0,0.0,0.0,0.0,0.0,0.0,0.0,0.0,0.0,0.0,0.0,0.0,0.0,0.0,0.0,0.0,0.0165,0.0441,0.0,0.0,0.0,0.0,0.0,0.0,0.0,0.0,0.0,0.0,0.0,0.0,0.0,0.0,0.0,0.0,0.0,0.0,0.0,0.0,0.0,0.0,0.0,0.0,0.0,0.0,0.185,0.1925,0.1961,0.0,0.0,0.0,0.0,0.0,0.0,0.0,0.0,0.0,0.4159,0.4597,0.4931,0.5076,0.527,0.5365,0.5382,0.523,0.5063,0.4938,0.5028,0.496,0.0,0.0,0.0,0.0,0.0,0.0,0.0,0.0,0.0,0.0,0.0,0.0,0.0,0.0,0.0,0.0,0.0,0.0,0.0,0.0,0.0,0.0,0.0,0.0,0.0,0.0,0.0,0.0196,0.0308,0.0,0.0,0.0,0.0,0.0,0.0,0.0,0.0,0.0,0.0,0.0,0.03,0.03,0.0,0.0,0.0,0.0,0.0,0.0,0.0,0.0,0.0,0.0,0.0,0.0,0.0,0.0,0.0,0.0,0.0,0.0,0.0,0.0,0.0,0.012,0.0394,0.0,0.0,0.0,0.0,0.0,0.0,0.0,0.0,0.0,0.0,0.0,0.0,0.0,0.0,0.0,0.0,0.0,0.0,0.0,0.0,0.0,0.0,0.0,0.0,0.0,0.1954,0.0,0.0,0.0,0.0,0.0,0.0,0.0,0.0,0.0,0.0,0.4002,0.4179,0.4608,0.4889,0.5095,0.528,0.5446,0.5549,0.0,0.0,0.0,0.0,0.0,0.0,0.0,0.0,0.0,0.0,0.0,0.0,0.0,0.0,0.5651,0.4672,0.4409,0.4361,0.4446,0.0,0.0,0.0,0.0,0.0,0.0,0.0,0.0,0.0,0.0,0.0,0.0,0.0,0.0,-0.0725,-0.0755,-0.0716,0.0,0.0,0.0,0.0,0.0,0.0,0.0,0.0,-0.0389,-0.0241,0.0,0.0,0.0,0.0,0.0,0.0,0.0,0.0,0.0,0.0,0.0,0.0,0.0,0.0,0.0,0.0,0.0,0.0,0.0,0.0,0.0,0.0,0.0,0.0148,0.0495,0.0731,0.0903,0.0,0.0,0.0,0.0,0.0,0.0,0.0,0.0,0.0,0.0,0.0,0.0,0.0,0.0,0.0,0.0,0.0,0.0,0.0,0.0,0.0,0.0,0.0,0.1885,0.0,0.0,0.0,0.0,0.0,0.0,0.0,0.0,0.0,0.4457,0.451,0.4675,0.5085,0.5217,0.5345,0.5511,0.0,0.0,0.0,0.0,0.0,0.0,0.0,0.5555,0.57,0.5664,0.563,0.5725,0.6134,0.6399,0.6317,0.0,0.0,0.5436,0.5206,0.5165,0.5248,0.5261,0.5318,0.539,0.5566,0.574,0.0,0.0,0.0,0.0,-0.185,0.0,0.0,0.0,-0.1988,-0.2039,0.0,-0.2022,0.0,0.0,0.0,0.0,-0.1816,-0.1911,0.0,0.0,-0.1132,-0.0757,-0.0114,0.0,0.0,0.0,0.0,0.0,0.0,0.0,0.0,0.0,0.0,0.0,0.0,0.0,0.0,0.0,0.0,0.0,0.0,0.0,0.0,0.0,0.0,0.0211,0.0639,0.0486,0.0584,0.1037,0.0831,0.0,0.0,0.0,0.0,0.0,0.0,0.0,0.0,0.0,0.0,0.0,0.0,0.0,0.0,0.0,0.0,0.0,0.0,0.0,0.0,0.2052,0.0,0.0,0.0,0.0,0.0,0.0,0.0,0.0,0.0,0.4669,0.5071,0.5118,0.5237,0.5569,0.0,0.0,0.0,0.0,0.5664,0.5806,0.583,0.584,0.584,0.609,0.6238,0.6055,0.0,0.0,0.6096,0.6404,0.6648,0.6369,0.6566,0.6715,0.6698,0.6433,0.6256,0.6276,0.6122,0.6035,0.6049,0.6179,0.6311,-0.3499,0.0,0.0,0.0,0.0,-0.2488,-0.2359,-0.2137,-0.2129,-0.2165,-0.2196,-0.2171,0.0,0.0,0.0,0.0,0.0,0.0,-0.2041,-0.1904,-0.1873,-0.1762,-0.1574,-0.1573,-0.1573,-0.1584,-0.1575,-0.1566,-0.1567,-0.1582,-0.104,0.0,0.0,0.0,0.0,0.0,0.0,0.0,0.0,0.0,0.0,0.0,0.0,0.0,0.0,0.0063,0.0188,0.0145,0.0177,0.0302,0.0427,0.0,0.0,0.0,0.0,0.0,0.0,0.0,0.0,0.0,0.0,0.0,0.0,0.0,0.0,0.0,0.0,0.0,0.0,0.0,0.2167,0.2371,0.255,0.0,0.0,0.0,0.0,0.0,0.0,0.0,0.0,0.0,0.5661,0.5579,0.5528,0.0,0.0,0.5775,0.5909,0.6039,0.6137,0.63,0.6373,0.0,0.6444,0.6358,0.6335,0.6478,0.6651,0.6779,0.6799,0.6886,0.6965,0.6877,0.6935,0.7026,0.7132,0.6869,0.6617,0.659,0.6536,0.6549,0.6613,0.6766,0.6919,-0.4491,-0.4125,-0.3671,-0.3368,-0.3225,-0.3265,-0.3177,-0.3005,-0.2994,-0.3031,-0.3104,-0.3038,-0.2963,-0.291,-0.2856,0.0,0.0,0.0,-0.2864,-0.2652,-0.2637,-0.2474,-0.2216,-0.2204,-0.2204,-0.2202,-0.2199,-0.2202,-0.2202,-0.22,-0.1753,-0.09,0.0,-0.0871,-0.086,-0.0866,-0.0728,-0.045,-0.044,-0.0302,0.0,0.0,0.0,0.0,0.0,0.0,0.0,0.0,0.0,0.0,0.0152,0.0157,0.0,0.0,0.0,0.0,0.0,0.0,0.0,0.0,0.0,0.0,0.0,0.2079,0.2068,0.0,0.0,0.0,0.2381,0.2747,0.2678,0.2893,0.0,0.0,0.0,0.0,0.0,0.0,0.0,0.4909,0.5263,0.562,0.6061,0.6071,0.6061,0.6146,0.6124,0.6141,0.6255,0.0,0.6436,0.6563,0.6692,0.6772,0.679,0.6692,0.6671,0.6844,0.6924,0.7012,0.7075,0.7117,0.7141,0.7192,0.7208,0.7278,0.7454,0.7234,0.7054,0.7054,0.7058,0.7088,0.7158,0.7265,0.7353,-0.5653,-0.5582,-0.4675,-0.4187,-0.4045,-0.4193,-0.4231,-0.4244,-0.4244,-0.4362,-0.4518,-0.4345,-0.4183,-0.4071,-0.3944,0.0,-0.4084,-0.4184,-0.3932,-0.3412,-0.3429,-0.3072,-0.2408,-0.2408,-0.239,-0.2397,-0.2383,-0.2369,-0.2397,-0.2397,-0.2393,-0.2387,-0.2376,-0.2329,-0.2199,-0.2188,-0.187,-0.1211,-0.1127,-0.0741,0.0,0.0,0.0,0.0,0.0,0.0,0.0,0.0,0.0,0.0,0.0,0.0,0.0,0.0,0.0,0.0,0.0,0.0,0.0,0.0,0.0,0.0,0.0,0.0,0.0,0.0,0.0,0.1813,0.2914,0.0,0.3444,0.356,0.0,0.0,0.0,0.3996,0.4298,0.472,0.5104,0.5433,0.0,0.0,0.6354,0.6569,0.6722,0.6736,0.6593,0.6566,0.6698,0.6614,0.6583,0.6722,0.6833,0.6921,0.6906,0.698,0.707,0.7087,0.7109,0.7115,0.7148,0.7168,0.7241,0.7386,0.7413,0.7461,0.759,0.7597,0.7594,0.759,0.7594,0.758,0.757,0.7584,0.7604,-0.7021,-0.7002,-0.6769,-0.5775,-0.4399,-0.4507,-0.4585,-0.4581,-0.4678,-0.4764,-0.4794,-0.4742,-0.4709,-0.4672,-0.4652,-0.4656,-0.4675,-0.473,-0.4657,-0.4538,-0.4508,-0.4377,-0.4116,-0.4113,-0.4042,-0.3949,-0.3956,-0.3959,-0.3956,-0.3956,-0.394,-0.3947,-0.397,-0.338,-0.2246,-0.2193,-0.2106,-0.1928,-0.1391,-0.0755,0.0,0.0,0.0,0.0,0.0,0.0,0.0,0.0,0.0,0.0,0.0,0.0,0.0,0.0222,0.0,0.0,0.0,0.0,0.0,0.0,0.0,0.0,0.0,0.2934,0.2536,0.0,0.2964,0.0,0.308,0.3853,0.3723,0.3814,0.0,0.0,0.4635,0.4845,0.5359,0.5525,0.5708,0.6047,0.6306,0.6529,0.6739,0.6813,0.6894,0.6992,0.681,0.6702,0.6826,0.6844,0.685,0.6979,0.7011,0.7045,0.7019,0.7071,0.7073,0.7117,0.7215,0.7316,0.7316,0.7417,0.7506,0.7539,0.7543,0.76,0.7736,0.776,0.7783,0.7864,0.7736,0.7597,0.76,0.7685,0.776,-0.7986,-0.7957,-0.7646,-0.6852,-0.5818,-0.5487,-0.5369,-0.5347,-0.5043,-0.4918,-0.4918,-0.4918,-0.4918,-0.4918,-0.4918,-0.4918,-0.4918,-0.4918,-0.5127,-0.5453,-0.5081,-0.5062,-0.5358,-0.4963,-0.4748,-0.4681,-0.4613,-0.4593,-0.4572,-0.4539,-0.4491,-0.4491,-0.4491,-0.4077,-0.3266,-0.3229,-0.3051,-0.269,-0.1966,-0.1229,-0.0532,-0.049,-0.0334,0.0,0.0,0.0,0.0,0.0,0.0,0.0,0.0,0.0,0.0,0.0153,0.0158,0.0,0.0,0.0,0.0,0.0,0.0,0.0,0.0,0.0,0.0,0.0,0.3471,0.2773,0.3872,0.4569,0.4389,0.4585,0.4877,0.5267,0.5298,0.5494,0.5992,0.6025,0.6137,0.644,0.6586,0.6736,0.6887,0.6962,0.7007,0.7085,0.6979,0.6904,0.6982,0.6999,0.7011,0.7085,0.7117,0.6896,0.6451,0.6337,0.6361,0.6463,0.6969,0.7436,0.7485,0.7563,0.7617,0.7655,0.7695,0.774,0.7854,0.7888,0.7922,0.7938,0.7888,0.7783,0.7797,0.7858,0.7885,-0.886,-0.88,-0.817,-0.788,-0.7841,-0.6979,-0.6518,-0.6334,-0.5628,-0.531,-0.5291,-0.5291,-0.5295,-0.5291,-0.5291,-0.5306,-0.5291,-0.5187,-0.5544,-0.6202,-0.5368,-0.5353,-0.6017,-0.527,-0.4923,-0.4896,-0.4771,-0.4736,-0.4729,-0.4614,-0.4553,-0.4536,-0.4518,-0.4511,-0.4491,-0.4491,-0.4111,-0.3314,-0.2661,-0.198,-0.1271,-0.116,-0.0786,-0.0175,-0.0055,0.0,0.0,0.0,0.0,0.0,0.0,0.0,0.0,0.0,0.0,0.0,0.022,0.0,0.0,0.0,0.0,0.0,0.0,0.0,0.0,0.3767,0.3785,0.3924,0.487,0.5372,0.517,0.5433,0.5661,0.5852,0.5861,0.5998,0.6313,0.6355,0.6464,0.6702,0.684,0.6935,0.6945,0.7021,0.7117,0.7117,0.7107,0.7093,0.7092,0.711,0.7088,0.7117,0.7117,0.6814,0.6078,0.5788,0.5832,0.6007,0.6806,0.7472,0.7604,0.7628,0.7702,0.7807,0.7817,0.7861,0.7993,0.7985,0.7985,0.7988,0.7975,0.7965,0.7968,0.7993,0.7988,-1.0223,-1.02,-1.0076,-1.0029,-0.9944,-0.9084,-0.8227,-0.7413,-0.7422,-0.742,-0.7425,-0.7404,-0.7409,-0.742,-0.7404,-0.7404,-0.7372,-0.6681,-0.6435,-0.658,-0.5706,-0.5306,-0.5295,-0.515,-0.4999,-0.4894,-0.4887,-0.4859,-0.4859,-0.4832,-0.4769,-0.4664,-0.4664,-0.4614,-0.4508,0.0,0.0,0.0,-0.3148,-0.2732,-0.2007,-0.1396,-0.1045,-0.0885,-0.0304,0.0,0.0,0.0,0.0,0.0,0.0,0.0,0.0,0.0,0.0,0.0,0.0,0.0,0.0,0.0,0.0,0.0,0.2417,0.334,0.3911,0.4181,0.4436,0.4676,0.5321,0.5657,0.5535,0.5552,0.5766,0.616,0.6211,0.633,0.6597,0.6722,0.6809,0.6857,0.6989,0.7055,0.7055,0.7104,0.7117,0.7117,0.7117,0.7117,0.7117,0.7117,0.7117,0.7095,0.6972,0.7057,0.7034,0.6892,0.6825,0.724,0.7469,0.7729,0.7767,0.7847,0.7925,0.7966,0.7973,0.7976,0.7985,0.7988,0.7988,0.7988,0.7988,0.7988,0.7988,0.7988,0.7988,-1.0586,-1.0586,-1.0586,-1.0586,0.0,-1.0126,-0.9636,-0.9062,-0.8329,-0.7994,-0.7994,-0.7994,-0.7994,-0.7994,-0.7994,-0.7994,-0.7994,-0.7551,-0.7567,-0.7929,-0.7083,-0.6855,-0.7158,-0.6722,-0.6265,-0.5805,-0.5689,-0.5423,-0.502,-0.4936,-0.4865,-0.4791,-0.4802,-0.4728,-0.4607,-0.4515,-0.4294,-0.3887,-0.3901,-0.3525,-0.2815,-0.2426,-0.1868,-0.113,-0.0737,0.0,0.0,0.0,0.0,0.0,0.0,0.0,0.0,0.0,0.0,0.0,0.0,0.0,0.0,0.0566,0.0967,0.1109,0.2535,0.3737,0.439,0.4602,0.4828,0.5137,0.5695,0.5988,0.583,0.5957,0.6137,0.6355,0.6454,0.6569,0.6752,0.6857,0.6913,0.7002,0.7048,0.7117,0.7117,0.7117,0.7117,0.7117,0.7117,0.7121,0.7117,0.7117,0.6957,0.6332,0.5756,0.5499,0.5673,0.6264,0.668,0.6834,0.7352,0.7789,0.7888,0.7962,0.7988,0.7988,0.7988,0.7988,0.7988,0.7988,0.7988,0.7988,0.7988,0.7988,0.7988,0.7988,0.7988,-1.0586,-1.0586,-1.0586,-1.0586,-1.0586,-1.0586,-1.0586,-1.0514,-0.9064,0.0,0.0,-0.8468,-0.8463,-0.8468,-0.8463,-0.8463,-0.8447,-0.8302,-0.8613,-0.9258,-0.8388,-0.8388,-0.9011,-0.8172,-0.7388,-0.6694,-0.6394,-0.5851,-0.5165,-0.5038,-0.4963,-0.4943,-0.4943,-0.488,-0.4746,-0.462,-0.4569,-0.4552,-0.4518,-0.4211,-0.3608,-0.3469,-0.279,-0.1526,-0.1231,-0.081,-0.023,-0.0066,0.0,0.0,0.0,0.0,0.0,0.0,0.0,0.0,0.0,0.0,0.0,0.0563,0.0976,0.113,0.2491,0.3825,0.4882,0.4996,0.5052,0.5228,0.5544,0.5649,0.5506,0.5944,0.623,0.6256,0.6541,0.6779,0.6896,0.6945,0.697,0.7097,0.7092,0.7117,0.7117,0.7117,0.7117,0.7102,0.7151,0.7178,0.7144,0.692,0.643,0.567,0.4767,0.3941,0.4291,0.5123,0.5883,0.6527,0.7265,0.785,0.7973,0.7988,0.7988,0.7988,0.7988,0.7988,0.7988,0.7988,0.7988,0.7988,0.7988,0.7988,0.7988,0.7988,0.7988,-1.0593,-1.0586,-1.0586,-1.0586,-1.0586,-1.0586,-1.0586,-1.0586,-1.0333,-1.0231,-1.0231,-1.0231,-1.0247,-1.0231,-1.0231,-1.0231,-1.0183,-0.9444,-0.9172,-0.9268,-0.8404,-0.8059,-0.8124,-0.7291,-0.6834,-0.6637,-0.592,-0.5476,-0.5374,-0.5341,-0.5249,-0.5083,-0.5066,-0.5014,-0.4882,-0.4863,-0.4842,-0.4835,-0.461,-0.4446,-0.4349,-0.3735,-0.3296,-0.2973,-0.1759,-0.1065,-0.0935,-0.0345,0.0,0.0,0.0,0.0,0.0,0.0,0.0,0.0,0.0,0.0,0.0,0.0,0.0466,0.12,0.1509,0.2676,0.5081,0.5334,0.5132,0.4669,0.3997,0.352,0.3573,0.4513,0.5183,0.5357,0.6233,0.6913,0.6997,0.7055,0.7065,0.7114,0.7117,0.7117,0.7117,0.7117,0.7121,0.7115,0.7239,0.7383,0.7306,0.6423,0.5716,0.5424,0.4462,0.4264,0.4984,0.5615,0.6371,0.7532,0.7796,0.7973,0.8003,0.7988,0.7988,0.7988,0.7988,0.7988,0.7988,0.7988,0.7988,0.7988,0.7988,0.7988,0.7988,0.7988,0.7988,-1.1029,-1.1029,-1.1022,-1.1045,-1.1029,-1.1029,-1.1045,-1.1029,-1.1045,-1.0952,-1.0838,-1.0978,-1.1029,-1.1015,-1.0868,-1.0827,-1.0788,-1.0261,-1.0015,-0.9977,-0.9582,-0.94,-0.9368,-0.9,-0.857,-0.8075,-0.723,-0.6564,-0.6108,-0.5637,-0.5358,-0.5254,-0.516,-0.5066,-0.5002,-0.4928,-0.4918,-0.4884,-0.4701,-0.46,-0.4614,-0.4194,-0.3763,-0.3314,-0.262,-0.1893,-0.1119,-0.0765,-0.041,-0.0014,0.0,0.0,0.0,0.0,0.0,0.0,0.0,0.0,0.0,0.0,0.0377,0.121,0.1308,0.2076,0.3897,0.5029,0.5057,0.3751,0.2313,0.1895,0.2967,0.3704,0.4095,0.4162,0.5309,0.6076,0.6233,0.6782,0.7117,0.7117,0.7117,0.7117,0.7117,0.7117,0.7158,0.7255,0.7397,0.755,0.7594,0.5886,0.4579,0.4568,0.417,0.4132,0.4812,0.6145,0.7143,0.7957,0.7988,0.7988,0.7988,0.7988,0.7988,0.7988,0.7988,0.7988,0.7988,0.7988,0.7988,0.7988,0.7988,0.7988,0.7988,0.7988,0.7988,-1.1412,-1.1412,-1.1412,-1.1412,-1.1412,-1.1412,-1.1412,-1.1419,-1.1479,-1.1403,-1.1246,-1.1346,-1.1412,-1.1386,-1.1189,-1.1106,-1.1056,-1.0878,-1.0754,-1.0693,-1.0687,-1.066,-1.0561,-1.0412,-0.9945,-0.9226,-0.8221,-0.7356,-0.6654,-0.5818,-0.5395,-0.5382,-0.5256,-0.5163,-0.5163,-0.5058,-0.502,-0.5009,-0.4867,-0.4787,-0.4741,-0.464,-0.4281,-0.3666,-0.3271,-0.2553,-0.1412,-0.1018,-0.0582,0.0,0.0,0.0,0.0,0.0,0.0,0.0,0.0,0.0,0.0,0.0,0.0292,0.0943,0.1008,0.1357,0.2248,0.3589,0.4034,0.2642,0.1078,0.0724,0.2063,0.2792,0.3045,0.3134,0.4465,0.542,0.5517,0.6406,0.7117,0.7117,0.7117,0.7117,0.7102,0.7129,0.7252,0.7455,0.7577,0.7627,0.7215,0.5481,0.4377,0.386,0.3713,0.3903,0.4334,0.6044,0.7431,0.7864,0.7988,0.7988,0.7988,0.7988,0.7988,0.7988,0.7988,0.7988,0.7988,0.7988,0.7988,0.7988,0.7988,0.7988,0.7988,0.7988,0.7988,-1.1436,-1.1412,-1.1432,-1.1412,-1.1432,-1.1426,-1.1439,-1.1466,-1.1728,-1.1835,-1.1775,-1.1519,-1.1426,-1.1406,-1.1369,-1.1366,-1.1366,-1.1339,-1.1196,-1.0969,-1.0955,-1.0847,-1.0569,-0.9846,-0.9386,-0.9129,-0.7718,-0.6981,-0.6736,-0.5831,-0.5395,-0.5395,-0.5378,-0.5348,-0.5348,-0.5351,-0.5351,-0.5347,-0.5169,-0.4995,-0.4892,-0.4872,-0.4765,-0.4558,-0.3251,-0.2436,-0.2043,-0.0804,-0.0074,0.0,0.0,0.0,0.0,0.0,0.0,0.0,0.0,0.0,0.0,0.0,0.0,0.0106,0.0,0.0,0.0,0.0,0.0954,0.1277,0.0672,0.0,0.0336,0.1301,0.1913,0.204,0.3855,0.5406,0.5359,0.6406,0.7117,0.7117,0.6985,0.7121,0.71,0.7275,0.7461,0.7692,0.7736,0.7419,0.649,0.582,0.5119,0.4127,0.3106,0.3432,0.5097,0.5904,0.6908,0.7786,0.7988,0.7988,0.7988,0.7988,0.7988,0.7988,0.7988,0.7988,0.7988,0.7988,0.7988,0.7988,0.7988,0.7988,0.7988,0.7988,0.7988,-1.2437,-1.1926,-1.1926,-1.1926,-1.1944,-1.1944,-1.1926,-1.1939,-1.2089,-1.2142,-1.2136,-1.1997,-1.1944,-1.1931,-1.1788,-1.1708,-1.1677,-1.1493,-1.1352,-1.1232,-1.1226,-1.1182,-1.1012,-1.0571,-1.0288,-1.0182,-0.889,-0.7945,-0.7312,-0.6075,-0.5395,-0.5395,-0.5395,-0.5395,-0.5395,-0.5395,-0.5395,-0.5395,-0.5317,-0.5253,-0.5181,-0.5009,-0.486,-0.4713,-0.3737,-0.2893,-0.2322,-0.1268,-0.0456,0.0,0.0,0.0,0.0,0.0,0.0,0.0,0.0,0.0,0.0,0.0,0.0,0.0,0.0,0.0,0.0,0.0,0.0217,0.0482,0.0,0.0,0.0,0.0,0.0745,0.096,0.2282,0.3307,0.3283,0.4328,0.5262,0.5935,0.6115,0.6462,0.7108,0.7485,0.7665,0.7787,0.7826,0.7347,0.6224,0.535,0.4997,0.4995,0.4067,0.4044,0.5677,0.6734,0.7335,0.7814,0.7988,0.7988,0.7988,0.7988,0.7988,0.7988,0.7988,0.7988,0.7988,0.7988,0.7988,0.7988,0.7988,0.7988,0.7988,0.7988,0.7988,-1.2934,-1.2342,-1.2305,-1.2305,-1.2305,-1.2305,-1.2305,-1.2305,-1.2305,-1.2305,-1.2305,-1.2305,-1.2305,-1.2253,-1.2096,-1.2027,-1.1975,-1.1746,-1.1606,-1.1546,-1.1526,-1.1503,-1.1375,-1.1199,-1.1109,-1.0929,-0.9929,-0.8766,-0.7663,-0.6449,-0.5637,-0.5445,-0.5395,-0.5395,-0.5395,-0.5395,-0.5395,-0.5395,-0.5395,-0.5395,-0.5365,-0.5168,-0.502,-0.4871,-0.4149,-0.3325,-0.2521,-0.1636,-0.0799,0.0,0.0,0.0,0.0,0.0,0.0,0.0,0.0,0.0,0.0,0.0,0.0,0.0,0.0,0.0,0.0,0.0,0.0,0.0,0.0,0.0,0.0,0.0,0.0,0.0,0.1076,0.179,0.1923,0.2858,0.4128,0.5159,0.5517,0.5913,0.7116,0.7665,0.7787,0.7858,0.7569,0.7207,0.6179,0.5247,0.4997,0.5852,0.5397,0.5622,0.6431,0.7235,0.7939,0.7988,0.7988,0.7988,0.7988,0.7988,0.7988,0.7988,0.7988,0.7988,0.7988,0.7988,0.7988,0.7988,0.7988,0.7988,0.7988,0.7988,0.7988,-1.2335,-1.2305,-1.2305,-1.2305,-1.2305,-1.2305,-1.2305,-1.2305,-1.2305,-1.2305,-1.2305,-1.2305,-1.2305,-1.2305,-1.2271,-1.2278,-1.2271,-1.2231,-1.2084,-1.1882,-1.1868,-1.1697,-1.1419,-1.1375,-1.1386,-1.1298,-1.0334,-0.8821,-0.7,-0.6654,-0.6203,-0.5455,-0.5412,-0.5402,-0.5422,-0.5415,-0.5395,-0.5395,-0.5395,-0.5395,-0.5392,-0.5375,-0.527,-0.5039,-0.4353,-0.3505,-0.2597,-0.1735,-0.0911,-0.0033,0.0,0.0,0.0,0.0,0.0,0.0,0.0,0.0,0.0,0.0,0.0,0.0,0.0,0.0,0.0,0.0,0.0,0.0,0.0,0.0,0.0,0.0,0.0,0.0,0.1031,0.1633,0.1746,0.2547,0.4041,0.5048,0.5493,0.6164,0.7436,0.7719,0.7774,0.7625,0.6899,0.6129,0.5927,0.5752,0.5879,0.6129,0.6756,0.7761,0.7864,0.7864,0.7939,0.7988,0.7988,0.7988,0.7988,0.7988,0.7988,0.7988,0.7988,0.7988,0.7988,0.7988,0.7988,0.7988,0.7988,0.7988,0.7988,0.7988,0.7988,-1.3411,-1.2323,-1.2305,-1.2305,-1.2305,-1.2305,-1.2305,-1.2305,-1.2305,-1.2305,-1.2305,-1.2305,-1.2305,-1.2305,-1.2305,-1.2305,-1.2305,-1.2305,-1.2263,-1.2144,-1.2163,-1.2084,-1.1984,-1.1804,-1.1728,-1.1628,-1.1078,-0.9803,-0.7939,-0.6737,-0.5985,-0.5693,-0.5549,-0.5525,-0.5508,-0.5426,-0.5395,-0.5395,-0.5395,-0.5395,-0.5402,-0.5395,-0.5348,-0.5264,-0.4451,-0.3842,-0.3478,-0.2062,-0.1146,-0.0823,-0.0303,0.0,0.0,0.0,0.0,0.0,0.0,0.0,0.0,0.0,0.0,0.0,0.0,0.0,0.0,0.0,0.0,0.0,0.0,0.0,0.0,0.0,0.0,0.0,0.0,0.0,0.0695,0.1076,0.2036,0.3967,0.5609,0.7097,0.7471,0.7837,0.76,0.6918,0.6983,0.6478,0.5297,0.5422,0.6004,0.6054,0.6404,0.7033,0.7988,0.7963,0.7988,0.7988,0.7988,0.7988,0.7988,0.7988,0.7988,0.7988,0.7988,0.7988,0.7988,0.7988,0.7988,0.7988,0.7988,0.7988,0.7988,0.7988,0.7988,-1.3947,-1.2813,-1.2434,-1.2305,-1.2305,-1.2305,-1.2305,-1.2305,-1.2305,-1.2305,-1.2305,-1.2305,-1.2305,-1.2305,-1.2305,-1.2305,-1.2305,-1.2305,-1.2305,-1.2305,-1.2305,-1.2305,-1.2271,-1.2104,-1.2029,-1.1904,-1.137,-1.0201,-0.8594,-0.6985,-0.6101,-0.5807,-0.5719,-0.5657,-0.5658,-0.5569,-0.5522,-0.5518,-0.5539,-0.5525,-0.5522,-0.5522,-0.5494,-0.5396,-0.4874,-0.4371,-0.4004,-0.2544,-0.1591,-0.124,-0.0454,0.0,0.0,0.0,0.0,0.0,0.0,0.0,0.0,0.0,0.0,0.0,0.0,0.0,0.0,0.0,0.0,0.0,0.0,0.0,0.0,0.0,0.0,0.0,0.0,0.0,0.0,0.0,0.0,0.3445,0.5539,0.6965,0.7683,0.7894,0.7341,0.6182,0.683,0.6401,0.5245,0.5347,0.6232,0.6556,0.6758,0.721,0.7789,0.7988,0.7988,0.7988,0.7988,0.7988,0.7988,0.7988,0.7988,0.7988,0.7988,0.7988,0.7988,0.7988,0.7988,0.7988,0.7988,0.7988,0.7988,0.7988,0.7988,-1.3727,-1.3419,-1.2677,-1.2305,-1.2305,-1.2305,-1.2305,-1.2305,-1.2305,-1.2305,-1.2305,-1.2305,-1.2305,-1.2305,-1.2305,-1.2305,-1.2305,-1.2305,-1.2305,-1.2305,-1.2305,-1.2305,-1.228,-1.2278,-1.2258,-1.2171,-1.0985,-0.979,-0.8642,-0.7476,-0.6525,-0.5949,-0.582,-0.5803,-0.5806,-0.5776,-0.5776,-0.5762,-0.5755,-0.5772,-0.5796,-0.5766,-0.5705,-0.5637,-0.5616,-0.5189,-0.4127,-0.3228,-0.2328,-0.145,-0.0574,-0.0034,0.0,0.0,0.0,0.0,0.0,0.0,0.0,0.0,0.0,0.0,0.0,0.0,0.0,0.0,0.0,0.0,0.0,0.0,0.0,0.0,0.0,0.0,0.0,0.0,0.0,0.0,0.0972,0.3361,0.5183,0.6402,0.7425,0.7725,0.7204,0.6354,0.6129,0.6179,0.5827,0.6054,0.6681,0.7484,0.7662,0.7686,0.7864,0.7988,0.7988,0.7988,0.7988,0.7988,0.7988,0.7988,0.7988,0.7988,0.7988,0.7988,0.7988,0.7988,0.7988,0.7988,0.7988,0.7988,0.7988,0.7988,0.7988,-1.3973,-1.2758,-1.2427,-1.2305,-1.2305,-1.2305,-1.2305,-1.2305,-1.2305,-1.2305,-1.2305,-1.2305,-1.2305,-1.2305,-1.2305,-1.2305,-1.2305,-1.2305,-1.2305,-1.2305,-1.2305,-1.2305,-1.2305,-1.2305,-1.2305,-1.199,-1.0477,-0.9476,-0.8853,-0.7395,-0.6361,-0.6158,-0.5988,-0.5941,-0.5934,-0.5839,-0.58,-0.58,-0.58,-0.58,-0.58,-0.5803,-0.5783,-0.5745,-0.5779,-0.5585,-0.5229,-0.442,-0.3466,-0.2441,-0.1561,-0.0782,0.0,0.0,0.0,0.0,0.0,0.0,0.0,0.0,0.0,0.0,0.0,0.0,0.0,0.0,0.0,0.0,0.0,0.0,0.0,0.0,0.0,0.0,0.0,0.0,0.0,0.1453,0.2544,0.3226,0.5448,0.7222,0.7568,0.7375,0.6528,0.6079,0.5954,0.6004,0.6104,0.6758,0.7385,0.7939,0.7988,0.7988,0.7988,0.7988,0.7988,0.7988,0.7988,0.7988,0.7988,0.7988,0.7988,0.7988,0.7988,0.7988,0.7988,0.7988,0.7988,0.7988,0.7988,0.7988,0.7988,0.7988,0.7988,-1.4799,-1.3375,-1.2963,-1.2592,-1.2323,-1.2305,-1.2305,-1.2305,-1.2305,-1.2305,-1.2305,-1.2305,-1.2305,-1.2305,-1.2305,-1.2305,-1.2305,-1.2305,-1.2305,-1.2305,-1.2305,-1.2305,-1.2305,-1.2305,-1.2305,-1.2021,-1.0627,-0.965,-0.9226,-0.7706,-0.6679,-0.633,-0.6182,-0.6115,-0.6112,-0.6027,-0.5988,-0.5973,-0.5994,-0.5991,-0.5991,-0.5991,-0.5945,-0.5905,-0.5942,-0.5957,-0.5843,-0.5396,-0.4659,-0.3485,-0.2307,-0.1121,0.0,0.0,0.0,0.0,0.0,0.0,0.0,0.0,0.0,0.0,0.0,0.0,0.0,0.0,0.0,0.0,0.0,0.0,0.0,0.0,0.0,0.0,0.0,0.0,0.0,0.1821,0.2901,0.332,0.5236,0.6726,0.6804,0.6634,0.5752,0.5475,0.5702,0.6004,0.6282,0.716,0.7686,0.7988,0.7988,0.7988,0.7988,0.7988,0.7988,0.7988,0.7988,0.7988,0.7988,0.7988,0.7988,0.7988,0.7988,0.7988,0.7988,0.7988,0.7988,0.7988,0.7988,0.7988,0.7988,0.7988,0.7988,-1.6,-1.5057,-1.4081,-1.3109,-1.2342,-1.2305,-1.2305,-1.2305,-1.2305,-1.2305,-1.2305,-1.2305,-1.2305,-1.2305,-1.2305,-1.2305,-1.2305,-1.2305,-1.2305,-1.2305,-1.2305,-1.2305,-1.2305,-1.2305,-1.2305,-1.2139,-1.1205,-1.0228,-0.9277,-0.818,-0.7292,-0.6389,-0.6267,-0.6293,-0.6253,-0.6289,-0.6262,-0.6252,-0.6269,-0.6265,-0.6265,-0.6253,-0.6202,-0.6035,-0.6175,-0.6204,-0.6062,-0.6069,-0.5585,-0.434,-0.2506,-0.1107,0.0,0.0,0.0,0.0,0.0,0.0,0.0,0.0,0.0,0.0,0.0,0.0,0.0,0.0,0.0,0.0,0.0,0.0,0.0,0.0,0.0,0.0,0.0,0.0,0.0,0.1362,0.2519,0.3185,0.4616,0.6004,0.5924,0.5977,0.53,0.5197,0.56,0.5929,0.6556,0.731,0.7839,0.7988,0.7988,0.7988,0.7988,0.7988,0.7988,0.7988,0.7988,0.7988,0.7988,0.7988,0.7988,0.7988,0.7988,0.7988,0.7988,0.7988,0.7988,0.7988,0.7988,0.7988,0.7988,0.7988,0.7988,-1.5614,-1.4099,-1.3792,-1.3146,-1.236,-1.2305,-1.2311,-1.2305,-1.2318,-1.2345,-1.2311,-1.2305,-1.2345,-1.2311,-1.2318,-1.2305,-1.2318,-1.2305,-1.2305,-1.2305,-1.2305,-1.2305,-1.2305,-1.2305,-1.2305,-1.2157,-1.1354,-1.0284,-0.9277,-0.8351,-0.7326,-0.6315,-0.628,-0.628,-0.628,-0.628,-0.628,-0.628,-0.628,-0.628,-0.628,-0.628,-0.626,-0.6236,-0.6279,-0.6279,-0.6222,-0.6256,-0.5355,-0.3574,-0.2315,-0.1104,0.0,0.0,0.0,0.0,0.0,0.0,0.0,0.0,0.0,0.0,0.0,0.0,0.0,0.0,0.0,0.0,0.0,0.0,0.0,0.0,0.0,0.0,0.0,0.0,0.0,0.2018,0.3545,0.3806,0.5078,0.6131,0.6429,0.5722,0.5222,0.6149,0.6326,0.6379,0.7058,0.7459,0.7988,0.7988,0.7988,0.7988,0.7988,0.7988,0.7988,0.7988,0.7988,0.7988,0.7988,0.7988,0.7988,0.7988,0.7988,0.7988,0.7988,0.7988,0.7988,0.7988,0.7988,0.7988,0.7988,0.7988,0.7988,-1.5891,-1.4082,-1.4082,-1.3534,-1.2736,-1.2666,-1.2619,-1.2557,-1.2632,-1.2605,-1.2564,-1.2658,-1.2685,-1.2653,-1.2552,-1.251,-1.249,-1.2351,-1.2305,-1.2305,-1.2305,-1.2305,-1.2305,-1.2305,-1.2305,-1.2249,-1.1712,-1.0664,-0.9466,-0.8675,-0.7687,-0.6528,-0.628,-0.628,-0.628,-0.628,-0.628,-0.628,-0.628,-0.628,-0.628,-0.628,-0.6277,-0.628,-0.628,-0.628,-0.628,-0.628,-0.547,-0.3962,-0.2774,-0.1546,0.0,0.0,0.0,0.0,0.0,0.0,0.0,0.0,0.0,0.0,0.0,0.0,0.0,0.0,0.0,0.0,0.0,0.0,0.0,0.0,0.0,0.0,0.0,0.0,0.0,0.0,0.3755,0.43,0.5123,0.5952,0.6423,0.4893,0.532,0.6276,0.6279,0.6855,0.7609,0.7861,0.7988,0.7988,0.7988,0.7988,0.7988,0.7988,0.7988,0.7988,0.7988,0.7988,0.7988,0.7988,0.7988,0.7988,0.7988,0.7988,0.7988,0.7988,0.7988,0.7988,0.7988,0.7988,0.7988,0.7988,0.7988,-1.6386,-1.4588,-1.4588,-1.4057,-1.3259,-1.32,-1.3039,-1.2918,-1.3039,-1.3019,-1.2905,-1.3106,-1.3113,-1.3173,-1.2851,-1.279,-1.2811,-1.2452,-1.2325,-1.2305,-1.2305,-1.2305,-1.2305,-1.2305,-1.215,-1.2021,-1.2114,-1.0832,-0.941,-0.8974,-0.805,-0.6698,-0.628,-0.628,-0.628,-0.628,-0.628,-0.628,-0.628,-0.628,-0.628,-0.628,-0.628,-0.628,-0.628,-0.628,-0.628,-0.6238,-0.5805,-0.4902,-0.3846,-0.2209,0.0,0.0,0.0,0.0,0.0,0.0,0.0,0.0,0.0,0.0,0.0,0.0,0.0,0.0,0.0,0.0,0.0,0.0,0.0,0.0,0.0,0.0,0.0,0.0,0.0,0.2241,0.3816,0.3892,0.4943,0.4845,0.4568,0.4166,0.4593,0.6855,0.6833,0.721,0.7736,0.7914,0.7988,0.7988,0.7988,0.7988,0.7988,0.7988,0.7988,0.7988,0.7988,0.7988,0.7988,0.7988,0.7988,0.7988,0.7988,0.7988,0.7988,0.7988,0.7988,0.7988,0.7988,0.7988,0.7988,0.7988,0.7988,-1.5691,-1.4596,-1.4596,-1.4064,-1.3286,-1.3206,-1.316,-1.312,-1.3186,-1.3193,-1.314,-1.3193,-1.3233,-1.32,-1.3005,-1.2904,-1.3019,-1.2593,-1.2311,-1.2305,-1.2305,-1.2305,-1.2325,-1.2351,-1.188,-1.1459,-1.1162,-1.0072,-0.8666,-0.8199,-0.7538,-0.649,-0.628,-0.628,-0.628,-0.628,-0.628,-0.628,-0.628,-0.628,-0.628,-0.628,-0.628,-0.628,-0.628,-0.6303,-0.63,-0.628,-0.618,-0.577,-0.4854,-0.3162,-0.1176,-0.0825,-0.068,0.0,0.0,0.0,0.0,0.0,0.0,0.0,0.0,0.0,0.0,0.0,0.0,0.0,0.0,0.0,0.0,0.0,0.0,0.0,0.0,0.0,0.0,0.1458,0.2577,0.2846,0.2992,0.3417,0.4768,0.4266,0.5118,0.6955,0.7587,0.7711,0.7839,0.7988,0.7988,0.7988,0.7988,0.7988,0.7988,0.7988,0.7988,0.7988,0.7988,0.7988,0.7988,0.7988,0.7988,0.7988,0.7988,0.7988,0.7988,0.7988,0.7988,0.7988,0.7988,0.7988,0.7988,0.7988,0.7988,-1.5293,-1.4385,-1.4358,-1.4089,-1.3682,-1.3621,-1.354,-1.344,-1.3567,-1.352,-1.3447,-1.3547,-1.3621,-1.3574,-1.3327,-1.328,-1.326,-1.294,-1.2732,-1.2746,-1.2739,-1.2739,-1.2726,-1.2666,-1.2271,-1.1534,-1.1013,-0.9908,-0.8784,-0.794,-0.735,-0.6374,-0.628,-0.628,-0.628,-0.6284,-0.628,-0.628,-0.628,-0.628,-0.628,-0.628,-0.628,-0.628,-0.6284,-0.6323,-0.6395,-0.6382,-0.6423,-0.6324,-0.5874,-0.4889,-0.2884,-0.1601,-0.0596,0.0,0.0,0.0,0.0,0.0,0.0,0.0,0.0,0.0,0.0,0.0,0.0,0.0,0.0,0.0,0.0,0.0,0.0,0.0,0.0,0.0,0.0,0.1151,0.1725,0.1728,0.1838,0.3265,0.4166,0.4341,0.5495,0.7257,0.7736,0.7864,0.7889,0.7988,0.7988,0.7988,0.7988,0.7988,0.7988,0.7988,0.7988,0.7988,0.7988,0.7988,0.7988,0.7988,0.7988,0.7988,0.7988,0.7988,0.7988,0.7988,0.7988,0.7988,0.7988,0.7988,0.7988,0.7988,0.7988,-1.4929,-1.4109,-1.4109,-1.4109,-1.4109,-1.4068,-1.3921,-1.3747,-1.3975,-1.3895,-1.3767,-1.3988,-1.4016,-1.3995,-1.3714,-1.3586,-1.3467,-1.3393,-1.3206,-1.3113,-1.3106,-1.3106,-1.3113,-1.3053,-1.2868,-1.2315,-1.1155,-1.0027,-0.9005,-0.8141,-0.7091,-0.6412,-0.6303,-0.63,-0.628,-0.6327,-0.6347,-0.6335,-0.6379,-0.6389,-0.6382,-0.6379,-0.6382,-0.6386,-0.6392,-0.6437,-0.6512,-0.6539,-0.658,-0.6667,-0.6532,-0.642,-0.5459,-0.2983,0.0,0.0,0.0,0.0,0.0,0.0,0.0,0.0,0.0,0.0,0.0,0.0,0.0,0.0,0.0,0.0,0.0,0.0,0.0,0.0,0.0,0.0,0.0,0.1033,0.097,0.0602,0.136,0.2916,0.4117,0.4768,0.6124,0.7282,0.7711,0.7988,0.7988,0.7988,0.7988,0.7988,0.7988,0.7988,0.7988,0.7988,0.7988,0.7988,0.7988,0.7988,0.7988,0.7988,0.7988,0.7988,0.7988,0.7988,0.7988,0.7988,0.7988,0.7988,0.7988,0.7988,0.7988,0.7988,0.7988,-1.4271,-1.4109,-1.4109,-1.4109,-1.4109,-1.4109,-1.4076,-1.4028,-1.4083,-1.4062,-1.4021,-1.4068,-1.4109,-1.4015,-1.376,-1.3493,-1.344,-1.3467,-1.3447,-1.3293,-1.3287,-1.3287,-1.3307,-1.332,-1.3173,-1.2536,-1.1197,-0.9687,-0.8635,-0.7361,-0.6895,-0.6529,-0.6378,-0.6311,-0.6368,-0.6405,-0.6457,-0.6474,-0.6529,-0.6597,-0.658,-0.658,-0.6603,-0.66,-0.6593,-0.6634,-0.6647,-0.6664,-0.6675,-0.6605,-0.5855,-0.5969,-0.5909,-0.408,-0.1925,0.0,0.0,0.0,0.0,0.0,0.0,0.0,0.0,0.0,0.0,0.0,0.0,0.0,0.0,0.0,0.0,0.0,0.0,0.0,0.0,0.0,0.0,0.0,0.0,0.0428,0.1411,0.2666,0.4092,0.5295,0.6351,0.7307,0.7811,0.7988,0.7988,0.7988,0.7988,0.7988,0.7988,0.7988,0.7988,0.7988,0.7988,0.7988,0.7988,0.7988,0.7988,0.7988,0.7988,0.7988,0.7988,0.7988,0.7988,0.7988,0.7988,0.7988,0.7988,0.7988,0.7988,0.7988,0.7988,-1.4109,-1.4109,-1.4109,-1.4109,-1.4109,-1.4109,-1.4109,-1.4109,-1.4109,-1.4109,-1.4109,-1.4109,-1.4109,-1.4069,-1.3961,-1.3767,-1.3714,-1.3781,-1.3788,-1.3667,-1.3647,-1.3667,-1.3641,-1.3647,-1.3667,-1.3032,-1.1419,-0.9924,-0.9116,-0.8097,-0.7152,-0.6678,-0.6535,-0.6512,-0.6522,-0.6576,-0.6607,-0.6634,-0.6664,-0.6729,-0.6705,-0.6705,-0.6705,-0.6705,-0.6715,-0.6742,-0.6793,-0.6796,-0.6837,-0.6818,-0.6446,-0.6501,-0.6116,-0.4743,-0.247,0.0,0.0,0.0,0.0,0.0,0.0,0.0,0.0,0.0,0.0,0.0,0.0,0.0,0.0,0.0,0.0,0.0,0.0,0.0,0.0,0.0,0.0,0.0,0.0,0.0807,0.1687,0.3041,0.4847,0.5874,0.6656,0.731,0.7889,0.7988,0.7988,0.7988,0.7988,0.7988,0.7988,0.7988,0.7988,0.7988,0.7988,0.7988,0.7988,0.7988,0.7988,0.7988,0.7988,0.7988,0.7988,0.7988,0.7988,0.7988,0.7988,0.7988,0.7988,0.7988,0.7988,0.7988,0.7988,-1.4109,-1.4109,-1.4109,-1.4109,-1.4109,-1.4109,-1.4109,-1.4109,-1.4109,-1.4109,-1.4109,-1.4109,-1.4109,-1.4103,-1.4103,-1.4089,-1.4109,-1.4075,-1.4069,-1.4056,-1.4028,-1.4089,-1.4096,-1.4109,-1.4028,-1.3675,-1.2115,-1.063,-0.9761,-0.8466,-0.7543,-0.6968,-0.6725,-0.6722,-0.6705,-0.6712,-0.6736,-0.6756,-0.6762,-0.679,-0.6766,-0.6766,-0.6769,-0.6787,-0.6766,-0.6861,-0.6935,-0.6927,-0.697,-0.7056,-0.7034,-0.7063,-0.671,-0.4883,-0.2525,0.0,0.0,0.0,0.0,0.0,0.0,0.0,0.0,0.0,0.0,0.0,0.0,0.0,0.0,0.0,0.0,0.0,0.0,0.0,0.0,0.0,0.0,0.0,0.0,0.1561,0.2114,0.3468,0.5322,0.6503,0.7285,0.7462,0.7988,0.7988,0.7988,0.7988,0.7988,0.7988,0.7988,0.7988,0.7988,0.7988,0.7988,0.7988,0.7988,0.7988,0.7988,0.7988,0.7988,0.7988,0.7988,0.7988,0.7988,0.7988,0.7988,0.7988,0.7988,0.7988,0.7988,0.7988,0.7988,-1.4109,-1.4109,-1.4109,-1.4109,-1.4109,-1.4109,-1.4109,-1.4109,-1.4109,-1.4109,-1.4109,-1.4109,-1.4109,-1.4109,-1.4109,-1.4109,-1.4109,-1.4109,-1.4109,-1.4109,-1.4109,-1.4109,-1.4109,-1.4109,-1.3955,-1.3667,-1.2531,-1.1557,-1.0141,-0.822,-0.7197,-0.6924,-0.6797,-0.6736,-0.6773,-0.6833,-0.6877,-0.6901,-0.6974,-0.7028,-0.7021,-0.7039,-0.7039,-0.7039,-0.7039,-0.7039,-0.706,-0.7045,-0.7093,-0.7104,-0.7117,-0.7117,-0.6738,-0.4885,-0.2504,0.0,0.0,0.0,0.0,0.0,0.0,0.0,0.0,0.0,0.0,0.0,0.0,0.0,0.0,0.0,0.0,0.0,0.0,0.0,0.0,0.0,0.0,0.0,0.0,0.2514,0.314,0.4345,0.5902,0.6933,0.7839,0.7939,0.7988,0.7988,0.7988,0.7988,0.7988,0.7988,0.7988,0.7988,0.7988,0.7988,0.7988,0.7988,0.7988,0.7988,0.7988,0.7988,0.7988,0.7988,0.7988,0.7988,0.7988,0.7988,0.7988,0.7988,0.7988,0.7988,0.7988,0.7988,0.7988,-1.4109,-1.4109,-1.4109,-1.4109,-1.4109,-1.4109,-1.4109,-1.4109,-1.4109,-1.4109,-1.4109,-1.4109,-1.4109,-1.4109,-1.4109,-1.4109,-1.4109,-1.4109,-1.4109,-1.4109,-1.4109,-1.4109,-1.4109,-1.4039,-1.3885,-1.2942,-1.1906,-1.0594,-0.9517,-0.8688,-0.7802,-0.7031,-0.694,-0.6945,-0.6897,-0.6964,-0.7019,-0.7021,-0.7061,-0.7114,-0.7117,-0.7117,-0.7117,-0.7117,-0.7117,-0.7117,-0.7117,-0.7117,-0.7117,-0.7117,-0.7117,-0.7117,-0.658,-0.4885,0.0,0.0,0.0,0.0,0.0,0.0,0.0,0.0,0.0,0.0,0.0,0.0,0.0,0.0,0.0,0.0,0.0,0.0,0.0,0.0,0.0,0.0,0.0,0.0,0.0756,0.2514,0.4191,0.5245,0.6276,0.7232,0.7939,0.7963,0.7988,0.7988,0.7988,0.7988,0.7988,0.7988,0.7988,0.7988,0.7988,0.7988,0.7988,0.7988,0.7988,0.7988,0.7988,0.7988,0.7988,0.7988,0.7988,0.7988,0.7988,0.7988,0.7988,0.7988,0.7988,0.7988,0.7988,0.7988,0.7988,-1.4109,-1.4109,-1.4109,-1.4109,-1.4109,-1.4109,-1.4109,-1.4109,-1.4109,-1.4109,-1.4109,-1.4109,-1.4109,-1.4109,-1.4109,-1.4109,-1.4109,-1.4109,-1.4109,-1.4109,-1.4109,-1.4109,-1.4109,-1.4018,-1.3464,-1.2237,-1.1322,-1.0161,-0.9235,-0.8418,-0.7735,-0.7117,-0.7083,-0.7071,-0.7085,-0.71,-0.71,-0.7104,-0.7088,-0.7117,-0.7117,-0.7117,-0.7117,-0.7117,-0.7117,-0.7117,-0.7117,-0.7117,-0.7117,-0.7117,-0.7117,-0.7117,-0.676,-0.5265,-0.2815,0.0,0.0,0.0,0.0,0.0,0.0,0.0,0.0,0.0,0.0,0.0,0.0,0.0,0.0,0.0,0.0,0.0,0.0,0.0,0.0,0.0,0.0,0.0,0.0,0.2889,0.4441,0.5597,0.6603,0.7534,0.7988,0.7988,0.7988,0.7988,0.7988,0.7988,0.7988,0.7988,0.7988,0.7988,0.7988,0.7988,0.7988,0.7988,0.7988,0.7988,0.7988,0.7988,0.7988,0.7988,0.7988,0.7988,0.7988,0.7988,0.7988,0.7988,0.7988,0.7988,0.7988,0.7988,0.7988,-1.4109,-1.4109,-1.4109,-1.4109,-1.4109,-1.4109,-1.4109,-1.4109,-1.4109,-1.4109,-1.4109,-1.4109,-1.4109,-1.4109,-1.4109,-1.4109,-1.4109,-1.4109,-1.4109,-1.4109,-1.4088,-1.3906,-1.3822,-1.3603,-1.3182,-1.2002,-1.0821,-0.9792,-0.8886,-0.7815,-0.7401,-0.7117,-0.7117,-0.7117,-0.7117,-0.7117,-0.7117,-0.7117,-0.7117,-0.7117,-0.7117,-0.7117,-0.7117,-0.7117,-0.7117,-0.7117,-0.7117,-0.7117,-0.694,-0.694,-0.6852,-0.6782,-0.6403,-0.5176,-0.284,-0.0905,-0.0685,-0.062,0.0,0.0,0.0,0.0,0.0,0.0,0.0,0.0,0.0,0.0,0.0,0.0,0.0,0.0,0.0,0.0,0.0,0.0,0.0,0.0,0.0,0.0,0.4593,0.5572,0.683,0.7761,0.7988,0.7988,0.7988,0.7988,0.7988,0.7988,0.7988,0.7988,0.7988,0.7988,0.7988,0.7988,0.7988,0.7988,0.7988,0.7988,0.7988,0.7988,0.7988,0.7988,0.7988,0.7988,0.7988,0.7988,0.7988,0.7988,0.7988,0.7988,0.7988,0.7988,0.7988,-1.4109,-1.4109,-1.4109,-1.4109,-1.4109,-1.4109,-1.4109,-1.4109,-1.4109,-1.4109,-1.4109,-1.4109,-1.4109,-1.4109,-1.4109,-1.4109,-1.4109,-1.4109,-1.4109,-1.3779,-1.347,-1.3069,-1.2836,-1.2275,-1.13,-1.0438,-0.9705,-0.8947,-0.7775,-0.7316,-0.7205,-0.7117,-0.7117,-0.7117,-0.7117,-0.7117,-0.7117,-0.7117,-0.7117,-0.7117,-0.7117,-0.7117,-0.7117,-0.7117,-0.7117,-0.7117,-0.7117,-0.7117,-0.6694,-0.6273,-0.6143,-0.5972,-0.553,-0.4233,-0.2421,-0.0436,-0.0695,-0.0513,0.0,0.0,0.0,0.0,0.0,0.0,0.0,0.0,0.0,0.0,0.0,0.0,0.0,0.0,0.0,0.0,0.0,0.0,0.0,0.0,0.0,0.0,0.4341,0.5193,0.6575,0.7939,0.7988,0.7988,0.7988,0.7988,0.7988,0.7988,0.7988,0.7988,0.7988,0.7988,0.7988,0.7988,0.7988,0.7988,0.7988,0.7988,0.7988,0.7988,0.7988,0.7988,0.7988,0.7988,0.7988,0.7988,0.7988,0.7988,0.7988,0.7988,0.7988,0.7988,0.7988,-1.4109,-1.4109,-1.4109,-1.4109,-1.4109,-1.4109,-1.4109,-1.4109,-1.4109,-1.4109,-1.4109,-1.4109,-1.4109,-1.4109,-1.4109,-1.4109,-1.4109,-1.4109,-1.4109,-1.3688,-1.3033,-1.2392,-1.1916,-1.1252,-1.0356,-0.9148,-0.8803,-0.8342,-0.7272,-0.7139,-0.7117,-0.7117,-0.7117,-0.7117,-0.7117,-0.7117,-0.7117,-0.7117,-0.7117,-0.7117,-0.7117,-0.7117,-0.7117,-0.7117,-0.7117,-0.7117,-0.7117,-0.7051,-0.6517,-0.5886,-0.5389,-0.4943,-0.4051,-0.2914,-0.1592,-0.0679,-0.0284,-0.0356,0.0,0.0,0.0,0.0,0.0,0.0,0.0,0.0,0.0,0.0,0.0,0.0,0.0,0.0,0.0,0.0,0.0,0.0,0.0,0.0,0.0,0.3516,0.4216,0.4943,0.665,0.7988,0.7988,0.7988,0.7988,0.7988,0.7988,0.7988,0.7988,0.7988,0.7988,0.7988,0.7988,0.7988,0.7988,0.7988,0.7988,0.7988,0.7988,0.7988,0.7988,0.7988,0.7988,0.7988,0.7988,0.7988,0.7988,0.7988,0.7988,0.7988,0.7988,0.7988,0.7988,-1.4109,-1.4109,-1.4109,-1.4109,-1.4109,-1.4109,-1.4109,-1.4109,-1.4109,-1.4109,-1.4109,-1.4109,-1.4109,-1.4109,-1.4109,-1.4109,-1.4109,-1.4109,-1.3997,-1.3555,-1.2553,-1.2242,-1.1574,-1.0697,-0.9401,-0.9039,-0.8606,-0.7991,-0.7117,-0.7117,-0.7117,-0.7117,-0.7117,-0.7117,-0.7117,-0.7117,-0.7117,-0.7117,-0.7117,-0.7117,-0.7117,-0.7117,-0.7117,-0.7121,-0.7151,-0.7164,-0.7164,-0.7202,-0.6511,-0.532,-0.5127,-0.4265,-0.2574,-0.2826,-0.1825,-0.0266,-0.0996,-0.0927,0.0,0.0,0.0,0.0,0.0,0.0,0.0,0.0,0.0,0.0,0.0,0.0,0.0,0.0,0.0,0.0,0.0,0.0,0.0,0.0,0.0,0.3316,0.4066,0.4843,0.6678,0.7988,0.7988,0.7988,0.7988,0.7988,0.7988,0.7988,0.7988,0.7988,0.7988,0.7988,0.7988,0.7988,0.7988,0.7988,0.7988,0.7988,0.7988,0.7988,0.7988,0.7988,0.7988,0.7988,0.7988,0.7988,0.7988,0.7988,0.7988,0.7988,0.7988,0.7988,0.7988,-1.4109,-1.4109,-1.4109,-1.4109,-1.4109,-1.4109,-1.4109,-1.4109,-1.4109,-1.4109,-1.4109,-1.4109,-1.4109,-1.4109,-1.4109,-1.4109,-1.4109,-1.4067,-1.3913,-1.2808,-1.1793,-1.0718,-1.0009,-0.9183,-0.8207,-0.7837,-0.7665,-0.7687,-0.7117,-0.7117,-0.7117,-0.7117,-0.7117,-0.7117,-0.7117,-0.7117,-0.7117,-0.7117,-0.7117,-0.7117,-0.7117,-0.7124,-0.7131,-0.7141,-0.7225,-0.7292,-0.7279,-0.7337,-0.6425,-0.479,-0.4496,-0.3318,0.0,0.0,0.0,0.0,0.0,-0.0443,0.0,0.0,0.0,0.0,0.0,0.0,0.0,0.0,0.0,0.0,0.0,0.0,0.0,0.0,0.0,0.0,0.0,0.0,0.0,0.0,0.0933,0.2914,0.4141,0.5495,0.7129,0.7889,0.7988,0.7988,0.7988,0.7988,0.7988,0.7988,0.7988,0.7988,0.7988,0.7988,0.7988,0.7988,0.7988,0.7988,0.7988,0.7988,0.7988,0.7988,0.7988,0.7988,0.7988,0.7988,0.7988,0.7988,0.7988,0.7988,0.7988,0.7988,0.7988,0.7988,0.7988,-1.4109,-1.4109,-1.4109,-1.4109,-1.4109,-1.4109,-1.4109,-1.4109,-1.4109,-1.4109,-1.4109,-1.4109,-1.4109,-1.4109,-1.4109,-1.4109,-1.4109,-1.4088,-1.3449,-1.2264,-1.1128,-1.0161,-0.8973,-0.7753,-0.7467,-0.7117,-0.7117,-0.7117,-0.7117,-0.7117,-0.7117,-0.7117,-0.7121,-0.7117,-0.7117,-0.7117,-0.7117,-0.7117,-0.7121,-0.7154,-0.7185,-0.7215,-0.7239,-0.7303,-0.7374,-0.7451,-0.7502,-0.7156,-0.6434,-0.4614,-0.3439,-0.2519,0.0,0.0,0.0,0.0,0.0,0.0,0.0,0.0,0.0,0.0,0.0,0.0,0.0,0.0,0.0,0.0,0.0,0.0,0.0,0.0,0.0,0.0,0.0,0.0,0.0,0.0,0.0983,0.2914,0.4441,0.5922,0.7332,0.7658,0.7988,0.7988,0.7988,0.7988,0.7988,0.7988,0.7988,0.7988,0.7988,0.7988,0.7988,0.7988,0.7988,0.7988,0.7988,0.7988,0.7988,0.7988,0.7988,0.7988,0.7988,0.7988,0.7988,0.7988,0.7988,0.7988,0.7988,0.7988,0.7988,0.7988,0.7988,-1.4109,-1.4109,-1.4109,-1.4109,-1.4109,-1.4109,-1.4109,-1.4109,-1.4109,-1.4109,-1.4109,-1.4109,-1.4109,-1.4109,-1.4109,-1.4109,-1.3955,-1.3976,-1.3075,-1.205,-1.0783,-0.9727,-0.8667,-0.7621,-0.7205,-0.7117,-0.7117,-0.7117,-0.7121,-0.7161,-0.7161,-0.7158,-0.7202,-0.7208,-0.7208,-0.7208,-0.7195,-0.7185,-0.7215,-0.7269,-0.7356,-0.7399,-0.7431,-0.7502,-0.7573,-0.76,-0.755,-0.7272,-0.5984,-0.4638,-0.3634,-0.2123,0.0,0.0,0.0,0.0,0.0,0.0,0.0,0.0,0.0,0.0,0.0,0.0,0.0,0.0,0.0,0.0,0.0,0.0,0.0,0.0,0.0,0.0,0.0,0.0,0.0,0.0,0.0,0.2939,0.4293,0.5772,0.7381,0.7988,0.7988,0.7988,0.7988,0.7988,0.7988,0.7988,0.7988,0.7988,0.7988,0.7988,0.7988,0.7988,0.7988,0.7988,0.7988,0.7988,0.7988,0.7988,0.7988,0.7988,0.7988,0.7988,0.7988,0.7988,0.7988,0.7988,0.7988,0.7988,0.7988,0.7988,0.7988,-1.4109,-1.4109,-1.4109,-1.4109,-1.4109,-1.4109,-1.4109,-1.4109,-1.4109,-1.4109,-1.4109,-1.4109,-1.4109,-1.4109,-1.4109,-1.4109,-1.3779,-1.3167,-1.2126,-1.1085,-1.0091,-0.8816,-0.7903,-0.7316,-0.7117,-0.7098,-0.7102,-0.7141,-0.7154,-0.7205,-0.7302,-0.7338,-0.738,-0.7401,-0.7418,-0.7465,-0.7374,-0.7337,-0.7371,-0.7458,-0.7509,-0.7529,-0.7587,-0.7631,-0.7719,-0.7743,-0.7688,-0.6909,-0.5579,-0.4324,-0.303,0.0,0.0,0.0,0.0,0.0,0.0,0.0,0.0,0.0,0.0,0.0,0.0,0.0,0.0,0.0,0.0,0.0,0.0,0.0,0.0,0.0,0.0,0.0,0.0,0.0,0.0,0.0,0.0,0.3416,0.4718,0.6323,0.7861,0.7988,0.7988,0.7988,0.7988,0.7988,0.7988,0.7988,0.7988,0.7988,0.7988,0.7988,0.7988,0.7988,0.7988,0.7988,0.7988,0.7988,0.7988,0.7988,0.7988,0.7988,0.7988,0.7988,0.7988,0.7988,0.7988,0.7988,0.7988,0.7988,0.7988,0.7988,0.7988,-1.4109,-1.4109,-1.4109,-1.4109,-1.4109,-1.4109,-1.4109,-1.4109,-1.4109,-1.4109,-1.4109,-1.4109,-1.4109,-1.4109,-1.4109,-1.4088,-1.3997,-1.2921,-1.1815,-1.0654,-0.9344,-0.8321,-0.7514,-0.7121,-0.7117,-0.7134,-0.7178,-0.7251,-0.7246,-0.737,-0.7485,-0.7491,-0.7573,-0.759,-0.7597,-0.7617,-0.7628,-0.7584,-0.758,-0.7631,-0.7662,-0.7689,-0.7689,-0.7746,-0.7837,-0.7858,-0.7703,-0.6655,-0.5341,-0.4042,-0.2714,0.0,0.0,0.0,0.0,0.0,0.0,0.0,0.0,0.0,0.0,0.0,0.0,0.0,0.0,0.0,0.0,0.0,0.0,0.0,0.0,0.0,0.0,0.0,0.0,0.0,0.0,0.0,0.0,0.0,0.5572,0.7182,0.7988,0.7988,0.7988,0.7988,0.7988,0.7988,0.7988,0.7988,0.7988,0.7988,0.7988,0.7988,0.7988,0.7988,0.7988,0.7988,0.7988,0.7988,0.7988,0.7988,0.7988,0.7988,0.7988,0.7988,0.7988,0.7988,0.7988,0.7988,0.7988,0.7988,0.7988,0.7988,0.7988,-1.4109,-1.4109,-1.4109,-1.4109,-1.4109,-1.4109,-1.4109,-1.4109,-1.4109,-1.4109,-1.4109,-1.4109,-1.4109,-1.4109,-1.4109,-1.4109,-1.3625,-1.2617,-1.1466,-1.0459,-0.9039,-0.7929,-0.7363,-0.7115,-0.7178,-0.7227,-0.7292,-0.7387,-0.7454,-0.7526,-0.7611,-0.7617,-0.7662,-0.7672,-0.7699,-0.7763,-0.7783,-0.777,-0.7719,-0.7719,-0.7787,-0.7824,-0.7864,-0.7941,-0.7971,-0.795,-0.7599,-0.6628,-0.5275,-0.3992,-0.2514,-0.1134,0.0,0.0,0.0,0.0,0.0,0.0,0.0,0.0,0.0,0.0,0.0,0.0,0.0,0.0,0.0,0.0,0.0,0.0,0.0,0.0,0.0,0.0,0.0,0.0,0.0,0.0,0.0,0.4595,0.6301,0.7736,0.7988,0.7988,0.7988,0.7988,0.7988,0.7988,0.7988,0.7988,0.7988,0.7988,0.7988,0.7988,0.7988,0.7988,0.7988,0.7988,0.7988,0.7988,0.7988,0.7988,0.7988,0.7988,0.7988,0.7988,0.7988,0.7988,0.7988,0.7988,0.7988,0.7988,0.7988,0.7988,0.7988,-1.4109,-1.4109,-1.4109,-1.4109,-1.4109,-1.4109,-1.4109,-1.4109,-1.4109,-1.4109,-1.4109,-1.4109,-1.4109,-1.4109,-1.4109,-1.4067,-1.3582,-1.2099,-1.1042,-0.9896,-0.8601,-0.7687,-0.7207,-0.7198,-0.7278,-0.7389,-0.7471,-0.755,-0.76,-0.7689,-0.7739,-0.7777,-0.7807,-0.7861,-0.7864,-0.7935,-0.7932,-0.7897,-0.7902,-0.7871,-0.7922,-0.7952,-0.7968,-0.7988,-0.7988,-0.7988,-0.7307,-0.5722,-0.4743,-0.3715,-0.1561,-0.0479,0.0,0.0,0.0,0.0,0.0,0.0,0.0,0.0,0.0,0.0,0.0,0.0,0.0,0.0,0.0,0.0,0.0,0.0,0.0,0.0,0.0,0.0,0.0,0.0,0.0,0.0,0.0,0.5197,0.693,0.7612,0.7914,0.7988,0.7988,0.7988,0.7988,0.7988,0.7988,0.7988,0.7988,0.7988,0.7988,0.7988,0.7988,0.7988,0.7988,0.7988,0.7988,0.7988,0.7988,0.7988,0.7988,0.7988,0.7988,0.7988,0.7988,0.7988,0.7988,0.7988,0.7988,0.7988,0.7988,0.7988,0.7988,-1.4109,-1.4109,-1.4109,-1.4109,-1.4109,-1.4109,-1.4109,-1.4109,-1.4109,-1.4109,-1.4109,-1.4109,-1.4088,-1.4088,-1.4109,-1.3603,-1.3103,-1.145,-1.0394,-0.9335,-0.8269,-0.7445,-0.7168,-0.7255,-0.7299,-0.7387,-0.7597,-0.7692,-0.7753,-0.7827,-0.7895,-0.7895,-0.7983,-0.7988,-0.7988,-0.7988,-0.7988,-0.7985,-0.7988,-0.7988,-0.7988,-0.7988,-0.7988,-0.7988,-0.7988,-0.7988,-0.7104,-0.557,-0.4391,-0.3291,-0.146,0.0,0.0,0.0,0.0,0.0,0.0,0.0,0.0,0.0,0.0,0.0,0.0,0.0,0.0,0.0,0.0,0.0,0.0,0.0,0.0,0.0,0.0,0.0,0.0,0.0,0.0,0.0,0.4094,0.5552,0.6958,0.7786,0.7988,0.7988,0.7988,0.7988,0.7988,0.7988,0.7988,0.7988,0.7988,0.7988,0.7988,0.7988,0.7988,0.7988,0.7988,0.7988,0.7988,0.7988,0.7988,0.7988,0.7988,0.7988,0.7988,0.7988,0.7988,0.7988,0.7988,0.7988,0.7988,0.7988,0.7988,0.7988,0.7988,-1.4109,-1.4109,-1.4109,-1.4109,-1.4109,-1.4109,-1.4109,-1.4109,-1.4109,-1.4109,-1.4109,-1.4109,-1.4046,-1.3891,-1.3822,-1.3006,-1.1986,-1.0675,-0.9705,-0.8903,-0.7731,-0.7288,-0.7185,-0.7212,-0.7383,-0.755,-0.7719,-0.7858,-0.7959,-0.7961,-0.7961,-0.7985,-0.7988,-0.7988,-0.7988,-0.7988,-0.7988,-0.7988,-0.7988,-0.7988,-0.7988,-0.7988,-0.7988,-0.7988,-0.7988,-0.791,-0.703,-0.5747,-0.4216,-0.2814,0.0,0.0,0.0,0.0,0.0,0.0,0.0,0.0,0.0,0.0,0.0,0.0,0.0,0.0,0.0,0.0,0.0,0.0,0.0,0.0,0.0,0.0,0.0,0.0,0.0,0.0,0.2063,0.3291,0.4545,0.5904,0.7008,0.7939,0.7988,0.7988,0.7988,0.7988,0.7988,0.7988,0.7988,0.7988,0.7988,0.7988,0.7988,0.7988,0.7988,0.7988,0.7988,0.7988,0.7988,0.7988,0.7988,0.7988,0.7988,0.7988,0.7988,0.7988,0.7988,0.7988,0.7988,0.7988,0.7988,0.7988,0.7988,0.7988,0.7988,-1.4109,-1.4109,-1.4109,-1.4109,-1.4109,-1.4109,-1.4109,-1.4109,-1.4109,-1.4109,-1.4109,-1.4018,-1.3646,-1.2632,-1.2632,-1.1986,-1.0891,-0.9814,-0.9366,-0.8737,-0.7628,-0.7339,-0.7319,-0.7414,-0.7662,-0.7787,-0.7885,-0.7941,-0.7988,-0.7988,-0.7988,-0.7988,-0.7988,-0.7988,-0.7988,-0.7988,-0.7988,-0.7988,-0.7988,-0.7988,-0.7988,-0.7988,-0.7988,-0.7988,-0.7988,-0.731,-0.6279,-0.487,-0.3566,-0.2238,0.0,0.0,0.0,0.0,0.0,0.0,0.0,0.0,0.0,0.0,0.0,0.0,0.0,0.0,0.0,0.0,0.0,0.0,0.0,0.0,0.0,0.0,0.0,0.0,0.0,0.0,0.2966,0.3842,0.4795,0.6251,0.7612,0.7988,0.7988,0.7988,0.7988,0.7988,0.7988,0.7988,0.7988,0.7988,0.7988,0.7988,0.7988,0.7988,0.7988,0.7988,0.7988,0.7988,0.7988,0.7988,0.7988,0.7988,0.7988,0.7988,0.7988,0.7988,0.7988,0.7988,0.7988,0.7988,0.7988,0.7988,0.7988,0.7988,0.7988]},{"header":{"parameterUnit":"m.s-1","parameterCategory":1,"la1":31.0,"la2":29.5877,"lo1":-88.7671,"lo2":-86.6584,"dy":0.0162,"dx":0.0185,"nx":115,"ny":88,"refTime":"2024-09-17T06:00:00:Z","depth":0,"parameterNumber":3,"parameterNumberName":"V-component_of_WINDS"},"data":[0.0,0.0,0.0,0.0,0.0,0.0,0.0,0.0,0.0,0.0,0.0,0.0,0.0,0.0,0.0,0.0,0.0,0.0,0.0,0.0,0.0,0.0,0.0,0.0,0.0,0.0,0.0,0.0,0.0,0.0,0.0,0.0,0.0,0.0,0.0,0.0,0.0,0.0,0.0,0.0,0.0,0.0,0.0,0.0,0.0,0.0,0.0,0.0,0.0,0.0,0.0,0.0,0.0,0.0,0.0,0.0,0.0,0.0,0.0,0.0,0.0,0.0,0.0,0.0,0.0,0.0,0.0,0.0,0.0,0.0,0.0,0.0,0.0,0.0,0.0,0.0,0.0,0.0,0.0,0.0,0.0,0.0,0.0,0.0,0.0,0.0,0.0,0.0,0.0,0.0,0.0,0.0,0.0,0.0,0.0,0.0,0.0,0.0,0.0,0.0,0.0,0.0,0.0,0.0,0.0,0.0,0.0,0.0,0.0,0.0,0.0,0.0,0.0,0.0,0.0,0.0,0.0,0.0,0.0,0.0,0.0,0.0,0.0,0.0,0.0,0.0,0.0,0.0,0.0,0.0,0.0,0.0,0.0,0.0,0.0,0.0,0.0,0.0,0.0,0.0,0.0,0.0,0.0,0.0,0.0,0.0,0.0,0.0,0.0,0.0,0.0,0.0,0.0,0.0,0.0,0.0,0.0,0.0,0.0,0.0,0.0,0.0,0.0,0.0,0.0,0.0,0.0,0.0,0.0,0.0,0.0,0.0,0.0,0.0,0.0,0.0,0.0,0.0,0.0,0.0,0.0,0.0,0.0,0.0,0.0,0.0,0.0,0.0,0.0,0.0,0.0,0.0,0.0,0.0,0.0,0.0,0.0,0.0,0.0,0.0,0.0,0.0,0.0,0.0,0.0,0.0,0.0,0.0,0.0,0.0,0.0,0.0,0.0,0.0,0.0,0.0,0.0,0.0,0.0,0.0,0.0,0.0,0.0,0.0,0.0,0.0,0.0,0.0,0.0,0.0,0.0,0.0,0.0,0.0,0.0,0.0,0.0,0.0,0.0,0.0,0.0,0.0,0.0,0.0,0.0,0.0,0.0,0.0,0.0,0.0,0.0,0.0,0.0,0.0,0.0,0.0,0.0,0.0,0.0,0.0,0.0,0.0,0.0,0.0,0.0,0.0,0.0,0.0,0.0,0.0,0.0,0.0,0.0,0.0,0.0,0.0,0.0,0.0,0.0,0.0,0.0,0.0,0.0,0.0,0.0,0.0,0.0,0.0,0.0,0.0,0.0,0.0,0.0,0.0,0.0,0.0,0.0,0.0,0.0,0.0,0.0,0.0,0.0,0.0,0.0,0.0,0.0,0.0,0.0,0.0,0.0,0.0,0.0,0.0,0.0,0.0,0.0,0.0,0.0,0.0,0.0,0.0,0.0,0.0,0.0,0.0,0.0,0.0,0.0,0.0,0.0,0.0,0.0,0.0,0.0,0.0,0.0,0.0,0.0,0.0,0.0,0.0,0.0,0.0,0.0,0.0,0.0,0.0,0.0,0.0,0.0,0.0,0.0,0.0,0.0,0.0,0.0,0.0,0.0,0.0,0.0,0.0,0.0,0.0,0.0,0.0,0.0,0.0,0.0,0.0,0.0,0.0,0.0,0.0,0.0,0.0,0.0,0.0,0.0,0.0,0.0,0.0,0.0,0.0,0.0,0.0,0.0,0.0,0.0,0.0,0.0,0.0,0.0,0.0,0.0,0.0,0.0,0.0,0.0,0.0,0.0,0.0,0.0,0.0,0.0,0.0,0.0,0.0,0.0,0.0,0.0,0.0,0.0,0.0,0.0,0.0,0.0,0.0,0.0,0.0,0.0,0.0,0.0,0.0,0.0,0.0,0.0,0.0,0.0,0.0,0.0,0.0,0.0,0.0,0.0,0.0,0.0,0.0,0.0,0.0,0.0,0.0,0.0,0.0,0.0,0.0,0.0,0.0,0.0,0.0,0.0,0.0,0.0,0.0,0.0,0.0,0.0,0.0,0.0,0.0,0.0,0.0,0.0,0.0,0.0,0.0,0.0,0.0,0.0,0.0,0.0,0.0,0.0,0.0,0.0,0.0,0.0,0.0,0.0,0.0,0.0,0.0,0.0,0.0,0.0,0.0,0.0,0.0,0.0,0.0,0.0,0.0,0.0,0.0,0.0,0.0,0.0,0.0,0.0,0.0,0.0,0.0,0.0,0.0,0.0,0.0,0.0,0.0,0.0,0.0,0.0,0.0,0.0,0.0,0.0,0.0,0.0,0.0,0.0,0.0,0.0,0.0,0.0,0.0,0.0,0.0,0.0,0.0,0.0,0.0,0.0,0.0,0.0,0.0,0.0,0.0,0.0,0.0,0.0,0.0,0.0,0.0,0.0,0.0,0.0,0.0,0.0,0.0,0.0,0.0,0.0,0.0,0.0,0.0,0.0,0.0,0.0,0.0,0.0,0.0,0.0,0.0,0.0,0.0,0.0,0.0,0.0,0.0,0.0,0.0,0.0,0.0,0.0,0.0,0.0,0.0,0.0,0.0,0.0,0.0,0.0,0.0,0.0,0.0,0.0,0.0,0.0,0.0,0.0,0.0,0.0,0.0,0.0,0.0,0.0,0.0,0.0,0.0,0.0,0.0,0.0,0.0,0.0,0.0,0.0,0.0,0.0,0.0,0.0,0.0,0.0,0.0,0.0,0.0,0.0,0.0,0.0,0.0,0.0,0.0,0.0,0.0,0.0,0.0,0.0,0.0,0.0,0.0,0.0,0.0,0.0,0.0,0.0,0.0,0.0,0.0,0.0,0.0,0.0,0.0,0.0,0.0,0.0,0.0,0.0,0.0,0.0,0.0,0.0,0.0,0.0,0.0,0.0,0.0,0.0,0.0,0.0,0.0,0.0,0.0,0.0,0.0,0.0,0.0,0.0,0.0,0.0,0.0,0.0,0.0,0.0,0.0,0.0,0.0,0.0,0.0,0.0,0.0,0.0,0.0,0.0,0.0,0.0,0.0,0.0,0.0,0.0,0.0,0.0,0.0,0.0,0.0,0.0,0.0,0.0,0.0,0.0,0.0,0.0,0.0,0.0,0.0,0.0,0.0,0.0,0.0,0.0,0.0,0.0,0.0,0.0,0.0,0.0,0.0,0.0,0.0,0.0,0.0,0.0,0.0,0.0,0.0,0.0,0.0,0.0,0.0,0.0,0.0,0.0,0.0,0.0,0.0,0.0,0.0,0.0,0.0,0.0,0.0,0.0,0.0,0.0,0.0,0.0,0.0,0.0,0.0,0.0,0.0,0.0,0.0,0.0,0.0,0.0,0.0,0.0,0.0,0.0,0.0,0.0,0.0,0.0,0.0,0.0,0.0,0.0,0.0,0.0,0.0,0.0,0.0,0.0,0.0,0.0,0.0,0.0,0.0,0.0,0.0,0.0,0.0,0.0,0.0,0.0,0.0,0.0,0.0,0.0,0.0,0.0,0.0,0.0,0.0,0.0,0.0,0.0,0.0,0.0,0.0,0.0,0.0,0.0,0.0,0.0,0.0,0.0,0.0,0.0,0.0,0.0,0.0,0.0,0.0,0.0,0.0,0.0,0.0,0.0,0.0,0.0,0.0,0.0,0.0,0.0,0.0,0.0,0.0,0.0,0.0,0.0,0.0,0.0,0.0,0.0,0.0,0.0,0.0,0.0,0.0,0.0,0.0,0.0,0.0,0.0,0.0,0.0,0.0,0.0,0.0,0.0,0.0,0.0,0.0,0.0,0.0,0.0,0.0,0.0,0.0,0.0,0.0,0.0,0.0,0.0,0.0,0.0,0.0,0.0,0.0,0.0,0.0,0.0,0.0,0.0,0.0,0.0,0.0,0.0,0.0,0.0,0.0,0.0,0.0,0.0,0.0,0.0,0.0,0.0,0.0,0.0,0.0,0.0,0.0,0.0,0.0,0.0,0.0,0.0,0.0,0.0,0.0,0.0,0.0,0.0,0.0,0.0,0.0,0.0,0.0,0.0,0.0,0.0,0.0,0.0,0.0,0.0,0.0,0.0,0.0,0.0,0.0,0.0,0.0,0.0,0.0,0.0,0.0,0.0,0.0,0.0,0.0,0.0,0.0,0.0,0.0,0.0,0.0,0.0,0.0,0.0,0.0,0.0,0.0,0.0,0.0,0.0,0.0,0.0,0.0,0.0,0.0,0.0,0.0,0.0,0.0,0.0,0.0,0.0,0.0,0.0,0.0,0.0,0.0,0.0,0.0,0.0,0.0,1.0201,0.0,0.0,0.0,0.0,0.0,0.0,0.0,0.0,0.0,0.0,0.0,0.0,0.0,0.0,0.0,0.0,0.0,0.0,0.0,0.0,0.0,0.0,0.0,0.0,0.0,0.0,0.0,0.0,0.0,0.0,0.0,0.0,0.0,0.0,0.0,0.0,0.0,0.0,0.0,0.0,0.0,0.0,0.0,0.0,0.0,0.0,0.0,0.0,0.0,0.0,0.0,0.0,0.0,0.0,0.0,0.0,0.0,0.0,0.0,0.0,0.0,0.0,0.0,0.0,0.0,0.0,0.0,0.0,0.0,0.0,0.0,0.0,0.0,0.0,0.0,0.0,0.0,0.0,0.0,0.0,0.0,0.0,0.0,0.0,0.0,0.0,0.0,0.0,0.0,0.0,0.0,0.0,0.0,0.0,0.0,0.0,0.0,0.0,0.0,0.0,0.0,0.0,0.0,0.0,0.0,0.0,0.0,0.0,0.0,0.0,1.0153,1.0153,1.0194,1.0192,1.0194,0.0,0.0,0.0,0.0,0.0,0.0,0.0,0.0,0.0,0.0,0.0,0.0,0.0,0.0,0.0,0.0,0.0,0.0,0.0,0.0,0.0,0.0,0.0,0.0,0.0,0.0,0.0,0.0,0.0,0.0,0.0,0.0,0.0,0.0,0.0,0.0,0.0,0.0,0.0,0.0,0.0,0.0,0.0,0.0,0.0,0.0,0.0,0.0,0.0,0.0,0.0,0.0,0.0,0.0,0.0,0.0,0.0,0.0,0.0,0.0,0.0,0.0,0.0,0.0,0.0,0.0,0.0,0.0,0.0,0.0,0.0,0.0,0.0,0.0,0.0,0.0,0.0,0.0,0.0,0.0,0.0,0.0,0.0,0.0,0.0,0.0,0.0,0.0,0.0,0.0,0.0,0.0,0.0,0.0,0.0,0.0,0.0,0.0,0.0,0.0,0.0,0.0,0.0,0.0,0.0,0.0,0.0,0.0,0.0,0.0,0.0,0.0,1.0428,1.0468,1.0478,0.0,0.0,0.0,0.0,0.0,0.0,0.0,0.0,0.0,0.0,0.0,0.0,0.0,0.0,0.0,0.0,0.0,0.0,0.0,0.0,0.0,0.0,0.0,0.0,0.0,0.0,0.0,0.0,0.0,0.0,0.0,0.0,0.0,0.0,0.0,0.0,0.0,0.0,0.0,0.0,0.0,0.0,0.0,0.0,0.0,0.0,0.0,0.0,0.0,0.0,0.0,0.0,0.0,0.0,0.0,0.0,0.0,0.0,0.0,0.0,0.0,0.0,0.0,0.0,0.0,0.0,0.0,0.0,0.0,0.0,0.0,0.0,0.0,0.0,0.0,0.0,0.0,0.0,0.0,0.0,0.0,0.0,0.0,0.0,0.0,0.0,0.0,0.0,0.0,0.0,0.0,0.0,0.0,0.0,0.0,0.0,0.0,0.0,0.0,0.0,0.0,0.0,0.0,0.0,0.0,0.0,0.0,0.0,0.0,0.0,1.0463,1.1254,1.1278,0.0,1.1297,0.0,0.0,0.0,0.0,0.0,0.0,0.0,0.0,0.0,0.0,0.0,0.0,0.0,0.0,0.0,0.0,0.0,0.0,0.0,0.0,0.0,0.0,0.0,0.0,0.0,0.0,0.0,0.0,0.0,0.0,0.0,0.0,0.0,0.0,0.0,0.0,0.0,0.0,0.0,0.0,0.0,0.0,0.0,0.0,0.0,0.0,0.0,0.0,0.0,0.0,0.0,0.0,0.0,0.0,0.0,0.0,0.0,0.0,0.0,0.0,0.0,0.0,0.0,0.0,0.0,0.0,0.0,0.0,0.0,0.0,0.0,0.0,0.0,0.0,0.0,0.0,0.0,0.0,0.0,0.0,0.0,0.0,0.0,0.0,0.0,0.0,0.0,0.0,0.0,0.0,0.0,0.0,0.0,0.0,0.0,0.0,0.0,0.0,0.0,0.0,0.0,0.0,0.0,0.0,0.0,0.0,0.0,0.0,0.0,0.0,1.1042,1.1386,1.1406,1.1417,0.0,0.0,0.0,0.0,0.0,0.0,0.0,0.0,0.0,0.0,0.0,0.0,0.0,0.0,0.0,0.0,0.0,0.0,0.0,0.0,0.0,0.0,0.0,0.0,0.0,0.0,0.0,0.0,0.0,0.0,0.0,0.0,0.0,0.0,0.0,0.0,0.0,0.0,0.0,0.0,0.0,0.0,0.0,0.0,0.0,0.0,0.0,0.0,0.0,0.0,0.0,0.0,0.0,0.0,0.0,0.0,0.0,0.0,0.0,0.0,0.0,0.0,0.0,0.0,0.0,0.0,0.0,0.0,0.0,0.0,0.0,0.0,0.0,0.0,0.0,0.0,0.0,0.0,0.0,0.0,0.0,0.0,0.0,0.0,0.0,0.0,0.0,0.0,0.0,0.0,0.0,0.0,0.0,0.0,0.0,0.0,0.0,0.0,0.0,0.0,0.0,0.0,0.0,0.0,0.0,0.0,0.0,0.0,0.0,0.0,1.1194,1.151,1.1732,1.176,1.1652,1.1428,0.0,0.0,0.0,0.0,0.0,0.0,0.0,0.0,0.0,0.0,0.0,0.0,0.0,0.0,0.0,0.0,0.0,0.0,0.0,0.0,0.0,0.0,0.0,0.0,0.0,0.0,0.0,0.0,0.0,0.0,0.0,0.0,0.0,0.0,0.0,0.0,0.0,0.0,0.0,0.0,0.0,0.0,0.0,0.0,0.0,0.0,0.0,0.0,0.0,0.0,0.0,0.0,0.0,0.0,0.0,0.0,0.0,0.0,0.0,0.0,0.0,0.0,0.0,0.0,0.0,0.0,0.0,0.0,0.0,0.0,0.0,0.0,0.0,0.0,0.0,0.0,0.0,0.0,0.0,0.0,0.0,0.0,0.0,0.0,0.0,0.0,0.0,0.0,0.0,0.0,0.0,0.0,0.0,0.0,0.0,0.0,0.0,0.0,0.0,0.0,0.0,0.0,0.0,0.0,0.0,0.0,0.0,0.0,1.243,1.1794,1.1796,1.2606,1.2643,1.2275,0.0,0.0,0.0,0.0,0.0,0.0,0.0,0.0,0.0,0.0,0.0,0.0,0.0,0.0,0.0,0.0,0.0,0.0,0.0,0.0,0.0,0.0,0.0,0.0,0.0,0.0,0.0,0.0,0.0,0.0,0.0,0.0,0.0,0.0,0.0,0.0,0.0,0.0,0.0,0.0,0.0,0.0,0.0,0.0,0.0,0.0,0.0,0.0,0.0,0.0,0.0,0.0,0.0,0.0,0.0,0.0,0.0,0.0,0.0,0.0,0.0,0.0,0.0,0.0,0.0,0.0,0.0,0.0,0.0,0.0,0.0,0.0,0.0,0.0,0.0,0.0,0.0,0.0,0.0,0.0,0.0,0.0,0.0,0.0,0.0,0.0,0.0,0.0,0.0,0.0,0.0,0.0,0.0,0.0,0.0,0.0,0.0,0.0,0.0,0.0,0.0,0.0,0.0,0.0,0.0,0.0,0.0,0.0,0.0,1.1004,1.1252,1.2085,1.3416,1.2461,1.1728,0.0,0.0,0.0,0.0,0.0,0.0,0.0,0.0,0.0,0.0,0.0,0.0,0.0,0.0,0.0,0.0,0.0,0.0,0.0,0.0,0.0,0.0,0.0,0.0,0.0,0.0,0.0,0.0,0.0,0.0,0.0,0.0,0.0,0.0,0.0,0.0,0.0,0.0,0.0,0.0,0.0,0.0,0.0,0.0,0.0,0.0,0.0,0.0,0.0,0.0,0.0,0.0,0.0,0.0,0.0,0.0,0.0,0.0,0.0,0.0,0.0,0.0,0.0,0.0,0.0,0.0,0.0,0.0,0.0,0.0,0.0,0.0,0.0,0.0,0.0,0.0,0.0,0.0,0.0,0.0,0.0,0.0,0.0,0.0,0.0,0.0,0.0,0.0,0.0,0.0,0.0,0.0,0.0,0.0,0.0,0.0,0.0,0.0,0.0,0.0,0.0,0.0,0.0,0.0,0.0,0.0,0.0,0.0,0.0,1.0945,0.0,1.264,1.3474,1.2441,1.1443,0.0,0.0,0.0,0.0,0.0,0.0,0.0,0.0,0.0,0.0,0.0,0.0,0.0,0.0,0.0,0.0,0.0,0.0,0.0,0.0,0.0,0.0,0.0,0.0,0.0,0.0,0.0,0.0,0.0,0.0,0.0,0.0,0.0,0.0,0.0,0.0,0.0,0.0,0.0,0.0,0.0,0.0,0.0,0.0,0.0,0.0,0.0,0.0,0.0,0.0,0.0,0.0,0.0,0.0,0.0,0.0,0.0,0.0,0.0,0.0,0.0,0.0,0.0,0.0,0.0,0.0,0.0,0.0,0.0,0.0,0.0,0.0,0.0,0.0,0.0,0.0,0.0,0.0,0.0,0.0,0.0,0.0,0.0,0.0,0.0,0.0,0.0,0.0,0.0,0.0,0.0,0.0,0.0,0.0,0.0,0.0,0.0,0.0,0.0,0.0,0.0,0.0,0.0,0.0,0.0,0.0,0.0,0.0,1.0967,1.2588,1.3385,1.3464,1.2781,1.2702,1.1517,0.0,0.0,0.0,0.0,0.0,0.0,0.0,0.0,0.0,0.0,0.0,0.0,0.0,0.0,0.0,0.0,0.0,0.0,0.0,0.0,0.0,0.0,0.0,0.0,0.0,0.0,0.0,0.0,0.0,0.0,0.0,0.0,0.0,0.0,0.0,0.0,0.0,0.0,0.0,0.0,0.0,0.0,0.0,0.0,0.0,0.0,0.0,0.0,0.0,0.0,0.0,0.0,0.0,0.0,0.0,0.0,0.0,0.0,0.0,0.0,0.0,0.0,0.0,0.0,0.0,0.0,0.0,0.0,0.0,0.0,0.0,0.0,0.0,0.0,0.0,0.0,0.0,0.0,0.0,0.0,0.0,0.0,0.0,0.0,0.0,0.0,0.0,0.0,0.0,0.0,0.0,0.0,0.0,0.0,0.0,0.0,0.0,0.0,0.0,0.0,0.0,0.0,0.0,0.0,0.0,0.0,0.0,0.0,0.0,1.1884,1.2675,1.351,1.4324,1.271,1.1732,0.0,0.0,0.0,0.0,0.0,0.0,0.0,0.0,0.0,0.0,0.0,0.0,0.0,0.0,0.0,0.0,0.0,0.0,0.0,0.0,0.0,0.0,0.0,0.0,0.0,0.0,0.0,0.0,0.0,0.0,0.0,0.0,0.0,0.0,0.0,0.0,0.0,0.0,0.0,0.0,0.0,0.0,0.0,0.0,0.0,0.0,0.0,0.0,0.0,0.0,0.0,0.0,0.0,0.0,0.0,0.0,0.0,0.0,0.0,0.0,0.0,0.0,0.0,0.0,0.0,0.0,0.0,0.0,0.0,0.0,0.0,0.0,0.0,0.0,0.0,0.0,0.0,0.0,0.0,0.0,0.0,0.0,0.0,0.0,0.0,0.0,0.0,0.0,0.0,0.0,0.0,0.0,0.0,0.0,0.0,0.0,0.0,0.0,0.0,0.0,0.0,0.0,0.0,0.0,0.0,0.0,0.0,0.0,0.0,1.2915,1.3683,1.4464,1.5186,1.3332,1.2137,1.1752,0.0,0.0,0.0,0.0,0.0,0.0,0.0,0.0,0.0,0.0,0.0,0.0,0.0,0.0,0.0,0.0,0.0,0.0,0.0,0.0,0.0,0.0,0.0,0.0,0.0,0.0,0.0,0.0,0.0,0.0,0.0,0.0,0.0,0.0,0.0,0.0,0.0,0.0,0.0,0.0,0.0,0.0,0.0,0.0,0.0,0.0,0.0,0.0,0.0,0.0,0.0,0.0,0.0,0.0,0.0,0.0,0.0,0.0,0.0,0.0,0.0,0.0,0.0,0.0,0.0,0.0,0.0,0.0,0.0,0.0,0.0,0.0,0.0,0.0,0.0,0.0,0.0,0.0,0.0,0.0,0.0,0.0,0.0,0.0,0.0,0.0,0.0,0.0,0.0,0.0,0.0,0.0,0.0,0.0,0.0,0.0,0.0,0.0,0.0,0.0,0.0,0.0,0.0,0.0,0.0,0.0,0.0,0.0,1.5265,1.6203,1.6309,1.5482,1.4422,1.2834,0.0,0.0,0.0,0.0,0.0,0.0,0.0,0.0,0.0,0.0,0.0,0.0,0.0,0.0,0.0,0.0,0.0,0.0,0.0,0.0,0.0,0.0,0.0,0.0,0.0,0.0,0.0,0.0,0.0,0.0,0.0,0.0,0.0,0.0,0.0,0.0,0.0,0.0,0.0,0.0,0.0,0.0,0.0,0.0,0.0,0.0,0.0,0.0,0.0,0.0,0.0,0.0,0.0,0.0,0.0,0.0,0.0,0.0,0.0,0.0,0.0,0.0,0.0,0.0,0.0,0.0,0.0,0.0,0.0,0.0,0.0,0.0,0.0,0.0,0.0,0.0,0.0,0.0,0.0,0.0,0.0,0.0,0.0,0.0,0.0,0.0,0.0,0.0,0.0,0.0,0.0,0.0,0.0,0.0,0.0,0.0,0.0,0.0,0.0,0.0,0.0,0.0,0.0,0.0,0.0,0.0,0.0,0.0,0.0,1.616,1.822,1.8904,1.7977,1.5342,1.3902,0.0,0.0,0.0,0.0,0.0,0.0,0.0,0.0,0.0,0.0,0.0,0.0,0.0,0.0,0.0,0.0,0.0,0.0,0.0,0.0,0.0,0.0,0.0,0.0,0.0,0.0,0.0,0.0,0.0,0.0,0.0,0.0,0.0,0.0,0.0,0.0,0.0,0.0,0.0,0.0,0.0,0.0,0.0,0.0,0.0,0.0,0.0,0.0,0.0,0.0,0.0,0.0,0.0,0.0,0.0,0.0,0.0,0.0,0.0,0.0,0.0,0.0,0.0,0.0,0.0,0.0,0.0,0.0,0.0,0.0,0.0,0.0,0.0,0.0,0.0,0.0,0.0,0.0,0.0,0.0,0.0,0.0,0.0,0.0,0.0,0.0,0.0,0.0,0.0,0.0,0.0,0.0,0.0,0.0,0.0,0.0,0.0,0.0,0.0,0.0,0.0,0.0,0.0,0.0,0.0,0.0,0.0,0.0,1.5495,1.7508,1.9677,2.0558,2.0075,1.7458,1.5592,0.0,0.0,0.0,0.0,0.0,0.0,0.0,0.0,0.0,0.0,0.0,0.0,0.0,0.0,0.0,0.0,0.0,0.0,0.0,0.0,0.0,0.0,0.0,0.0,0.0,0.0,0.0,0.0,0.0,0.0,0.0,0.0,0.0,0.0,0.0,0.0,0.0,0.0,0.0,0.0,0.0,0.0,0.0,0.0,0.0,0.0,0.0,0.0,0.0,0.0,0.0,0.0,0.0,0.0,0.0,0.0,0.0,0.0,0.0,0.0,0.0,0.0,0.0,0.0,0.0,0.0,0.0,0.0,0.0,0.0,0.0,0.0,0.0,0.0,0.0,0.0,0.0,0.0,0.0,0.0,0.0,0.0,0.0,0.0,0.0,0.0,0.0,0.0,0.0,0.0,0.0,0.0,0.0,0.0,0.0,0.0,0.0,0.0,0.0,0.0,0.0,0.0,0.0,0.0,0.0,0.0,0.0,0.0,1.666,1.9088,2.0852,2.1733,2.1581,1.9921,1.7439,0.0,0.0,0.0,0.0,0.0,0.0,0.0,0.0,0.0,0.0,0.0,0.0,0.0,0.0,0.0,0.0,0.0,0.0,0.0,0.0,0.0,0.0,0.0,0.0,0.0,0.0,0.0,0.0,0.0,0.0,0.0,0.0,0.0,0.0,0.0,0.0,0.0,0.0,0.0,0.0,0.0,0.0,0.0,0.0,0.0,0.0,0.0,0.0,0.0,0.0,0.0,0.0,0.0,0.0,0.0,0.0,0.0,0.0,0.0,0.0,0.0,0.0,0.0,0.0,0.0,0.0,0.0,0.0,0.0,0.0,0.0,0.0,0.0,0.0,0.0,0.0,0.0,0.0,0.0,0.0,0.0,0.0,0.0,0.0,0.0,0.0,0.0,0.0,0.0,0.0,0.0,0.0,0.0,0.0,0.0,0.0,0.0,0.0,0.0,0.0,0.0,0.0,0.0,0.0,0.0,0.0,0.0,0.0,1.81,2.0002,2.2336,2.322,2.2526,2.0239,1.7715,0.0,0.0,0.0,0.0,0.0,0.0,0.0,0.0,0.0,0.0,0.0,0.0,0.0,0.0,0.0,0.0,0.0,0.0,0.0,0.0,0.0,0.0,0.0,0.0,0.0,0.0,0.0,0.0,0.0,0.0,0.0,0.0,0.0,0.0,0.0,0.0,0.0,0.0,0.0,0.0,0.0,0.0,0.0,0.0,0.0,0.0,0.0,0.0,1.1988,0.0,0.0,0.0,0.0,0.0,0.0,0.0,0.0,0.0,0.0,0.0,0.0,0.0,0.0,0.0,0.0,0.0,0.0,0.0,0.0,0.0,0.0,0.0,0.0,0.0,0.0,0.0,0.0,0.0,0.0,0.0,0.0,0.0,0.0,0.0,0.0,0.0,0.0,0.0,0.0,0.0,0.0,0.0,0.0,0.0,0.0,0.0,0.0,0.0,0.0,0.0,0.0,0.0,0.0,0.0,0.0,0.0,0.0,0.0,1.8734,2.0848,2.299,2.3684,2.2795,2.1491,1.9025,0.0,0.0,0.0,0.0,0.0,0.0,0.0,0.0,0.0,0.0,0.0,0.0,0.0,0.0,0.0,0.0,0.0,0.0,0.0,0.0,0.0,0.0,0.0,0.0,0.0,0.0,0.0,0.0,0.0,0.0,0.0,0.0,0.0,0.0,0.0,0.0,0.0,0.0,0.0,0.0,0.0,0.0,0.0,0.0,0.0,0.0,0.0,0.0,0.0,0.0,0.0,0.0,0.0,0.0,0.0,0.0,0.0,0.0,0.0,0.0,0.0,0.0,0.0,0.0,0.0,0.0,0.0,0.0,0.0,0.0,0.0,0.0,0.0,0.0,0.0,0.0,0.0,0.0,0.0,0.0,0.0,0.0,0.0,0.0,0.0,0.0,0.0,0.0,0.0,0.0,0.0,0.0,0.0,0.0,0.0,0.0,0.0,0.0,0.0,0.0,0.0,0.0,0.0,0.0,0.0,0.0,0.0,1.6543,1.9005,2.162,2.3259,2.3687,2.2836,2.2797,2.041,1.5444,0.0,0.0,0.0,0.0,0.0,0.0,0.0,0.0,0.0,0.0,0.0,0.0,0.0,0.0,0.0,0.0,0.0,0.0,0.0,0.0,0.0,0.0,0.0,0.0,0.0,0.0,0.0,0.0,0.0,0.0,0.0,0.0,0.0,0.0,0.0,0.0,0.0,0.0,1.0446,1.2857,0.0,0.0,0.0,0.0,0.0,0.0,0.0,0.0,1.4148,0.0,0.0,0.0,0.0,0.0,0.0,0.0,0.0,0.0,0.0,0.0,0.0,0.0,0.0,0.0,0.0,0.0,0.0,0.0,0.0,0.0,0.0,0.0,0.0,0.0,0.0,0.0,0.0,0.0,0.0,0.0,0.0,0.0,0.0,0.0,0.0,0.0,0.0,0.0,0.0,0.0,0.0,0.0,0.0,0.0,0.0,0.0,0.0,0.0,0.0,0.0,0.0,0.0,0.0,0.0,0.0,1.6021,1.7159,1.9298,2.2507,2.3567,2.3687,2.2834,2.2797,2.0408,1.5559,0.0,0.0,0.0,0.0,0.0,0.0,0.0,0.0,0.0,0.0,0.0,0.0,0.0,0.0,0.0,0.0,0.0,0.0,0.0,0.0,0.0,0.0,0.0,0.0,0.0,0.0,0.0,0.0,0.0,0.0,0.0,0.0,0.0,0.0,0.0,0.0,0.0,0.0,0.0,1.6007,1.7882,0.0,0.0,0.0,0.0,0.0,0.0,0.0,0.0,1.463,0.0,0.0,0.0,0.0,0.0,0.0,0.0,0.0,0.0,0.0,0.0,0.0,0.0,0.0,0.0,0.0,0.0,0.0,0.0,0.0,0.0,0.0,0.0,0.0,0.0,0.0,0.0,0.0,0.0,0.0,0.0,0.0,0.0,0.0,0.0,0.0,0.0,0.0,0.0,0.0,0.0,0.0,0.0,0.0,0.0,0.0,0.0,0.0,0.0,0.0,0.0,0.0,0.0,0.0,0.0,1.5772,1.7502,1.9596,2.2043,2.297,2.3028,2.2141,2.1291,1.9077,0.0,0.0,0.0,0.0,0.0,0.0,0.0,0.0,0.0,0.0,0.0,0.0,0.0,0.0,0.0,0.0,0.0,0.0,0.0,0.0,0.0,0.0,0.0,0.0,0.0,0.0,0.0,0.0,0.0,0.0,0.0,0.0,0.0,0.0,0.0,0.0,0.0,0.0,0.0,0.0,1.6835,1.8506,1.9529,0.0,0.0,0.0,0.0,0.0,0.0,1.6639,1.5654,0.0,0.0,0.0,0.0,0.0,0.0,0.0,0.0,0.0,0.0,0.0,0.0,0.0,0.0,0.0,0.0,0.0,0.0,0.0,0.0,0.0,0.0,0.0,0.0,0.0,0.0,0.0,0.0,0.0,0.0,0.0,0.0,0.0,0.0,0.0,0.0,0.0,0.0,0.0,0.0,0.0,0.0,0.0,0.0,0.0,0.0,0.0,0.0,0.0,0.0,0.0,0.0,0.0,0.0,0.0,1.5192,1.7364,1.946,2.1406,2.2179,2.2197,2.15,2.0035,1.7998,0.0,0.0,0.0,0.0,0.0,0.0,0.0,0.0,0.0,0.0,0.0,0.0,0.0,0.0,0.0,0.0,0.0,0.0,0.0,0.0,0.0,0.0,0.0,0.0,0.0,0.0,0.0,0.0,0.0,0.0,0.0,0.0,0.0,0.0,0.0,0.0,0.0,0.0,0.0,0.0,0.0,1.9357,2.1184,2.0473,0.0,0.0,0.0,0.0,1.9648,1.8488,0.0,0.0,0.0,0.0,0.0,0.0,0.0,0.0,0.0,0.0,0.0,0.0,0.0,0.0,0.0,0.0,0.0,0.0,0.0,0.0,0.0,0.0,0.0,0.0,0.0,0.0,0.0,0.0,0.0,0.0,0.0,0.0,0.0,0.0,0.0,0.0,0.0,0.0,0.0,0.0,0.0,0.0,0.0,0.0,0.0,0.0,0.0,0.0,0.0,0.0,0.0,0.0,0.0,0.0,0.0,0.0,1.5114,1.6252,1.8311,2.1327,2.1581,2.1598,2.15,2.0615,1.8596,0.0,0.0,0.0,0.0,0.0,0.0,0.0,0.0,0.0,0.0,0.0,0.0,0.0,0.0,0.0,0.0,0.0,0.0,0.0,0.0,0.0,0.0,0.0,0.0,0.0,0.0,0.0,0.0,0.0,0.0,0.0,0.0,0.0,0.0,0.0,0.0,0.0,0.0,0.0,0.0,0.0,2.2639,2.1477,2.1906,2.2105,0.0,0.0,2.1352,2.222,2.1545,0.0,0.0,0.0,0.0,0.0,0.0,0.0,0.0,0.0,0.0,0.0,0.0,0.0,0.0,0.0,0.0,0.0,0.0,0.0,0.0,0.0,0.0,0.0,0.0,0.0,0.0,0.0,0.0,0.0,0.0,0.0,0.0,0.0,0.0,0.0,0.0,0.0,0.0,0.0,0.0,0.0,0.0,0.0,0.0,0.0,0.0,0.0,0.0,0.0,0.0,0.0,0.0,0.0,0.0,0.0,1.3161,1.5161,1.652,1.8381,2.0696,2.0818,2.0818,2.0811,1.9071,1.7215,0.0,0.0,0.0,0.0,0.0,0.0,0.0,0.0,0.0,0.0,0.0,0.0,0.0,0.0,0.0,0.0,0.0,0.0,0.0,0.0,0.0,0.0,0.0,0.0,0.0,0.0,0.0,0.0,0.0,0.0,0.0,0.0,0.0,0.0,0.0,0.0,0.0,0.0,0.0,0.0,0.0,0.0,2.3462,2.3554,0.0,0.0,0.0,2.3618,2.355,0.0,0.0,0.0,0.0,0.0,0.0,0.0,0.0,0.0,0.0,0.0,0.0,0.0,0.0,0.0,0.0,0.0,0.0,0.0,0.0,0.0,0.0,0.0,0.0,0.0,0.0,0.0,0.0,0.0,0.0,0.0,0.0,0.0,0.0,0.0,0.0,0.0,0.0,0.0,0.0,0.0,0.0,0.0,0.0,0.0,0.0,0.0,0.0,0.0,0.0,0.0,0.0,0.0,0.0,0.0,0.0,0.0,1.5225,1.7108,1.8801,2.0258,2.032,2.0318,2.0276,1.8065,0.0,0.0,0.0,0.0,0.0,0.0,0.0,0.0,0.0,0.0,0.0,0.0,0.0,0.0,0.0,0.0,0.0,0.0,0.0,0.0,0.0,0.0,0.0,0.0,0.0,0.0,0.0,0.8759,0.0,0.0,0.0,0.0,0.0,0.0,0.0,0.0,0.0,0.0,0.0,0.0,0.0,0.0,2.2783,2.4953,2.5144,2.505,0.0,0.0,2.5676,2.4856,2.4721,2.4012,0.0,0.0,0.0,0.0,0.0,0.0,0.0,0.0,0.0,0.0,0.0,0.0,0.0,0.0,0.0,0.0,0.0,0.0,0.0,0.0,0.0,0.0,0.0,0.0,0.0,0.0,0.0,0.0,0.0,0.0,0.0,0.0,0.0,0.0,0.0,0.0,0.0,0.0,0.0,0.0,0.0,0.0,0.0,0.0,0.0,0.0,0.0,0.0,0.0,0.0,0.0,0.0,0.0,0.0,1.444,1.535,1.7801,1.949,2.0346,2.0381,2.0381,2.0364,1.8728,1.7019,0.0,0.0,0.0,0.0,0.0,0.0,0.0,0.0,0.0,0.0,0.0,0.0,0.0,0.0,0.0,0.0,0.0,0.0,0.0,0.0,0.0,0.0,0.0,0.0,0.0,0.0,0.0,0.0,0.0,0.0,0.0,0.0,0.0,0.0,0.0,0.0,0.0,0.0,0.0,0.0,0.0,2.3995,2.4984,2.656,2.7643,0.0,2.7681,2.7428,2.6582,2.6428,2.531,2.2043,0.0,0.0,0.0,0.0,0.0,0.0,0.0,0.0,0.0,0.0,0.0,0.0,0.0,0.0,0.0,0.0,0.0,0.0,0.0,0.0,0.0,0.0,0.0,0.0,0.0,0.0,0.0,0.0,0.0,0.0,0.0,0.0,0.0,0.0,0.0,0.0,0.0,0.0,0.0,0.0,0.0,0.0,0.0,0.0,0.0,0.0,0.0,0.0,0.0,0.0,0.0,0.0,0.0,1.4502,1.5374,1.7893,1.9612,2.041,2.0426,2.0424,2.047,1.9319,1.7868,0.0,0.0,0.0,0.0,0.0,0.0,0.0,0.0,0.0,0.0,0.0,0.0,0.0,0.0,0.0,0.0,0.0,0.0,0.0,0.0,0.0,0.0,0.0,0.0,0.0,0.0,0.0,0.0,0.9788,1.0114,1.0522,0.0,0.0,0.0,0.0,0.0,0.0,0.0,0.0,0.0,0.0,2.523,2.662,2.7443,0.0,0.0,2.8316,2.8527,2.8203,2.7717,2.6777,2.4925,2.3526,0.0,0.0,0.0,0.0,0.0,0.0,0.0,0.0,0.0,0.0,0.0,0.0,0.0,0.0,0.0,0.0,0.0,0.0,0.0,0.0,0.0,0.0,0.0,0.0,0.0,0.0,0.0,0.0,0.0,0.0,0.0,0.0,0.0,0.0,0.0,0.0,0.0,0.0,0.0,0.0,0.0,0.0,0.0,0.0,0.0,0.0,0.0,0.0,0.0,0.0,0.0,0.0,1.4912,1.5808,1.857,2.0426,2.1299,2.1009,2.0872,2.0888,1.9841,1.8513,0.0,0.0,0.0,0.0,0.0,0.0,0.0,0.0,0.0,0.0,0.0,0.0,0.0,0.0,0.0,0.0,0.0,0.0,0.0,0.0,0.0,0.0,0.0,0.0,0.0,0.0,0.0,0.0,1.0254,1.0345,1.0129,0.0,0.0,0.0,0.0,0.0,0.0,0.0,0.0,0.0,0.0,2.6599,2.8047,2.8486,2.8643,2.8659,2.8912,2.9028,2.8778,2.847,2.7777,2.6426,0.0,0.0,0.0,0.0,0.0,0.0,0.0,0.0,0.0,0.0,0.0,0.0,0.0,0.0,0.0,0.0,0.0,0.0,0.0,0.0,0.0,0.0,0.0,0.0,0.0,0.0,0.0,1.0213,0.0,0.0,1.0192,0.0,0.0,0.0,0.0,0.0,0.0,0.0,0.0,0.0,0.0,0.0,0.0,0.0,0.0,0.0,0.0,0.0,0.0,0.0,0.0,0.0,0.0,1.5781,1.6719,2.0039,2.2227,2.3047,2.2305,2.1875,2.1836,2.0195,1.8886,1.7963,0.0,0.0,0.0,0.0,0.0,0.0,0.0,0.0,0.0,0.0,0.0,0.0,0.0,0.0,0.0,0.0,0.0,0.0,0.0,0.0,0.0,0.0,0.0,0.0,0.0,0.0,1.0165,1.0846,1.1018,0.0,0.0,0.0,0.0,0.0,0.0,0.0,0.0,0.0,2.374,2.6241,2.8145,2.8973,2.9791,3.033,3.0327,2.966,2.8896,2.8184,2.8604,2.822,0.0,0.0,0.0,0.0,0.0,0.0,0.0,0.0,0.0,0.0,0.0,0.0,0.0,0.0,0.0,0.0,0.0,0.0,0.0,0.0,0.0,0.0,0.0,0.0,0.0,0.0,0.0,1.3338,1.2828,0.0,0.0,0.0,0.0,0.0,0.0,0.0,0.0,0.0,0.0,0.0,1.7165,1.7712,0.0,0.0,0.0,0.0,0.0,0.0,0.0,0.0,0.0,0.0,0.0,0.0,1.6113,1.7617,2.043,2.2305,2.3105,2.2852,2.2715,2.2754,2.1641,2.0078,1.8043,0.0,0.0,0.0,0.0,0.0,0.0,0.0,0.0,0.0,0.0,0.0,0.0,0.0,0.0,0.0,0.0,0.0,0.0,0.0,0.0,0.0,0.0,0.0,0.0,0.0,1.0384,0.0,0.0,0.0,0.0,0.0,0.0,0.0,0.0,0.0,0.0,2.2697,2.3776,2.6299,2.7816,2.8989,2.9849,3.0692,3.1269,0.0,0.0,0.0,0.0,0.0,0.0,0.0,0.0,0.0,0.0,0.0,0.0,0.0,0.0,3.1945,2.6327,2.4846,2.4656,2.5216,0.0,0.0,0.0,0.0,0.0,0.0,0.0,0.0,0.0,0.0,0.0,0.0,0.0,0.0,1.5628,1.5372,1.5081,0.0,0.0,0.0,0.0,0.0,0.0,0.0,0.0,1.9254,2.0057,1.9844,2.0391,2.0352,1.9785,1.9512,1.8066,0.0,0.0,0.0,0.0,0.0,0.0,0.0,0.0,1.7148,1.8926,2.1445,2.3164,2.3945,2.3691,2.3594,2.3594,2.2519,2.0937,1.8919,1.7172,1.5462,0.0,0.0,0.0,0.0,0.0,0.0,0.0,0.0,0.0,0.0,0.0,0.0,0.0,0.0,0.0,0.0,0.0,0.0,0.0,0.0,0.0,0.0,0.0,1.0655,0.0,0.0,0.0,0.0,0.0,0.0,0.0,0.0,0.0,2.5036,2.5661,2.6683,2.8931,2.9682,3.0314,3.1157,0.0,0.0,0.0,0.0,0.0,0.0,0.0,3.1605,3.2432,3.2122,3.1929,3.2468,3.4676,3.6177,3.5596,0.0,0.0,3.0734,2.9247,2.9016,2.9577,2.9932,3.0259,3.0762,3.1564,3.2346,0.0,0.0,0.0,0.0,1.5554,0.0,0.0,0.0,1.6797,1.7223,0.0,1.7088,0.0,0.0,0.0,0.0,1.5637,1.877,0.0,0.0,2.3039,2.3914,2.3261,2.3242,2.3223,2.3223,2.3906,2.3008,2.0566,1.7305,0.0,0.0,0.0,0.0,0.0,0.0,1.8926,2.0684,2.3086,2.4805,2.5605,2.4863,2.4434,2.4355,2.2832,2.1542,2.0537,1.8939,1.7256,1.5434,1.3001,0.0,0.0,0.0,0.0,0.0,0.0,0.0,0.0,0.0,0.0,0.0,0.0,0.0,0.0,0.0,0.0,0.0,0.0,0.0,0.0,1.1637,0.0,0.0,0.0,0.0,0.0,0.0,0.0,0.0,0.0,2.6228,2.8577,2.9025,2.9797,3.1484,0.0,0.0,0.0,0.0,3.2122,3.2929,3.3064,3.3122,3.3122,3.4426,3.5154,3.4452,0.0,0.0,3.4683,3.6434,3.7581,3.6003,3.7119,3.8084,3.7988,3.6369,3.5369,3.5365,3.4718,3.4337,3.4414,3.5045,3.5677,2.0366,0.0,0.0,0.0,0.0,1.8505,1.9742,2.1947,2.1379,2.0923,2.0567,2.0334,0.0,0.0,0.0,0.0,0.0,0.0,2.1073,2.2321,2.3637,2.4429,2.4852,2.4833,2.4833,2.4793,2.4441,2.3894,2.3131,2.1602,1.8858,1.5117,0.0,0.0,0.0,0.0,2.0723,2.2422,2.375,2.4824,2.5684,2.5469,2.5039,2.4434,2.3926,2.2988,2.1542,2.0429,1.9062,1.7282,1.5346,0.0,0.0,0.0,0.0,0.0,0.0,0.0,0.0,0.0,0.0,0.0,0.0,0.0,0.0,0.0,0.0,0.0,0.0,0.0,1.241,1.3445,1.4464,0.0,0.0,0.0,0.0,0.0,0.0,0.0,0.0,0.0,3.2102,3.1641,3.1352,0.0,0.0,3.2856,3.3725,3.4138,3.4696,3.55,3.6142,0.0,3.6546,3.5946,3.5811,3.6738,3.7838,3.8569,3.8684,3.9304,3.9627,3.9127,3.9454,3.9973,4.045,3.8831,3.7407,3.7254,3.7065,3.7142,3.7745,3.8492,3.9238,2.3242,2.1284,2.0176,2.0328,2.1261,2.1136,2.2255,2.415,2.3639,2.3319,2.3093,2.2787,2.1595,1.9767,1.94,0.0,0.0,0.0,2.2612,2.3975,2.4448,2.4975,2.549,2.551,2.551,2.5491,2.4981,2.4707,2.4707,2.4236,2.2118,1.8533,0.0,1.9219,1.875,2.0607,2.2234,2.3589,2.4449,2.5154,2.5684,2.5703,2.543,2.4941,2.459,2.3926,2.293,2.1738,2.0469,1.9062,1.7363,1.5194,0.0,0.0,0.0,0.0,0.0,0.0,0.0,0.0,0.0,0.0,0.0,1.183,1.1614,0.0,0.0,0.0,1.3503,1.558,1.5235,1.6407,0.0,0.0,0.0,0.0,0.0,0.0,0.0,2.7753,2.9753,3.1872,3.4372,3.443,3.4372,3.4853,3.4619,3.4715,3.5587,0.0,3.6269,3.71,3.795,3.853,3.8507,3.795,3.7834,3.8815,3.9396,3.9896,4.0381,4.0492,4.0627,4.0916,4.1012,4.1277,4.2139,4.1027,4.0008,4.0008,4.0027,4.02,4.0723,4.12,4.17,2.5174,2.505,2.3704,2.308,2.3086,2.3932,2.4302,2.43,2.4379,2.4815,2.5462,2.4719,2.3954,2.3161,2.237,0.0,2.3237,2.4033,2.4827,2.5594,2.5611,2.5597,2.559,2.559,2.5552,2.5473,2.5475,2.5476,2.5473,2.5473,2.4709,2.3198,2.2374,2.1927,2.1843,2.2727,2.3598,2.4384,2.519,2.5634,2.5703,2.5703,2.5703,2.5684,2.4863,2.4375,2.4258,2.2734,2.1504,2.0605,1.9004,1.7402,1.584,0.0,0.0,0.0,0.0,0.0,0.0,0.0,0.0,0.0,0.0,0.0,0.0,0.0,0.0,1.0152,1.6423,0.0,1.9285,1.9998,0.0,0.0,0.0,2.2737,2.4608,2.6854,2.8948,3.0615,0.0,0.0,3.5808,3.7138,3.8123,3.82,3.7392,3.7119,3.7988,3.7388,3.7215,3.8123,3.8877,3.9377,3.9419,3.9842,4.0223,4.0319,4.0573,4.0612,4.0666,4.0781,4.1066,4.1754,4.1908,4.2177,4.3047,4.3085,4.3205,4.3186,4.3066,4.2989,4.2931,4.3008,4.3124,2.6669,2.6654,2.6291,2.5587,2.4788,2.5642,2.6005,2.6065,2.6703,2.7104,2.7277,2.7068,2.6876,2.6664,2.6469,2.6488,2.6683,2.6912,2.7103,2.7301,2.7306,2.6971,2.636,2.6341,2.5976,2.5378,2.5337,2.5357,2.5337,2.5337,2.5142,2.4746,2.4544,2.3863,2.28,2.4158,2.5009,2.52,2.547,2.5633,2.5703,2.5703,2.5703,2.5703,2.4863,2.4082,2.3418,2.2441,2.1504,2.0625,1.957,1.9102,1.9316,1.5643,0.0,0.0,0.0,0.0,0.0,0.0,0.0,0.0,0.0,1.6479,1.407,0.0,1.6652,0.0,1.7465,2.185,2.0981,2.1699,0.0,0.0,2.6373,2.7566,3.049,3.1333,3.2372,3.4077,3.5538,3.6907,3.8219,3.8761,3.9223,3.9781,3.8623,3.8007,3.8838,3.8815,3.8973,3.9704,4.0015,4.0208,4.0192,4.0362,4.05,4.0492,4.105,4.1489,4.1489,4.2066,4.2566,4.2758,4.2777,4.3104,4.3874,4.4008,4.4282,4.4744,4.4013,4.3085,4.3104,4.3585,4.4008,2.7069,2.7078,2.7167,2.6794,2.6178,2.6748,2.6991,2.7035,2.7629,2.789,2.789,2.789,2.789,2.789,2.789,2.789,2.789,2.789,2.7832,2.7731,2.7841,2.7566,2.7013,2.7108,2.6928,2.6464,2.6079,2.5885,2.5849,2.5498,2.5308,2.5308,2.5308,2.4863,2.4096,2.4948,2.5423,2.5464,2.551,2.5595,2.5658,2.5659,2.5486,2.5137,2.5019,2.4394,2.3144,2.2676,2.1875,2.0664,2.0137,2.0098,2.0508,1.7577,1.5214,0.0,0.0,0.0,0.0,0.0,0.0,0.0,0.0,0.0,0.0,0.0,1.9558,1.5575,2.1887,2.5829,2.4969,2.6005,2.7659,2.9871,3.0143,3.116,3.3769,3.4061,3.4696,3.6407,3.7353,3.82,3.9184,3.9608,3.9996,4.0439,3.9704,3.9281,3.9723,3.9819,4.0015,4.0439,4.0492,4.0531,4.0584,4.0582,4.0737,4.1096,4.1509,4.1904,4.2312,4.2754,4.3201,4.3551,4.3643,4.3893,4.4686,4.4878,4.5071,4.5306,4.4878,4.4282,4.422,4.4566,4.4859,2.7166,2.7185,2.7361,2.7425,2.7457,2.7669,2.768,2.7643,2.7975,2.8136,2.812,2.812,2.8139,2.812,2.812,2.8117,2.812,2.8159,2.8031,2.7833,2.8105,2.8028,2.7714,2.7925,2.8008,2.7854,2.7142,2.6772,2.6733,2.6,2.5574,2.5478,2.5462,2.5423,2.5308,2.5308,2.5333,2.539,2.5447,2.5509,2.5593,2.5599,2.5261,2.4628,2.5078,2.4648,2.3184,2.3008,2.2285,2.0879,2.0879,2.082,2.0586,1.916,1.8437,0.0,1.7538,0.0,0.0,0.0,0.0,0.0,0.0,0.0,0.0,2.1231,2.1327,2.2254,2.7442,3.0368,2.9511,3.0814,3.2102,3.308,3.3237,3.3907,3.5577,3.5927,3.6542,3.8007,3.8915,3.9454,3.9511,4.0073,4.0492,4.0492,4.0435,4.0358,4.0477,4.0454,4.0458,4.0492,4.0492,4.0584,4.0819,4.0862,4.1171,4.1915,4.2228,4.2374,4.3124,4.3397,4.3682,4.4278,4.4474,4.4724,4.5475,4.5575,4.5575,4.5594,4.5518,4.546,4.5479,4.5475,4.5594,2.862,2.8607,2.8651,2.8667,2.8676,2.8919,2.8748,2.8283,2.9027,2.935,2.9369,2.9354,2.9373,2.935,2.9354,2.9354,2.9362,2.9527,2.9561,2.953,2.979,2.9527,2.8834,2.8841,2.853,2.7934,2.7717,2.7643,2.7643,2.7489,2.7044,2.6368,2.6368,2.6,2.5324,0.0,0.0,0.0,2.5411,2.5459,2.5507,2.5567,2.5525,2.5356,2.4217,0.0,2.3184,2.25,2.1992,2.1699,2.2324,0.0,0.0,0.0,0.0,0.0,0.0,0.0,0.0,0.0,0.0,0.0,2.2998,2.2863,2.2613,2.3637,2.5,2.6604,3.0179,3.2083,3.1291,3.1487,3.2599,3.4712,3.5,3.5673,3.7292,3.8123,3.8742,3.9011,3.9761,4.0265,4.0265,4.0416,4.0492,4.0492,4.0492,4.0492,4.0492,4.0492,4.0492,4.0496,4.0577,4.08,4.1478,4.1601,4.1909,4.2691,4.3464,4.3835,4.4047,4.4648,4.509,4.5321,4.5359,4.5379,4.5575,4.5594,4.5594,4.5594,4.5594,4.5594,4.5594,4.5594,4.5594,2.8987,2.8987,2.8987,2.8987,0.0,2.9151,2.9008,2.8742,2.941,2.9705,2.9705,2.9705,2.9705,2.9705,2.9705,2.9705,2.9705,2.98,2.9796,2.9722,2.9935,2.9768,2.9254,2.9337,2.9239,2.8935,2.852,2.8393,2.8467,2.8085,2.7681,2.7258,2.7236,2.6813,2.5962,2.5522,2.5322,2.5348,2.5346,2.5381,2.545,2.549,2.5322,2.4955,2.4559,0.0,0.0,0.0,0.0,0.0,0.0,0.0,0.0,0.0,0.0,2.4277,2.2383,2.1738,2.2969,2.304,2.3945,2.6051,2.648,2.6279,2.5385,2.6101,2.7291,2.9041,3.2195,3.3849,3.3064,3.3676,3.4696,3.5927,3.6484,3.7257,3.8415,3.9011,3.9457,3.9838,4.0227,4.0492,4.0492,4.0492,4.0492,4.0492,4.0492,4.0512,4.0492,4.0492,4.0619,4.1137,4.128,4.1591,4.2376,4.2549,4.2782,4.3608,4.4079,4.4459,4.4878,4.5302,4.5594,4.5594,4.5594,4.5594,4.5594,4.5594,4.5594,4.5594,4.5594,4.5594,4.5594,4.5594,4.5594,2.8987,2.8987,2.8987,2.8987,2.8987,2.8987,2.8987,2.9034,2.9416,0.0,0.0,2.9593,2.9575,2.9593,2.9575,2.9575,2.9579,2.962,2.9551,2.9417,2.9616,2.9616,2.9474,2.9656,2.9841,2.9964,2.9371,2.9165,2.9294,2.8662,2.8239,2.8124,2.8124,2.7678,2.683,2.6118,2.575,2.5733,2.5462,2.5336,2.537,2.5389,2.5099,2.4503,2.5067,2.4733,2.3397,2.4023,2.3769,2.2441,2.3164,2.3418,2.2949,2.3379,2.4336,2.582,2.5273,2.5547,2.7109,2.7182,2.7522,2.8356,2.921,2.9302,2.8412,2.8332,2.9116,3.0928,3.3806,3.5293,3.4762,3.5878,3.686,3.7133,3.7817,3.8569,3.9361,3.9511,3.9785,4.0377,4.0477,4.0492,4.0492,4.0492,4.0492,4.0535,4.0685,4.0839,4.0904,4.0943,4.1181,4.2002,4.2251,4.2631,4.3323,4.3488,4.3766,4.4504,4.4608,4.4806,4.5359,4.5594,4.5594,4.5594,4.5594,4.5594,4.5594,4.5594,4.5594,4.5594,4.5594,4.5594,4.5594,4.5594,4.5594,2.9005,2.8987,2.8987,2.8987,2.8987,2.8987,2.8987,2.8987,2.9078,2.9093,2.9093,2.9093,2.9088,2.9093,2.9093,2.9093,2.911,2.9338,2.9424,2.9394,2.9612,2.9687,2.967,2.9865,2.9973,3.0017,3.0107,3.0191,3.0189,3.0096,2.9676,2.9011,2.8915,2.8527,2.7777,2.7582,2.7546,2.7508,2.606,2.5296,2.5313,2.5371,2.5353,2.5236,2.4762,2.4391,2.4142,2.4314,2.4297,2.4082,2.4883,2.5312,2.5234,2.5273,2.5898,2.7031,2.6816,2.709,2.8047,2.8125,2.8453,2.9311,3.0725,3.1174,3.0161,3.0058,3.1083,3.3485,3.4909,3.5941,3.6485,3.6755,3.7475,3.8733,3.9076,3.9457,4.0196,4.0265,4.0323,4.0473,4.0492,4.0492,4.0492,4.0492,4.0512,4.0612,4.1185,4.1873,4.2383,4.219,4.2173,4.2822,4.3129,4.3542,4.4173,4.4333,4.4626,4.5316,4.537,4.5359,4.5532,4.5594,4.5594,4.5594,4.5594,4.5594,4.5594,4.5594,4.5594,4.5594,4.5594,4.5594,4.5594,4.5594,4.5594,3.0301,3.0301,3.0283,3.0295,3.0301,3.0301,3.0295,3.0301,3.0295,3.0038,2.9726,3.0112,3.0301,3.0265,2.9861,2.9647,2.9641,2.9331,2.9189,2.9181,2.9272,2.9311,2.9321,2.9436,2.9523,2.9683,2.99,3.0073,3.0189,3.032,3.0192,2.9794,2.9355,2.8915,2.8549,2.8126,2.789,2.7876,2.6659,2.6003,2.6,2.5576,2.5367,2.539,2.5059,2.4928,2.5014,2.5027,2.5075,2.5098,2.5488,2.5918,2.6367,2.5977,2.6348,2.7773,2.8086,2.8418,2.8965,2.9453,3.0037,3.0796,3.1535,3.2218,3.262,3.2089,3.25,3.4248,3.5295,3.6161,3.6932,3.7395,3.816,3.939,3.9823,4.0207,4.05,4.053,4.0492,4.0492,4.0492,4.0492,4.0492,4.0492,4.0723,4.1143,4.195,4.2816,4.3621,4.3608,4.3569,4.3923,4.4061,4.4437,4.5076,4.515,4.526,4.556,4.5594,4.5594,4.5594,4.5594,4.5594,4.5594,4.5594,4.5594,4.5594,4.5594,4.5594,4.5594,4.5594,4.5594,4.5594,4.5594,4.5594,3.1409,3.1409,3.1409,3.1409,3.1409,3.1409,3.1409,3.1427,3.1592,3.1329,3.0846,3.1225,3.1409,3.1335,3.0742,3.046,3.0375,2.9837,2.9445,2.928,2.9262,2.9189,2.9017,2.905,2.9192,2.9428,2.9643,2.9849,3.0013,3.0286,3.0404,3.0327,2.9714,2.9374,2.9374,2.8778,2.8467,2.8409,2.7601,2.706,2.689,2.6233,2.5839,2.5677,2.5711,2.5772,2.586,2.5898,2.6029,2.6269,2.6289,2.6602,2.7207,2.6523,2.6836,2.8418,2.8965,2.9414,2.9883,3.0684,3.1444,3.1998,3.2406,3.3156,3.4301,3.3971,3.3921,3.4783,3.5941,3.6848,3.7404,3.814,3.8963,3.9818,4.0359,4.0656,4.0702,4.0591,4.0492,4.0492,4.0492,4.0492,4.0535,4.0689,4.1262,4.2277,4.297,4.3675,4.4457,4.4842,4.4944,4.4971,4.4984,4.5183,4.5791,4.5715,4.5629,4.5616,4.5594,4.5594,4.5594,4.5594,4.5594,4.5594,4.5594,4.5594,4.5594,4.5594,4.5594,4.5594,4.5594,4.5594,4.5594,4.5594,4.5594,3.1421,3.1409,3.1464,3.1409,3.1464,3.1445,3.1482,3.1556,3.2167,3.2461,3.2295,3.1702,3.1445,3.139,3.1342,3.128,3.128,3.1207,3.076,3.0136,3.0099,2.9702,2.9138,2.9267,2.9377,2.9458,2.9778,2.9939,2.9995,3.0264,3.0404,3.0404,3.0308,3.0234,3.0234,3.0154,3.0154,3.0135,2.9313,2.8511,2.7835,2.772,2.7282,2.6525,2.6599,2.6666,2.6699,2.6804,2.7246,2.7969,2.7988,2.8086,2.8105,2.7578,2.791,2.9336,2.9336,2.9648,3.0703,3.1582,3.2129,3.2285,3.3594,3.4453,3.4726,3.5293,3.5671,3.6012,3.7338,3.8223,3.8475,3.908,3.9837,4.0613,4.0736,4.0717,4.0703,4.0591,4.0492,4.0492,4.0516,4.0512,4.0654,4.1258,4.2316,4.3624,4.4013,4.4483,4.5279,4.5548,4.5592,4.5732,4.5852,4.5848,4.585,4.5812,4.5711,4.561,4.5594,4.5594,4.5594,4.5594,4.5594,4.5594,4.5594,4.5594,4.5594,4.5594,4.5594,4.5594,4.5594,4.5594,4.5594,4.5594,4.5594,3.2611,3.2822,3.2822,3.2822,3.2816,3.2816,3.2822,3.2859,3.3158,3.3305,3.3286,3.2963,3.2816,3.2779,3.2332,3.2112,3.2082,3.1629,3.1244,3.0913,3.0895,3.0723,3.0411,3.0009,2.988,2.9834,2.9714,2.9718,2.988,3.0196,3.0404,3.0404,3.0404,3.0404,3.0404,3.0404,3.0404,3.0404,3.0061,2.9695,2.9291,2.8409,2.7741,2.743,2.7462,2.7524,2.7578,2.7666,2.7887,2.8262,2.8281,2.8535,2.9043,2.834,2.8672,3.0195,3.0762,3.1172,3.1641,3.2441,3.3125,3.3633,3.4297,3.4883,3.541,3.5801,3.6171,3.6813,3.7891,3.8613,3.8691,3.9336,4.0169,4.0907,4.0972,4.0882,4.0864,4.0747,4.0657,4.0623,4.0616,4.08,4.1366,4.245,4.347,4.4301,4.4671,4.5267,4.5731,4.5841,4.5861,4.5842,4.5914,4.5936,4.5821,4.5737,4.5665,4.5625,4.5594,4.5594,4.5594,4.5594,4.5594,4.5594,4.5594,4.5594,4.5594,4.5594,4.5594,4.5594,4.5594,4.5594,4.5594,4.5594,4.5594,3.3529,3.3793,3.3807,3.3807,3.3807,3.3807,3.3807,3.3807,3.3807,3.3807,3.3807,3.3807,3.3807,3.3722,3.3176,3.2931,3.2846,3.2327,3.1941,3.1776,3.1721,3.1604,3.136,3.0821,3.0522,3.0441,3.0001,2.9771,2.9832,3.0098,3.032,3.0395,3.0404,3.0404,3.0404,3.0404,3.0404,3.0404,3.0404,3.0404,3.0231,2.9214,2.8467,2.8255,2.8291,2.836,2.8463,2.8527,2.87,2.8984,2.9004,2.9297,2.9863,2.9355,2.9785,3.1367,3.1953,3.2305,3.2519,3.3281,3.4023,3.4629,3.4883,3.5312,3.584,3.6016,3.6387,3.7226,3.8516,3.9297,3.9062,3.9746,4.0508,4.1113,4.108,4.0996,4.097,4.0877,4.0768,4.0729,4.0702,4.11,4.2098,4.3331,4.4301,4.4705,4.523,4.5665,4.5776,4.5833,4.5861,4.5799,4.5816,4.5789,4.5761,4.568,4.5603,4.5594,4.5594,4.5594,4.5594,4.5594,4.5594,4.5594,4.5594,4.5594,4.5594,4.5594,4.5594,4.5594,4.5594,4.5594,4.5594,4.5594,4.5594,3.3775,3.3807,3.3807,3.3807,3.3807,3.3807,3.3807,3.3807,3.3807,3.3807,3.3807,3.3807,3.3807,3.3807,3.3715,3.3733,3.3715,3.3605,3.3201,3.2589,3.2552,3.2137,3.1427,3.136,3.1335,3.1305,3.0772,3.0386,3.0095,3.0093,3.015,3.0453,3.05,3.0442,3.0459,3.042,3.0404,3.0404,3.0404,3.0404,3.0385,3.0288,2.9791,2.9138,2.913,2.9204,2.9319,2.9421,2.983,3.0703,3.0664,3.0762,3.082,3.0781,3.1465,3.291,3.2617,3.2598,3.334,3.416,3.4687,3.4824,3.5449,3.5957,3.6094,3.6035,3.6465,3.7285,3.957,4.0586,4.0039,4.0508,4.1035,4.1172,4.11,4.1003,4.1017,4.0917,4.0796,4.0743,4.0863,4.1557,4.2856,4.3778,4.466,4.5261,4.5653,4.5783,4.579,4.5812,4.5816,4.5783,4.5714,4.5614,4.5616,4.5616,4.5603,4.5594,4.5594,4.5594,4.5594,4.5594,4.5594,4.5594,4.5594,4.5594,4.5594,4.5594,4.5594,4.5594,4.5594,4.5594,4.5594,4.5594,4.5594,3.3299,3.38,3.3807,3.3807,3.3807,3.3807,3.3807,3.3807,3.3807,3.3807,3.3807,3.3807,3.3807,3.3807,3.3807,3.3807,3.3807,3.3807,3.3635,3.3366,3.336,3.3201,3.2926,3.243,3.2167,3.2058,3.1446,3.1211,3.1475,3.1694,3.1904,3.1878,3.1468,3.1234,3.1138,3.0676,3.0404,3.0404,3.0404,3.0404,3.0442,3.0404,3.0234,2.9951,3.0004,3.0068,3.0093,3.0203,3.0447,3.077,3.0838,3.0918,3.0957,3.1426,3.2207,3.3262,3.3652,3.3926,3.4277,3.5039,3.5527,3.5547,3.5801,3.6269,3.6601,3.6406,3.6797,3.8711,4.0215,4.0957,4.0898,4.1016,4.1191,4.1191,4.1172,4.1133,4.1127,4.108,4.0985,4.0961,4.1557,4.2695,4.3623,4.459,4.5265,4.5611,4.57,4.5735,4.5828,4.5813,4.5799,4.5793,4.5745,4.5692,4.5594,4.5599,4.5594,4.5594,4.5594,4.5594,4.5594,4.5594,4.5594,4.5594,4.5594,4.5594,4.5594,4.5594,4.5594,4.5594,4.5594,4.5594,4.5594,4.5594,4.5594,3.3057,3.3597,3.376,3.3807,3.3807,3.3807,3.3807,3.3807,3.3807,3.3807,3.3807,3.3807,3.3807,3.3807,3.3807,3.3807,3.3807,3.3807,3.3807,3.3807,3.3807,3.3807,3.3715,3.3256,3.2993,3.2872,3.2275,3.2048,3.2213,3.26,3.2817,3.283,3.233,3.2083,3.1984,3.1484,3.1215,3.1195,3.1212,3.1234,3.1215,3.1215,3.1061,3.0899,3.1105,3.0982,3.0539,3.0617,3.0681,3.0717,3.0817,3.0918,3.0996,3.1973,3.3086,3.4121,3.4492,3.4844,3.5117,3.5664,3.5996,3.5996,3.6035,3.6387,3.7148,3.6992,3.7871,3.9414,4.0625,4.1191,4.1191,4.1191,4.1191,4.1191,4.1191,4.1191,4.1191,4.1191,4.1211,4.1459,4.261,4.3667,4.428,4.5056,4.5545,4.5796,4.5703,4.5726,4.5814,4.5822,4.5789,4.5743,4.5734,4.5684,4.5629,4.5594,4.5594,4.5594,4.5594,4.5594,4.5594,4.5594,4.5594,4.5594,4.5594,4.5594,4.5594,4.5594,4.5594,4.5594,4.5594,4.5594,4.5594,4.5594,4.5594,3.3191,3.3317,3.3627,3.3807,3.3807,3.3807,3.3807,3.3807,3.3807,3.3807,3.3807,3.3807,3.3807,3.3807,3.3807,3.3807,3.3807,3.3807,3.3807,3.3807,3.3807,3.3807,3.3795,3.3733,3.3678,3.3668,3.3252,3.2788,3.2463,3.2791,3.2994,3.3003,3.3006,3.291,3.2929,3.2756,3.2756,3.2679,3.2641,3.2737,3.2872,3.2699,3.2352,3.1868,3.2368,3.2083,3.07,3.071,3.0869,3.0884,3.0971,3.0937,3.1328,3.2559,3.416,3.5371,3.5176,3.5195,3.582,3.5957,3.6016,3.6035,3.6055,3.6523,3.7383,3.8047,3.8789,3.9648,4.0547,4.1191,4.1191,4.1191,4.1191,4.1191,4.1191,4.1191,4.1191,4.1211,4.1434,4.2112,4.3383,4.4325,4.4522,4.5105,4.5646,4.5752,4.5783,4.5776,4.5803,4.5793,4.5725,4.564,4.5631,4.5627,4.5616,4.5594,4.5594,4.5594,4.5594,4.5594,4.5594,4.5594,4.5594,4.5594,4.5594,4.5594,4.5594,4.5594,4.5594,4.5594,4.5594,4.5594,4.5594,4.5594,4.5594,3.3068,3.3618,3.3741,3.3807,3.3807,3.3807,3.3807,3.3807,3.3807,3.3807,3.3807,3.3807,3.3807,3.3807,3.3807,3.3807,3.3807,3.3807,3.3807,3.3807,3.3807,3.3807,3.3807,3.3807,3.3807,3.3858,3.407,3.4098,3.4003,3.433,3.4636,3.4593,3.4068,3.3798,3.376,3.3221,3.2891,3.2891,3.2891,3.2891,3.2891,3.291,3.2795,3.2583,3.2776,3.2611,3.2215,3.2218,3.2295,3.2369,3.2502,3.2569,3.2812,3.3672,3.4805,3.5801,3.5781,3.5664,3.5937,3.6016,3.6016,3.6113,3.6523,3.7305,3.8105,3.8769,3.957,4.041,4.1016,4.1191,4.1191,4.1191,4.1191,4.1191,4.1191,4.1211,4.1328,4.1596,4.1974,4.2475,4.3586,4.4496,4.5072,4.5599,4.5728,4.579,4.5806,4.5799,4.5786,4.5734,4.5657,4.5603,4.5594,4.5594,4.5594,4.5594,4.5594,4.5594,4.5594,4.5594,4.5594,4.5594,4.5594,4.5594,4.5594,4.5594,4.5594,4.5594,4.5594,4.5594,4.5594,4.5594,4.5594,4.5594,4.5594,3.2663,3.3314,3.3497,3.368,3.38,3.3807,3.3807,3.3807,3.3807,3.3807,3.3807,3.3807,3.3807,3.3807,3.3807,3.3807,3.3807,3.3807,3.3807,3.3807,3.3807,3.3807,3.3807,3.3807,3.3807,3.3888,3.4289,3.4577,3.4733,3.5122,3.5391,3.5336,3.4946,3.468,3.4661,3.418,3.3849,3.3872,3.3888,3.3869,3.3869,3.3869,3.3718,3.3487,3.3699,3.3676,3.3458,3.3711,3.3683,3.3334,3.3514,3.3692,3.3535,3.4492,3.543,3.584,3.6016,3.5996,3.6016,3.6016,3.6172,3.6504,3.7012,3.7851,3.8789,3.9355,3.9922,4.0957,4.1191,4.1191,4.1191,4.1191,4.1191,4.1191,4.1191,4.1328,4.1621,4.2246,4.2831,4.3389,4.4242,4.5008,4.5529,4.5752,4.5812,4.5826,4.5818,4.5799,4.5782,4.5692,4.5627,4.5594,4.5594,4.5594,4.5594,4.5594,4.5594,4.5594,4.5594,4.5594,4.5594,4.5594,4.5594,4.5594,4.5594,4.5594,4.5594,4.5594,4.5594,4.5594,4.5594,4.5594,4.5594,4.5594,4.5594,3.2092,3.2567,3.3022,3.344,3.3793,3.3807,3.3807,3.3807,3.3807,3.3807,3.3807,3.3807,3.3807,3.3807,3.3807,3.3807,3.3807,3.3807,3.3807,3.3807,3.3807,3.3807,3.3807,3.3807,3.3807,3.3867,3.4105,3.439,3.4699,3.4994,3.525,3.5444,3.5427,3.5462,3.535,3.5442,3.5288,3.5231,3.5327,3.5308,3.5308,3.535,3.5061,3.4337,3.4907,3.4962,3.4491,3.4866,3.465,3.3529,3.4225,3.4396,3.4062,3.5137,3.5937,3.6016,3.6016,3.6016,3.6016,3.6191,3.6445,3.709,3.7539,3.8066,3.9492,3.9766,4.0117,4.1074,4.1191,4.1191,4.1191,4.1191,4.1191,4.1191,4.1191,4.1523,4.2305,4.3025,4.3521,4.4163,4.5096,4.5799,4.577,4.5783,4.5847,4.5839,4.5811,4.5809,4.5743,4.5669,4.562,4.5594,4.5594,4.5594,4.5594,4.5594,4.5594,4.5594,4.5594,4.5594,4.5594,4.5594,4.5594,4.5594,4.5594,4.5594,4.5594,4.5594,4.5594,4.5594,4.5594,4.5594,4.5594,4.5594,4.5594,3.2281,3.3014,3.3143,3.3426,3.3787,3.3807,3.3825,3.3807,3.3844,3.3917,3.3825,3.3807,3.3917,3.3825,3.3844,3.3807,3.3844,3.3807,3.3807,3.3807,3.3807,3.3807,3.3807,3.3807,3.3807,3.386,3.4056,3.4373,3.4699,3.4954,3.5223,3.5477,3.5503,3.5503,3.5503,3.5503,3.5503,3.5503,3.5503,3.5503,3.5503,3.5503,3.5388,3.5253,3.5385,3.5385,3.5176,3.5369,3.5437,3.5111,3.5315,3.551,3.5273,3.5723,3.6016,3.6016,3.6016,3.6035,3.6133,3.6582,3.7051,3.7383,3.8437,3.9414,3.9824,4.043,4.082,4.1191,4.1191,4.1191,4.1191,4.1191,4.1191,4.1191,4.125,4.1582,4.2363,4.2999,4.3528,4.378,4.5007,4.5605,4.5742,4.5776,4.5836,4.5741,4.5736,4.5749,4.5688,4.5644,4.5594,4.5594,4.5594,4.5594,4.5594,4.5594,4.5594,4.5594,4.5594,4.5594,4.5594,4.5594,4.5594,4.5594,4.5594,4.5594,4.5594,4.5594,4.5594,4.5594,4.5594,4.5594,4.5594,4.5594,4.5594,3.3362,3.4207,3.4207,3.4469,3.4814,3.486,3.4669,3.4442,3.4706,3.4633,3.4461,3.4718,3.4853,3.4823,3.4486,3.4314,3.4259,3.3935,3.3807,3.3807,3.3807,3.3807,3.3807,3.3807,3.3807,3.3827,3.3955,3.4278,3.4648,3.4875,3.5126,3.5439,3.5503,3.5503,3.5503,3.5503,3.5503,3.5503,3.5503,3.5503,3.5503,3.5503,3.5484,3.5503,3.5503,3.5503,3.5503,3.5503,3.5538,3.564,3.5752,3.5865,3.5996,3.6016,3.6016,3.6016,3.6016,3.6113,3.6562,3.7051,3.7656,3.8359,3.9473,4.0,4.043,4.0937,4.1191,4.1191,4.1191,4.1191,4.1191,4.1191,4.1191,4.125,4.1504,4.2031,4.2851,4.3242,4.3745,4.4402,4.5179,4.5787,4.5703,4.5833,4.5805,4.5743,4.5763,4.57,4.562,4.5597,4.5594,4.5594,4.5594,4.5594,4.5594,4.5594,4.5594,4.5594,4.5594,4.5594,4.5594,4.5594,4.5594,4.5594,4.5594,4.5594,4.5594,4.5594,4.5594,4.5594,4.5594,4.5594,4.5594,4.5594,4.5594,3.4792,3.5604,3.5604,3.5859,3.6182,3.6266,3.5764,3.5371,3.5826,3.5771,3.5397,3.5947,3.6028,3.6255,3.5188,3.5023,3.5078,3.4211,3.3862,3.3807,3.3807,3.3807,3.3807,3.3807,3.3842,3.3888,3.3855,3.4225,3.4663,3.4779,3.5044,3.5387,3.5503,3.5503,3.5503,3.5503,3.5503,3.5503,3.5503,3.5503,3.5503,3.5503,3.5503,3.5503,3.5503,3.5503,3.5503,3.5491,3.5525,3.5582,3.5652,3.5791,3.5957,3.6016,3.623,3.6348,3.6445,3.6601,3.7305,3.7656,3.8242,3.9453,3.9883,4.0332,4.0937,4.1172,4.1191,4.1191,4.1191,4.1191,4.1191,4.1191,4.1308,4.1465,4.2012,4.2754,4.3535,4.3673,4.4171,4.5635,4.5828,4.5858,4.5867,4.5885,4.5864,4.57,4.5723,4.5684,4.5618,4.5607,4.5594,4.5594,4.5594,4.5594,4.5594,4.5594,4.5594,4.5594,4.5594,4.5594,4.5594,4.5594,4.5594,4.5594,4.5594,4.5594,4.5594,4.5594,4.5594,4.5594,4.5594,4.5594,4.5594,4.5594,4.5594,3.5089,3.5622,3.5622,3.5877,3.6256,3.6285,3.6218,3.6046,3.6229,3.631,3.6101,3.6248,3.6358,3.6328,3.561,3.5334,3.5771,3.4658,3.3825,3.3807,3.3807,3.3807,3.3862,3.3935,3.3959,3.4062,3.4099,3.4416,3.4837,3.499,3.5178,3.5446,3.5503,3.5503,3.5503,3.5503,3.5503,3.5503,3.5503,3.5503,3.5503,3.5503,3.5503,3.5503,3.5503,3.5519,3.55,3.5503,3.5501,3.555,3.5667,3.5916,3.5938,3.6026,3.6654,3.7441,3.7324,3.7402,3.8223,3.8867,3.9453,3.9883,4.0488,4.0996,4.1113,4.1191,4.1191,4.1191,4.1191,4.1191,4.1191,4.1191,4.1504,4.1953,4.2383,4.3105,4.4277,4.4546,4.4946,4.5712,4.6036,4.5986,4.5846,4.5876,4.5809,4.5684,4.5643,4.5622,4.562,4.5594,4.5594,4.5594,4.5594,4.5594,4.5594,4.5594,4.5594,4.5594,4.5594,4.5594,4.5594,4.5594,4.5594,4.5594,4.5594,4.5594,4.5594,4.5594,4.5594,4.5594,4.5594,4.5594,4.5594,4.5594,4.5594,3.658,3.7051,3.7041,3.7186,3.74,3.7422,3.7202,3.6989,3.7276,3.721,3.7008,3.7221,3.7422,3.7356,3.6615,3.6486,3.6494,3.5613,3.4981,3.5018,3.5,3.5,3.4963,3.486,3.4773,3.4222,3.4147,3.4484,3.4827,3.5089,3.5238,3.5467,3.5503,3.5503,3.5503,3.5523,3.5503,3.5503,3.5503,3.5503,3.5503,3.5503,3.5503,3.5503,3.5523,3.5635,3.6038,3.608,3.6311,3.6566,3.6701,3.6372,3.6135,3.6664,3.7651,3.8242,3.8242,3.834,3.9121,3.9629,4.0039,4.0469,4.0957,4.1113,4.1191,4.1191,4.1191,4.1191,4.1191,4.1191,4.1211,4.1641,4.2012,4.2402,4.3164,4.4023,4.4746,4.4887,4.5162,4.5885,4.6135,4.5978,4.5885,4.5869,4.5785,4.5657,4.5618,4.5616,4.5612,4.5594,4.5594,4.5594,4.5594,4.5594,4.5594,4.5594,4.5594,4.5594,4.5594,4.5594,4.5594,4.5594,4.5594,4.5594,4.5594,4.5594,4.5594,4.5594,4.5594,4.5594,4.5594,4.5594,4.5594,4.5594,4.5594,3.8265,3.8699,3.8699,3.8699,3.8699,3.8652,3.8248,3.7834,3.8395,3.8175,3.7889,3.8432,3.8443,3.845,3.7742,3.7456,3.7125,3.6861,3.6285,3.6028,3.6009,3.6009,3.6028,3.5925,3.5535,3.4301,3.4717,3.5039,3.5295,3.5264,3.5649,3.5678,3.5519,3.55,3.5503,3.5654,3.5769,3.5811,3.6061,3.6119,3.608,3.6061,3.608,3.61,3.6138,3.6388,3.6811,3.6965,3.7196,3.7934,3.8136,3.7362,3.6804,3.7381,3.8828,3.8926,3.8965,3.9238,3.9883,4.0195,4.0488,4.1172,4.1191,4.1191,4.1191,4.1191,4.1191,4.1191,4.1211,4.1289,4.1406,4.1894,4.2441,4.3027,4.4238,4.4922,4.5176,4.5086,4.5576,4.6012,4.6171,4.6021,4.5909,4.5846,4.5744,4.5653,4.5622,4.5594,4.5594,4.5594,4.5594,4.5594,4.5594,4.5594,4.5594,4.5594,4.5594,4.5594,4.5594,4.5594,4.5594,4.5594,4.5594,4.5594,4.5594,4.5594,4.5594,4.5594,4.5594,4.5594,4.5594,4.5594,4.5594,4.5594,4.5594,3.8619,3.8699,3.8699,3.8699,3.8699,3.8699,3.8608,3.8542,3.8626,3.8634,3.8524,3.8652,3.8699,3.8505,3.787,3.7199,3.6989,3.7063,3.7008,3.6585,3.6505,3.6505,3.656,3.6597,3.6255,3.615,3.6341,3.6712,3.6673,3.6691,3.6423,3.6332,3.5942,3.5677,3.5885,3.6096,3.6504,3.66,3.7026,3.7292,3.7315,3.7315,3.7331,3.7311,3.7273,3.7504,3.77,3.7796,3.7853,3.8064,3.874,3.8505,3.798,3.822,3.9191,4.0078,4.0,4.0039,4.0684,4.0918,4.1016,4.1172,4.1191,4.1191,4.1191,4.123,4.1308,4.1406,4.1406,4.1504,4.2148,4.2539,4.3203,4.4101,4.4785,4.5332,4.582,4.5976,4.5937,4.6209,4.617,4.6056,4.5912,4.5808,4.5733,4.5649,4.5605,4.5594,4.5594,4.5594,4.5594,4.5594,4.5594,4.5594,4.5594,4.5594,4.5594,4.5594,4.5594,4.5594,4.5594,4.5594,4.5594,4.5594,4.5594,4.5594,4.5594,4.5594,4.5594,4.5594,4.5594,4.5594,4.5594,4.5594,4.5594,3.8699,3.8699,3.8699,3.8699,3.8699,3.8699,3.8699,3.8699,3.8699,3.8699,3.8699,3.8699,3.8699,3.8589,3.8358,3.7889,3.7742,3.7863,3.7881,3.7551,3.7558,3.7551,3.7477,3.7496,3.7551,3.7714,3.8091,3.7862,3.7341,3.7195,3.7229,3.7278,3.6946,3.6811,3.6869,3.7177,3.735,3.7504,3.7796,3.8042,3.8027,3.8027,3.8027,3.8027,3.8084,3.8238,3.8646,3.8665,3.8896,3.9296,3.9715,3.9646,3.9451,3.9521,4.0021,4.0879,4.0781,4.0684,4.1113,4.1191,4.1191,4.1191,4.1191,4.1191,4.1191,4.125,4.1543,4.2187,4.2168,4.2344,4.3008,4.3418,4.4141,4.4805,4.5371,4.582,4.6152,4.6269,4.625,4.6223,4.6141,4.6013,4.5877,4.5777,4.5729,4.5669,4.5612,4.5594,4.5594,4.5594,4.5594,4.5594,4.5594,4.5594,4.5594,4.5594,4.5594,4.5594,4.5594,4.5594,4.5594,4.5594,4.5594,4.5594,4.5594,4.5594,4.5594,4.5594,4.5594,4.5594,4.5594,4.5594,4.5594,4.5594,4.5594,3.8699,3.8699,3.8699,3.8699,3.8699,3.8699,3.8699,3.8699,3.8699,3.8699,3.8699,3.8699,3.8699,3.8681,3.8681,3.8644,3.8699,3.867,3.8589,3.8553,3.8542,3.8644,3.8663,3.8699,3.8542,3.8482,3.894,3.8825,3.8085,3.7894,3.8029,3.8059,3.8142,3.8004,3.7908,3.8065,3.82,3.8315,3.8473,3.8507,3.8492,3.8492,3.8511,3.8488,3.8492,3.8911,3.9454,3.9534,3.9785,4.0146,4.0408,4.0442,4.0503,4.0685,4.0918,4.1152,4.1191,4.1191,4.1191,4.1191,4.1191,4.1191,4.1191,4.1191,4.1191,4.1348,4.1777,4.3086,4.3828,4.3633,4.4023,4.4531,4.5,4.5391,4.5879,4.6289,4.6269,4.6269,4.6191,4.6145,4.6104,4.5983,4.5825,4.5731,4.5673,4.5664,4.5594,4.5594,4.5594,4.5594,4.5594,4.5594,4.5594,4.5594,4.5594,4.5594,4.5594,4.5594,4.5594,4.5594,4.5594,4.5594,4.5594,4.5594,4.5594,4.5594,4.5594,4.5594,4.5594,4.5594,4.5594,4.5594,4.5594,4.5594,4.5594,3.8699,3.8699,3.8699,3.8699,3.8699,3.8699,3.8699,3.8699,3.8699,3.8699,3.8699,3.8699,3.8699,3.8699,3.8699,3.8699,3.8699,3.8699,3.8699,3.8699,3.8699,3.8699,3.8699,3.8699,3.8735,3.8796,3.9075,3.9252,3.9036,3.8986,3.9069,3.9019,3.8546,3.8081,3.8411,3.8877,3.9127,3.9261,3.9804,4.0112,4.0073,4.005,4.005,4.005,4.005,4.005,4.0165,4.0208,4.0358,4.0416,4.0492,4.0492,4.0537,4.0704,4.0939,4.1113,4.1191,4.1191,4.1191,4.1191,4.1191,4.1211,4.1269,4.1211,4.1348,4.1348,4.1777,4.2891,4.4531,4.5293,4.4922,4.4961,4.541,4.5781,4.6152,4.6289,4.6289,4.6289,4.6191,4.6045,4.5987,4.5908,4.5793,4.5708,4.562,4.5603,4.5594,4.5594,4.5594,4.5594,4.5594,4.5594,4.5594,4.5594,4.5594,4.5594,4.5594,4.5594,4.5594,4.5594,4.5594,4.5594,4.5594,4.5594,4.5594,4.5594,4.5594,4.5594,4.5594,4.5594,4.5594,4.5594,4.5594,4.5594,4.5594,3.8699,3.8699,3.8699,3.8699,3.8699,3.8699,3.8699,3.8699,3.8699,3.8699,3.8699,3.8699,3.8699,3.8699,3.8699,3.8699,3.8699,3.8699,3.8699,3.8699,3.8699,3.8699,3.8699,3.8704,3.8739,3.8961,3.9249,3.9624,3.9736,3.9805,3.9789,3.9873,3.9611,3.9511,3.9242,3.9746,3.9935,4.0073,4.0304,4.0473,4.0492,4.0492,4.0492,4.0492,4.0492,4.0492,4.0492,4.0492,4.0492,4.0492,4.0492,4.0492,4.0544,4.0704,4.0918,4.1172,4.1191,4.1191,4.1191,4.1211,4.125,4.1387,4.1601,4.1992,4.1992,4.1719,4.2441,4.4707,4.5644,4.5996,4.582,4.5762,4.5937,4.6191,4.6289,4.6289,4.6289,4.6269,4.6205,4.6045,4.5883,4.5814,4.5743,4.5661,4.5603,4.5599,4.5594,4.5594,4.5594,4.5594,4.5594,4.5594,4.5594,4.5594,4.5594,4.5594,4.5594,4.5594,4.5594,4.5594,4.5594,4.5594,4.5594,4.5594,4.5594,4.5594,4.5594,4.5594,4.5594,4.5594,4.5594,4.5594,4.5594,4.5594,4.5594,3.8699,3.8699,3.8699,3.8699,3.8699,3.8699,3.8699,3.8699,3.8699,3.8699,3.8699,3.8699,3.8699,3.8699,3.8699,3.8699,3.8699,3.8699,3.8699,3.8699,3.8699,3.8699,3.8699,3.8712,3.8826,3.9107,3.9402,3.9737,4.0002,4.0142,4.026,4.0492,4.03,4.0362,4.0439,4.0396,4.0396,4.0416,4.0458,4.0492,4.0492,4.0492,4.0492,4.0492,4.0492,4.0492,4.0492,4.0492,4.0492,4.0492,4.0492,4.0492,4.0534,4.0676,4.0899,4.1191,4.1367,4.1601,4.1601,4.1601,4.1504,4.1738,4.2207,4.2812,4.291,4.2305,4.2637,4.543,4.6055,4.623,4.6289,4.625,4.625,4.625,4.6289,4.6289,4.6289,4.6289,4.6191,4.6003,4.586,4.5792,4.5717,4.5632,4.5594,4.5594,4.5594,4.5594,4.5594,4.5594,4.5594,4.5594,4.5594,4.5594,4.5594,4.5594,4.5594,4.5594,4.5594,4.5594,4.5594,4.5594,4.5594,4.5594,4.5594,4.5594,4.5594,4.5594,4.5594,4.5594,4.5594,4.5594,4.5594,4.5594,4.5594,3.8699,3.8699,3.8699,3.8699,3.8699,3.8699,3.8699,3.8699,3.8699,3.8699,3.8699,3.8699,3.8699,3.8699,3.8699,3.8699,3.8699,3.8699,3.8699,3.8699,3.8707,3.8732,3.8762,3.8818,3.8902,3.9179,3.9522,3.9829,4.0081,4.0324,4.0422,4.0492,4.0492,4.0492,4.0492,4.0492,4.0492,4.0492,4.0492,4.0492,4.0492,4.0492,4.0492,4.0492,4.0492,4.0492,4.0492,4.0492,4.0523,4.0523,4.0538,4.053,4.0572,4.0688,4.0937,4.1474,4.183,4.2105,4.2266,4.2324,4.2363,4.2578,4.3047,4.3691,4.3906,4.375,4.4258,4.5215,4.5976,4.625,4.6289,4.6289,4.6289,4.6289,4.6289,4.6289,4.6289,4.6289,4.6191,4.5976,4.5864,4.5795,4.5703,4.5614,4.5594,4.5594,4.5594,4.5594,4.5594,4.5594,4.5594,4.5594,4.5594,4.5594,4.5594,4.5594,4.5594,4.5594,4.5594,4.5594,4.5594,4.5594,4.5594,4.5594,4.5594,4.5594,4.5594,4.5594,4.5594,4.5594,4.5594,4.5594,4.5594,4.5594,4.5594,3.8699,3.8699,3.8699,3.8699,3.8699,3.8699,3.8699,3.8699,3.8699,3.8699,3.8699,3.8699,3.8699,3.8699,3.8699,3.8699,3.8699,3.8699,3.8699,3.8777,3.8844,3.8919,3.8997,3.9156,3.9408,3.9645,3.9851,4.0048,4.0351,4.0457,4.0477,4.0492,4.0492,4.0492,4.0492,4.0492,4.0492,4.0492,4.0492,4.0492,4.0492,4.0492,4.0492,4.0492,4.0492,4.0492,4.0492,4.0492,4.0545,4.0612,4.0652,4.0717,4.0799,4.0914,4.1433,4.2068,4.2475,4.2731,4.3125,4.3242,4.3418,4.4004,4.4355,4.4668,4.5019,4.5234,4.5391,4.5879,4.6035,4.6269,4.6289,4.6289,4.6289,4.6289,4.6289,4.6289,4.6289,4.6289,4.6172,4.5957,4.5869,4.58,4.5701,4.5603,4.5594,4.5594,4.5594,4.5594,4.5594,4.5594,4.5594,4.5594,4.5594,4.5594,4.5594,4.5594,4.5594,4.5594,4.5594,4.5594,4.5594,4.5594,4.5594,4.5594,4.5594,4.5594,4.5594,4.5594,4.5594,4.5594,4.5594,4.5594,4.5594,4.5594,4.5594,3.8699,3.8699,3.8699,3.8699,3.8699,3.8699,3.8699,3.8699,3.8699,3.8699,3.8699,3.8699,3.8699,3.8699,3.8699,3.8699,3.8699,3.8699,3.8699,3.8788,3.8952,3.9078,3.9206,3.9401,3.9687,4.0022,4.012,4.0218,4.0465,4.0489,4.0492,4.0492,4.0492,4.0492,4.0492,4.0492,4.0492,4.0492,4.0492,4.0492,4.0492,4.0492,4.0492,4.0492,4.0492,4.0492,4.0492,4.0504,4.0574,4.0749,4.0936,4.1189,4.1364,4.1675,4.2294,4.2905,4.3339,4.3475,4.3887,4.416,4.4492,4.5137,4.5312,4.5703,4.6113,4.6289,4.6113,4.6172,4.6269,4.6289,4.6289,4.6289,4.6289,4.6289,4.6289,4.6289,4.6289,4.6289,4.6133,4.5959,4.5881,4.5828,4.569,4.5594,4.5594,4.5594,4.5594,4.5594,4.5594,4.5594,4.5594,4.5594,4.5594,4.5594,4.5594,4.5594,4.5594,4.5594,4.5594,4.5594,4.5594,4.5594,4.5594,4.5594,4.5594,4.5594,4.5594,4.5594,4.5594,4.5594,4.5594,4.5594,4.5594,4.5594,4.5594,3.8699,3.8699,3.8699,3.8699,3.8699,3.8699,3.8699,3.8699,3.8699,3.8699,3.8699,3.8699,3.8699,3.8699,3.8699,3.8699,3.8699,3.8699,3.8719,3.8815,3.9068,3.9125,3.9308,3.9576,3.9924,4.0047,4.0163,4.0289,4.0492,4.0492,4.0492,4.0492,4.0492,4.0492,4.0492,4.0492,4.0492,4.0492,4.0492,4.0492,4.0492,4.0492,4.0492,4.0512,4.0685,4.0762,4.0762,4.0973,4.1109,4.128,4.1757,4.2128,4.2461,4.2758,4.3419,4.4257,4.454,4.4736,4.4961,4.498,4.5391,4.5937,4.5957,4.6133,4.625,4.6289,4.6289,4.6289,4.6289,4.6289,4.6289,4.6289,4.6289,4.6289,4.6289,4.6289,4.6289,4.6289,4.6152,4.5974,4.5894,4.5839,4.5706,4.5594,4.5594,4.5594,4.5594,4.5594,4.5594,4.5594,4.5594,4.5594,4.5594,4.5594,4.5594,4.5594,4.5594,4.5594,4.5594,4.5594,4.5594,4.5594,4.5594,4.5594,4.5594,4.5594,4.5594,4.5594,4.5594,4.5594,4.5594,4.5594,4.5594,4.5594,4.5594,3.8699,3.8699,3.8699,3.8699,3.8699,3.8699,3.8699,3.8699,3.8699,3.8699,3.8699,3.8699,3.8699,3.8699,3.8699,3.8699,3.8699,3.8715,3.875,3.8985,3.9263,3.957,3.9775,3.9974,4.0226,4.0319,4.0372,4.0368,4.0492,4.0492,4.0492,4.0492,4.0492,4.0492,4.0492,4.0492,4.0492,4.0492,4.0492,4.0492,4.0492,4.0531,4.0569,4.0627,4.1108,4.1354,4.1416,4.1743,4.2051,4.2249,4.2772,4.3056,4.3262,4.3496,4.3769,4.4531,4.4902,4.5115,4.5566,4.5879,4.5976,4.623,4.6289,4.6289,4.6289,4.6289,4.6289,4.6289,4.6289,4.6289,4.6289,4.6289,4.6289,4.6289,4.6289,4.6289,4.6289,4.6289,4.6221,4.6001,4.5888,4.5785,4.5658,4.5612,4.5594,4.5594,4.5594,4.5594,4.5594,4.5594,4.5594,4.5594,4.5594,4.5594,4.5594,4.5594,4.5594,4.5594,4.5594,4.5594,4.5594,4.5594,4.5594,4.5594,4.5594,4.5594,4.5594,4.5594,4.5594,4.5594,4.5594,4.5594,4.5594,4.5594,4.5594,3.8699,3.8699,3.8699,3.8699,3.8699,3.8699,3.8699,3.8699,3.8699,3.8699,3.8699,3.8699,3.8699,3.8699,3.8699,3.8699,3.8699,3.8707,3.8851,3.9119,3.9457,3.9737,4.0062,4.0356,4.041,4.0492,4.0492,4.0492,4.0492,4.0492,4.0492,4.0492,4.0512,4.0492,4.0492,4.0492,4.0492,4.0492,4.0512,4.0704,4.0877,4.105,4.1185,4.155,4.1954,4.2258,4.2408,4.2765,4.3215,4.3447,4.3693,4.3932,4.3984,4.4277,4.4473,4.5137,4.541,4.5625,4.6055,4.623,4.623,4.6289,4.6289,4.6289,4.6289,4.6289,4.6289,4.6289,4.6289,4.6289,4.6289,4.6289,4.6289,4.6289,4.6289,4.6289,4.6289,4.6289,4.62,4.6001,4.586,4.5751,4.5645,4.5611,4.5594,4.5594,4.5594,4.5594,4.5594,4.5594,4.5594,4.5594,4.5594,4.5594,4.5594,4.5594,4.5594,4.5594,4.5594,4.5594,4.5594,4.5594,4.5594,4.5594,4.5594,4.5594,4.5594,4.5594,4.5594,4.5594,4.5594,4.5594,4.5594,4.5594,4.5594,3.8699,3.8699,3.8699,3.8699,3.8699,3.8699,3.8699,3.8699,3.8699,3.8699,3.8699,3.8699,3.8699,3.8699,3.8699,3.8699,3.8735,3.8727,3.8937,3.9185,3.9552,3.9845,4.0129,4.0381,4.0477,4.0492,4.0492,4.0492,4.0512,4.0743,4.0743,4.0723,4.0973,4.1012,4.1012,4.1012,4.0935,4.0877,4.105,4.1358,4.172,4.1831,4.2143,4.2547,4.2951,4.3104,4.3232,4.3458,4.3615,4.3896,4.4324,4.4715,4.5195,4.584,4.6133,4.625,4.6191,4.623,4.625,4.6289,4.6289,4.6289,4.6289,4.6289,4.6289,4.6289,4.6289,4.6289,4.6289,4.6289,4.6289,4.6289,4.6289,4.6289,4.6289,4.6289,4.6289,4.625,4.6152,4.6,4.5893,4.577,4.5637,4.5594,4.5594,4.5594,4.5594,4.5594,4.5594,4.5594,4.5594,4.5594,4.5594,4.5594,4.5594,4.5594,4.5594,4.5594,4.5594,4.5594,4.5594,4.5594,4.5594,4.5594,4.5594,4.5594,4.5594,4.5594,4.5594,4.5594,4.5594,4.5594,4.5594,4.5594,4.5594,3.8699,3.8699,3.8699,3.8699,3.8699,3.8699,3.8699,3.8699,3.8699,3.8699,3.8699,3.8699,3.8699,3.8699,3.8699,3.8699,3.8777,3.8927,3.9203,3.9469,3.9735,4.0077,4.0307,4.0457,4.0492,4.0516,4.0535,4.0627,4.0704,4.0993,4.1412,4.1485,4.1854,4.2108,4.2205,4.2335,4.1954,4.1743,4.1935,4.2297,4.2585,4.2701,4.3028,4.3278,4.3778,4.3912,4.4021,4.4565,4.483,4.5164,4.5465,4.5762,4.5957,4.6172,4.6289,4.6289,4.6269,4.6289,4.6289,4.6289,4.6289,4.6289,4.6289,4.6289,4.6289,4.6289,4.6289,4.6289,4.6289,4.6289,4.6289,4.6289,4.6289,4.6289,4.6289,4.6289,4.6289,4.6269,4.6152,4.5967,4.5852,4.5717,4.5597,4.5594,4.5594,4.5594,4.5594,4.5594,4.5594,4.5594,4.5594,4.5594,4.5594,4.5594,4.5594,4.5594,4.5594,4.5594,4.5594,4.5594,4.5594,4.5594,4.5594,4.5594,4.5594,4.5594,4.5594,4.5594,4.5594,4.5594,4.5594,4.5594,4.5594,4.5594,4.5594,3.8699,3.8699,3.8699,3.8699,3.8699,3.8699,3.8699,3.8699,3.8699,3.8699,3.8699,3.8699,3.8699,3.8699,3.8699,3.8707,3.8719,3.8968,3.9257,3.9587,3.9977,4.0223,4.0421,4.0512,4.0492,4.0589,4.0839,4.1123,4.1223,4.1797,4.2312,4.235,4.2951,4.3047,4.3085,4.3201,4.3258,4.3008,4.2989,4.3278,4.3451,4.3605,4.3743,4.407,4.459,4.4705,4.4831,4.5551,4.5764,4.5916,4.6014,4.6152,4.625,4.6289,4.6289,4.6289,4.6289,4.6289,4.6289,4.6289,4.6289,4.6289,4.6289,4.6289,4.6289,4.6289,4.6289,4.6289,4.6289,4.6289,4.6289,4.6289,4.6289,4.6289,4.6289,4.6289,4.6289,4.6289,4.6133,4.5937,4.5795,4.5669,4.5594,4.5594,4.5594,4.5594,4.5594,4.5594,4.5594,4.5594,4.5594,4.5594,4.5594,4.5594,4.5594,4.5594,4.5594,4.5594,4.5594,4.5594,4.5594,4.5594,4.5594,4.5594,4.5594,4.5594,4.5594,4.5594,4.5594,4.5594,4.5594,4.5594,4.5594,4.5594,4.5594,3.8699,3.8699,3.8699,3.8699,3.8699,3.8699,3.8699,3.8699,3.8699,3.8699,3.8699,3.8699,3.8699,3.8699,3.8699,3.8699,3.8811,3.9047,3.9339,3.9639,4.0047,4.0321,4.0468,4.0612,4.0839,4.0989,4.1354,4.1893,4.2139,4.2681,4.3162,4.3201,4.3451,4.3647,4.3801,4.4167,4.4282,4.4205,4.3917,4.3917,4.4301,4.4513,4.4744,4.5325,4.5498,4.5522,4.5562,4.5713,4.585,4.592,4.6045,4.6177,4.625,4.6289,4.6289,4.6289,4.6289,4.6289,4.6289,4.6289,4.6289,4.6289,4.6289,4.6289,4.6289,4.6289,4.6289,4.6289,4.6289,4.6289,4.6289,4.6289,4.6289,4.6289,4.6289,4.6289,4.6289,4.623,4.6055,4.5884,4.574,4.5618,4.5594,4.5594,4.5594,4.5594,4.5594,4.5594,4.5594,4.5594,4.5594,4.5594,4.5594,4.5594,4.5594,4.5594,4.5594,4.5594,4.5594,4.5594,4.5594,4.5594,4.5594,4.5594,4.5594,4.5594,4.5594,4.5594,4.5594,4.5594,4.5594,4.5594,4.5594,4.5594,4.5594,3.8699,3.8699,3.8699,3.8699,3.8699,3.8699,3.8699,3.8699,3.8699,3.8699,3.8699,3.8699,3.8699,3.8699,3.8699,3.8715,3.8826,3.919,3.9481,3.9784,4.0143,4.0368,4.0615,4.0954,4.1277,4.1773,4.2235,4.2816,4.3104,4.3605,4.4032,4.4105,4.4417,4.4724,4.4744,4.5148,4.5128,4.5075,4.4955,4.4782,4.5071,4.5244,4.5479,4.5594,4.5594,4.5594,4.5649,4.5776,4.5849,4.5924,4.6145,4.6247,4.6289,4.6289,4.6289,4.6289,4.6289,4.6289,4.6289,4.6289,4.6289,4.6289,4.6289,4.6289,4.6289,4.6289,4.6289,4.6289,4.6289,4.6289,4.6289,4.6289,4.6289,4.6289,4.6289,4.6289,4.6289,4.6133,4.5976,4.5839,4.5688,4.5639,4.5607,4.5594,4.5594,4.5594,4.5594,4.5594,4.5594,4.5594,4.5594,4.5594,4.5594,4.5594,4.5594,4.5594,4.5594,4.5594,4.5594,4.5594,4.5594,4.5594,4.5594,4.5594,4.5594,4.5594,4.5594,4.5594,4.5594,4.5594,4.5594,4.5594,4.5594,4.5594,4.5594,3.8699,3.8699,3.8699,3.8699,3.8699,3.8699,3.8699,3.8699,3.8699,3.8699,3.8699,3.8699,3.8707,3.8707,3.8699,3.8818,3.8949,3.9364,3.9656,3.9939,4.0193,4.0414,4.0781,4.1143,4.1393,4.1893,4.3085,4.3763,4.4109,4.4532,4.4917,4.4917,4.5417,4.5594,4.5594,4.5594,4.5594,4.5575,4.5594,4.5594,4.5594,4.5594,4.5594,4.5594,4.5594,4.5594,4.5661,4.5776,4.5864,4.5976,4.6149,4.6269,4.6289,4.6289,4.6289,4.6289,4.6289,4.6289,4.6289,4.6289,4.6289,4.6289,4.6289,4.6289,4.6289,4.6289,4.6289,4.6289,4.6289,4.6289,4.6289,4.6289,4.6289,4.6289,4.6289,4.6269,4.6191,4.6055,4.5931,4.5837,4.5704,4.561,4.5594,4.5594,4.5594,4.5594,4.5594,4.5594,4.5594,4.5594,4.5594,4.5594,4.5594,4.5594,4.5594,4.5594,4.5594,4.5594,4.5594,4.5594,4.5594,4.5594,4.5594,4.5594,4.5594,4.5594,4.5594,4.5594,4.5594,4.5594,4.5594,4.5594,4.5594,4.5594,4.5594,3.8699,3.8699,3.8699,3.8699,3.8699,3.8699,3.8699,3.8699,3.8699,3.8699,3.8699,3.8699,3.8723,3.8757,3.8762,3.894,3.9205,3.9582,3.9851,4.0058,4.036,4.068,4.0877,4.1031,4.1873,4.2816,4.3917,4.4705,4.5282,4.5441,4.5441,4.5575,4.5594,4.5594,4.5594,4.5594,4.5594,4.5594,4.5594,4.5594,4.5594,4.5594,4.5594,4.5594,4.5594,4.5588,4.5673,4.5773,4.5881,4.6008,4.6152,4.625,4.6289,4.6289,4.6289,4.6289,4.6289,4.6289,4.6289,4.6289,4.6289,4.6289,4.6289,4.6289,4.6289,4.6289,4.6289,4.6289,4.6289,4.6289,4.6289,4.6289,4.6289,4.6289,4.6289,4.623,4.6106,4.5976,4.5889,4.5812,4.5696,4.5603,4.5594,4.5594,4.5594,4.5594,4.5594,4.5594,4.5594,4.5594,4.5594,4.5594,4.5594,4.5594,4.5594,4.5594,4.5594,4.5594,4.5594,4.5594,4.5594,4.5594,4.5594,4.5594,4.5594,4.5594,4.5594,4.5594,4.5594,4.5594,4.5594,4.5594,4.5594,4.5594,4.5594,3.8699,3.8699,3.8699,3.8699,3.8699,3.8699,3.8699,3.8699,3.8699,3.8699,3.8699,3.8712,3.8803,3.9022,3.9022,3.9205,3.9523,3.9824,3.9972,4.0134,4.0539,4.0969,4.1508,4.2047,4.3451,4.4301,4.4859,4.5325,4.5594,4.5594,4.5594,4.5594,4.5594,4.5594,4.5594,4.5594,4.5594,4.5594,4.5594,4.5594,4.5594,4.5594,4.5594,4.5594,4.5594,4.5669,4.5763,4.5855,4.5955,4.6078,4.6191,4.6269,4.6289,4.6289,4.6289,4.6289,4.6289,4.6289,4.6289,4.6289,4.6289,4.6289,4.6289,4.6289,4.6289,4.6289,4.6289,4.6289,4.6289,4.6289,4.6289,4.6289,4.6289,4.6289,4.6289,4.6152,4.6018,4.5933,4.5863,4.5747,4.5639,4.5594,4.5594,4.5594,4.5594,4.5594,4.5594,4.5594,4.5594,4.5594,4.5594,4.5594,4.5594,4.5594,4.5594,4.5594,4.5594,4.5594,4.5594,4.5594,4.5594,4.5594,4.5594,4.5594,4.5594,4.5594,4.5594,4.5594,4.5594,4.5594,4.5594,4.5594,4.5594,4.5594,4.5594]}]]